<?xml version="1.0" encoding="UTF-8" standalone="no" ?>
<gpx xmlns="http://www.topografix.com/GPX/1/1" xmlns:xsi="http://www.w3.org/2001/XMLSchema-instance" xsi:schemaLocation="http://www.topografix.com/GPX/1/1 http://www.topografix.com/GPX/1/1/gpx.xsd" version="1.1" creator="VisuGPX - https://www.visugpx.com">
  <metadata>
    <name>72km St Mars des Prés édité par cth85.com</name>
    <desc><![CDATA[Ardelay  /La drapelière
Le Gué Jourdain / Mouchamps
La Grange Gallut / La Bobinnière
Les Ardillers / L’Hôpitaux / St Cécile
St Vincent / Les Roches Baritaud
Puybelliard /   St Mars des Prés
Sigournais / La Galdebillière
La Motte : Les Gornières
La Débuterie => St Paul 
A/d Thibaudière / Les Roches a/d
La Champrenière A /g La Barbère
4routes Chambaudière / Croix Barat
St Mars /Le Pressous  / Pelleterie
Ardelay  / Les Herbiers]]></desc>
  </metadata>
  <trk>
    <name><![CDATA[72km St Mars des Prés édité par cth85.com_1]]></name>
    <desc><![CDATA[]]></desc>
    <trkseg>
      <trkpt lat="46.86381" lon="-1.00564">
        <ele>119.2</ele>
        <time>2026-03-12T11:56:23.000Z</time>
      </trkpt>
      <trkpt lat="46.86368" lon="-1.0058">
        <ele>119.2</ele>
        <time>2026-03-12T11:56:25.848Z</time>
      </trkpt>
      <trkpt lat="46.86352" lon="-1.00597">
        <ele>119</ele>
        <time>2026-03-12T11:56:28.782Z</time>
      </trkpt>
      <trkpt lat="46.86326" lon="-1.00624">
        <ele>118.2</ele>
        <time>2026-03-12T11:56:33.047Z</time>
      </trkpt>
      <trkpt lat="46.86324" lon="-1.00626">
        <ele>118.2</ele>
        <time>2026-03-12T11:56:33.510Z</time>
      </trkpt>
      <trkpt lat="46.86316" lon="-1.00633">
        <ele>117.8</ele>
        <time>2026-03-12T11:56:34.537Z</time>
      </trkpt>
      <trkpt lat="46.86272" lon="-1.00663">
        <ele>117.4</ele>
        <time>2026-03-12T11:56:42.204Z</time>
      </trkpt>
      <trkpt lat="46.86236" lon="-1.0068">
        <ele>116.2</ele>
        <time>2026-03-12T11:56:46.989Z</time>
      </trkpt>
      <trkpt lat="46.86237" lon="-1.00686">
        <ele>116.4</ele>
        <time>2026-03-12T11:56:48.200Z</time>
      </trkpt>
      <trkpt lat="46.86248" lon="-1.00733">
        <ele>117.4</ele>
        <time>2026-03-12T11:56:55.845Z</time>
      </trkpt>
      <trkpt lat="46.86255" lon="-1.00782">
        <ele>119.2</ele>
        <time>2026-03-12T11:57:06.239Z</time>
      </trkpt>
      <trkpt lat="46.86256" lon="-1.00786">
        <ele>119.2</ele>
        <time>2026-03-12T11:57:06.746Z</time>
      </trkpt>
      <trkpt lat="46.86257" lon="-1.00807">
        <ele>119.3</ele>
        <time>2026-03-12T11:57:09.321Z</time>
      </trkpt>
      <trkpt lat="46.86256" lon="-1.00824">
        <ele>119.7</ele>
        <time>2026-03-12T11:57:12.144Z</time>
      </trkpt>
      <trkpt lat="46.86255" lon="-1.00835">
        <ele>120</ele>
        <time>2026-03-12T11:57:14.013Z</time>
      </trkpt>
      <trkpt lat="46.86252" lon="-1.0085">
        <ele>120</ele>
        <time>2026-03-12T11:57:15.862Z</time>
      </trkpt>
      <trkpt lat="46.86249" lon="-1.00861">
        <ele>119.9</ele>
        <time>2026-03-12T11:57:17.108Z</time>
      </trkpt>
      <trkpt lat="46.86249" lon="-1.00863">
        <ele>119.8</ele>
        <time>2026-03-12T11:57:17.241Z</time>
      </trkpt>
      <trkpt lat="46.86239" lon="-1.00889">
        <ele>118.6</ele>
        <time>2026-03-12T11:57:19.380Z</time>
      </trkpt>
      <trkpt lat="46.86217" lon="-1.00945">
        <ele>117.8</ele>
        <time>2026-03-12T11:57:25.678Z</time>
      </trkpt>
      <trkpt lat="46.86207" lon="-1.00973">
        <ele>117.5</ele>
        <time>2026-03-12T11:57:28.865Z</time>
      </trkpt>
      <trkpt lat="46.86195" lon="-1.01007">
        <ele>117</ele>
        <time>2026-03-12T11:57:32.528Z</time>
      </trkpt>
      <trkpt lat="46.86177" lon="-1.01057">
        <ele>116.4</ele>
        <time>2026-03-12T11:57:38.155Z</time>
      </trkpt>
      <trkpt lat="46.86161" lon="-1.01099">
        <ele>115.8</ele>
        <time>2026-03-12T11:57:42.876Z</time>
      </trkpt>
      <trkpt lat="46.86158" lon="-1.01107">
        <ele>115.7</ele>
        <time>2026-03-12T11:57:43.698Z</time>
      </trkpt>
      <trkpt lat="46.86156" lon="-1.01111">
        <ele>115.6</ele>
        <time>2026-03-12T11:57:44.238Z</time>
      </trkpt>
      <trkpt lat="46.8617" lon="-1.01122">
        <ele>116</ele>
        <time>2026-03-12T11:57:47.678Z</time>
      </trkpt>
      <trkpt lat="46.86176" lon="-1.01128">
        <ele>116</ele>
        <time>2026-03-12T11:57:48.900Z</time>
      </trkpt>
      <trkpt lat="46.8618" lon="-1.01132">
        <ele>116</ele>
        <time>2026-03-12T11:57:49.720Z</time>
      </trkpt>
      <trkpt lat="46.86185" lon="-1.01139">
        <ele>116</ele>
        <time>2026-03-12T11:57:50.942Z</time>
      </trkpt>
      <trkpt lat="46.86181" lon="-1.01148">
        <ele>115.7</ele>
        <time>2026-03-12T11:57:51.879Z</time>
      </trkpt>
      <trkpt lat="46.86175" lon="-1.01156">
        <ele>115.4</ele>
        <time>2026-03-12T11:57:52.880Z</time>
      </trkpt>
      <trkpt lat="46.86159" lon="-1.01177">
        <ele>115</ele>
        <time>2026-03-12T11:57:55.877Z</time>
      </trkpt>
      <trkpt lat="46.86137" lon="-1.01206">
        <ele>115</ele>
        <time>2026-03-12T11:58:00.935Z</time>
      </trkpt>
      <trkpt lat="46.86107" lon="-1.01243">
        <ele>115</ele>
        <time>2026-03-12T11:58:07.427Z</time>
      </trkpt>
      <trkpt lat="46.8608" lon="-1.01279">
        <ele>114.1</ele>
        <time>2026-03-12T11:58:12.414Z</time>
      </trkpt>
      <trkpt lat="46.86074" lon="-1.01286">
        <ele>114.2</ele>
        <time>2026-03-12T11:58:13.815Z</time>
      </trkpt>
      <trkpt lat="46.86071" lon="-1.0129">
        <ele>114.3</ele>
        <time>2026-03-12T11:58:14.773Z</time>
      </trkpt>
      <trkpt lat="46.86063" lon="-1.01299">
        <ele>114.2</ele>
        <time>2026-03-12T11:58:16.232Z</time>
      </trkpt>
      <trkpt lat="46.86059" lon="-1.01303">
        <ele>114.1</ele>
        <time>2026-03-12T11:58:16.881Z</time>
      </trkpt>
      <trkpt lat="46.86055" lon="-1.01308">
        <ele>114</ele>
        <time>2026-03-12T11:58:17.663Z</time>
      </trkpt>
      <trkpt lat="46.86052" lon="-1.0131">
        <ele>113.9</ele>
        <time>2026-03-12T11:58:18.037Z</time>
      </trkpt>
      <trkpt lat="46.86032" lon="-1.01326">
        <ele>113.1</ele>
        <time>2026-03-12T11:58:21.003Z</time>
      </trkpt>
      <trkpt lat="46.86028" lon="-1.01329">
        <ele>113</ele>
        <time>2026-03-12T11:58:21.597Z</time>
        <extensions>
          <visugpx:TrkExtension xmlns:visugpx="https://www.visugpx.com/editgpx/">
            <visugpx:node>1</visugpx:node>
            </visugpx:TrkExtension>
        </extensions>
      </trkpt>
      <trkpt lat="46.86024" lon="-1.01332">
        <ele>113</ele>
        <time>2026-03-12T11:58:22.215Z</time>
      </trkpt>
      <trkpt lat="46.86023" lon="-1.01332">
        <ele>113</ele>
        <time>2026-03-12T11:58:22.406Z</time>
      </trkpt>
      <trkpt lat="46.86018" lon="-1.01336">
        <ele>113</ele>
        <time>2026-03-12T11:58:23.355Z</time>
      </trkpt>
      <trkpt lat="46.85974" lon="-1.01372">
        <ele>112</ele>
        <time>2026-03-12T11:58:30.522Z</time>
      </trkpt>
      <trkpt lat="46.85963" lon="-1.01381">
        <ele>112</ele>
        <time>2026-03-12T11:58:32.549Z</time>
      </trkpt>
      <trkpt lat="46.85911" lon="-1.01423">
        <ele>111</ele>
        <time>2026-03-12T11:58:41.106Z</time>
      </trkpt>
      <trkpt lat="46.859" lon="-1.01432">
        <ele>111</ele>
        <time>2026-03-12T11:58:43.274Z</time>
      </trkpt>
      <trkpt lat="46.85887" lon="-1.01446">
        <ele>111</ele>
        <time>2026-03-12T11:58:46.028Z</time>
      </trkpt>
      <trkpt lat="46.85884" lon="-1.0145">
        <ele>111</ele>
        <time>2026-03-12T11:58:46.725Z</time>
      </trkpt>
      <trkpt lat="46.85879" lon="-1.01458">
        <ele>111</ele>
        <time>2026-03-12T11:58:47.911Z</time>
      </trkpt>
      <trkpt lat="46.85875" lon="-1.01466">
        <ele>111</ele>
        <time>2026-03-12T11:58:49.028Z</time>
      </trkpt>
      <trkpt lat="46.85875" lon="-1.0147">
        <ele>111</ele>
        <time>2026-03-12T11:58:49.581Z</time>
      </trkpt>
      <trkpt lat="46.85873" lon="-1.01475">
        <ele>110.9</ele>
        <time>2026-03-12T11:58:50.007Z</time>
      </trkpt>
      <trkpt lat="46.85871" lon="-1.01479">
        <ele>110.8</ele>
        <time>2026-03-12T11:58:50.429Z</time>
      </trkpt>
      <trkpt lat="46.85869" lon="-1.01482">
        <ele>110.7</ele>
        <time>2026-03-12T11:58:50.857Z</time>
      </trkpt>
      <trkpt lat="46.85867" lon="-1.01483">
        <ele>110.6</ele>
        <time>2026-03-12T11:58:51.123Z</time>
      </trkpt>
      <trkpt lat="46.85865" lon="-1.01484">
        <ele>110.6</ele>
        <time>2026-03-12T11:58:51.506Z</time>
      </trkpt>
      <trkpt lat="46.85862" lon="-1.01485">
        <ele>110.6</ele>
        <time>2026-03-12T11:58:51.893Z</time>
      </trkpt>
      <trkpt lat="46.8586" lon="-1.01484">
        <ele>110.5</ele>
        <time>2026-03-12T11:58:52.163Z</time>
      </trkpt>
      <trkpt lat="46.85854" lon="-1.0148">
        <ele>110.5</ele>
        <time>2026-03-12T11:58:53.384Z</time>
      </trkpt>
      <trkpt lat="46.85848" lon="-1.01481">
        <ele>110.4</ele>
        <time>2026-03-12T11:58:54.209Z</time>
      </trkpt>
      <trkpt lat="46.85839" lon="-1.01485">
        <ele>110.1</ele>
        <time>2026-03-12T11:58:55.343Z</time>
      </trkpt>
      <trkpt lat="46.85817" lon="-1.01502">
        <ele>110</ele>
        <time>2026-03-12T11:58:59.333Z</time>
      </trkpt>
      <trkpt lat="46.85786" lon="-1.01531">
        <ele>110</ele>
        <time>2026-03-12T11:59:05.567Z</time>
      </trkpt>
      <trkpt lat="46.85763" lon="-1.0155">
        <ele>109.5</ele>
        <time>2026-03-12T11:59:09.309Z</time>
      </trkpt>
      <trkpt lat="46.85762" lon="-1.01555">
        <ele>109.4</ele>
        <time>2026-03-12T11:59:09.732Z</time>
      </trkpt>
      <trkpt lat="46.85759" lon="-1.01558">
        <ele>109.3</ele>
        <time>2026-03-12T11:59:10.160Z</time>
      </trkpt>
      <trkpt lat="46.85756" lon="-1.01559">
        <ele>109.2</ele>
        <time>2026-03-12T11:59:10.569Z</time>
      </trkpt>
      <trkpt lat="46.85753" lon="-1.01559">
        <ele>109.1</ele>
        <time>2026-03-12T11:59:10.900Z</time>
      </trkpt>
      <trkpt lat="46.85748" lon="-1.01565">
        <ele>108.9</ele>
        <time>2026-03-12T11:59:11.730Z</time>
      </trkpt>
      <trkpt lat="46.85741" lon="-1.01575">
        <ele>108.7</ele>
        <time>2026-03-12T11:59:13.109Z</time>
      </trkpt>
      <trkpt lat="46.85726" lon="-1.01586">
        <ele>108.1</ele>
        <time>2026-03-12T11:59:15.245Z</time>
      </trkpt>
      <trkpt lat="46.85693" lon="-1.01609">
        <ele>107.1</ele>
        <time>2026-03-12T11:59:19.956Z</time>
      </trkpt>
      <trkpt lat="46.85685" lon="-1.01615">
        <ele>107</ele>
        <time>2026-03-12T11:59:21.416Z</time>
      </trkpt>
      <trkpt lat="46.85679" lon="-1.01619">
        <ele>106.8</ele>
        <time>2026-03-12T11:59:22.220Z</time>
      </trkpt>
      <trkpt lat="46.85669" lon="-1.01625">
        <ele>106.5</ele>
        <time>2026-03-12T11:59:23.724Z</time>
      </trkpt>
      <trkpt lat="46.85654" lon="-1.01633">
        <ele>106</ele>
        <time>2026-03-12T11:59:25.658Z</time>
      </trkpt>
      <trkpt lat="46.85616" lon="-1.01659">
        <ele>104.8</ele>
        <time>2026-03-12T11:59:31.240Z</time>
      </trkpt>
      <trkpt lat="46.85527" lon="-1.01717">
        <ele>101</ele>
        <time>2026-03-12T11:59:42.984Z</time>
      </trkpt>
      <trkpt lat="46.8552" lon="-1.01721">
        <ele>101</ele>
        <time>2026-03-12T11:59:44.248Z</time>
      </trkpt>
      <trkpt lat="46.85508" lon="-1.01728">
        <ele>100.9</ele>
        <time>2026-03-12T11:59:46.300Z</time>
      </trkpt>
      <trkpt lat="46.85489" lon="-1.01738">
        <ele>101</ele>
        <time>2026-03-12T11:59:49.768Z</time>
      </trkpt>
      <trkpt lat="46.85482" lon="-1.01741">
        <ele>101</ele>
        <time>2026-03-12T11:59:51.030Z</time>
        <extensions>
          <visugpx:TrkExtension xmlns:visugpx="https://www.visugpx.com/editgpx/">
            <visugpx:node>2</visugpx:node>
            </visugpx:TrkExtension>
        </extensions>
      </trkpt>
      <trkpt lat="46.85466" lon="-1.01748">
        <ele>101.2</ele>
        <time>2026-03-12T11:59:54.127Z</time>
      </trkpt>
      <trkpt lat="46.85446" lon="-1.01756">
        <ele>101.7</ele>
        <time>2026-03-12T11:59:58.588Z</time>
      </trkpt>
      <trkpt lat="46.85423" lon="-1.01763">
        <ele>102.3</ele>
        <time>2026-03-12T12:00:03.767Z</time>
      </trkpt>
      <trkpt lat="46.85387" lon="-1.0177">
        <ele>104.1</ele>
        <time>2026-03-12T12:00:14.341Z</time>
      </trkpt>
      <trkpt lat="46.85356" lon="-1.01773">
        <ele>105.2</ele>
        <time>2026-03-12T12:00:21.890Z</time>
      </trkpt>
      <trkpt lat="46.85331" lon="-1.01773">
        <ele>106.1</ele>
        <time>2026-03-12T12:00:28.002Z</time>
      </trkpt>
      <trkpt lat="46.85308" lon="-1.0177">
        <ele>107.9</ele>
        <time>2026-03-12T12:00:37.790Z</time>
      </trkpt>
      <trkpt lat="46.85282" lon="-1.01766">
        <ele>108.5</ele>
        <time>2026-03-12T12:00:43.323Z</time>
      </trkpt>
      <trkpt lat="46.85263" lon="-1.01761">
        <ele>109.3</ele>
        <time>2026-03-12T12:00:48.335Z</time>
      </trkpt>
      <trkpt lat="46.85223" lon="-1.01747">
        <ele>111.1</ele>
        <time>2026-03-12T12:00:59.534Z</time>
      </trkpt>
      <trkpt lat="46.85197" lon="-1.01735">
        <ele>112.4</ele>
        <time>2026-03-12T12:01:07.257Z</time>
      </trkpt>
      <trkpt lat="46.85172" lon="-1.01721">
        <ele>112.9</ele>
        <time>2026-03-12T12:01:12.695Z</time>
      </trkpt>
      <trkpt lat="46.85149" lon="-1.01706">
        <ele>113.7</ele>
        <time>2026-03-12T12:01:18.509Z</time>
      </trkpt>
      <trkpt lat="46.85098" lon="-1.01669">
        <ele>115</ele>
        <time>2026-03-12T12:01:30.666Z</time>
      </trkpt>
      <trkpt lat="46.85044" lon="-1.0163">
        <ele>115.6</ele>
        <time>2026-03-12T12:01:41.677Z</time>
      </trkpt>
      <trkpt lat="46.85023" lon="-1.01616">
        <ele>116</ele>
        <time>2026-03-12T12:01:46.272Z</time>
      </trkpt>
      <trkpt lat="46.84994" lon="-1.01604">
        <ele>116</ele>
        <time>2026-03-12T12:01:51.335Z</time>
      </trkpt>
      <trkpt lat="46.84976" lon="-1.01595">
        <ele>116</ele>
        <time>2026-03-12T12:01:54.564Z</time>
      </trkpt>
      <trkpt lat="46.84938" lon="-1.01583">
        <ele>114.8</ele>
        <time>2026-03-12T12:01:59.575Z</time>
      </trkpt>
      <trkpt lat="46.84899" lon="-1.01574">
        <ele>114.1</ele>
        <time>2026-03-12T12:02:05.215Z</time>
      </trkpt>
      <trkpt lat="46.84863" lon="-1.01569">
        <ele>113.5</ele>
        <time>2026-03-12T12:02:10.484Z</time>
      </trkpt>
      <trkpt lat="46.8476" lon="-1.01553">
        <ele>111</ele>
        <time>2026-03-12T12:02:24.496Z</time>
      </trkpt>
      <trkpt lat="46.84708" lon="-1.01547">
        <ele>109.5</ele>
        <time>2026-03-12T12:02:31.309Z</time>
      </trkpt>
      <trkpt lat="46.84658" lon="-1.01541">
        <ele>108.4</ele>
        <time>2026-03-12T12:02:38.303Z</time>
      </trkpt>
      <trkpt lat="46.84625" lon="-1.01533">
        <ele>108.7</ele>
        <time>2026-03-12T12:02:44.444Z</time>
      </trkpt>
      <trkpt lat="46.84589" lon="-1.01529">
        <ele>109</ele>
        <time>2026-03-12T12:02:50.937Z</time>
      </trkpt>
      <trkpt lat="46.84575" lon="-1.01536">
        <ele>109.2</ele>
        <time>2026-03-12T12:02:53.770Z</time>
      </trkpt>
      <trkpt lat="46.84571" lon="-1.01542">
        <ele>109.2</ele>
        <time>2026-03-12T12:02:54.680Z</time>
      </trkpt>
      <trkpt lat="46.84565" lon="-1.01546">
        <ele>109.2</ele>
        <time>2026-03-12T12:02:55.770Z</time>
      </trkpt>
      <trkpt lat="46.84559" lon="-1.01547">
        <ele>109.3</ele>
        <time>2026-03-12T12:02:57.032Z</time>
      </trkpt>
      <trkpt lat="46.84552" lon="-1.01545">
        <ele>109.6</ele>
        <time>2026-03-12T12:02:58.848Z</time>
      </trkpt>
      <trkpt lat="46.84548" lon="-1.01541">
        <ele>109.9</ele>
        <time>2026-03-12T12:03:00.529Z</time>
      </trkpt>
      <trkpt lat="46.84544" lon="-1.01536">
        <ele>110.1</ele>
        <time>2026-03-12T12:03:01.865Z</time>
      </trkpt>
      <trkpt lat="46.84541" lon="-1.01529">
        <ele>110</ele>
        <time>2026-03-12T12:03:02.608Z</time>
      </trkpt>
      <trkpt lat="46.84538" lon="-1.01523">
        <ele>109.9</ele>
        <time>2026-03-12T12:03:03.332Z</time>
        <extensions>
          <visugpx:TrkExtension xmlns:visugpx="https://www.visugpx.com/editgpx/">
            <visugpx:node>3</visugpx:node>
            </visugpx:TrkExtension>
        </extensions>
      </trkpt>
      <trkpt lat="46.84534" lon="-1.01516">
        <ele>109.7</ele>
        <time>2026-03-12T12:03:04.132Z</time>
      </trkpt>
      <trkpt lat="46.84525" lon="-1.01509">
        <ele>109.4</ele>
        <time>2026-03-12T12:03:05.499Z</time>
        <extensions>
          <visugpx:TrkExtension xmlns:visugpx="https://www.visugpx.com/editgpx/">
            <visugpx:node>4</visugpx:node>
            </visugpx:TrkExtension>
        </extensions>
      </trkpt>
      <trkpt lat="46.84525" lon="-1.01508">
        <ele>109.1</ele>
        <time>2026-03-12T12:03:05.574Z</time>
        <extensions>
          <visugpx:TrkExtension xmlns:visugpx="https://www.visugpx.com/editgpx/">
            <visugpx:node>5</visugpx:node>
            </visugpx:TrkExtension>
        </extensions>
      </trkpt>
      <trkpt lat="46.84508" lon="-1.01493">
        <ele>109</ele>
        <time>2026-03-12T12:03:08.750Z</time>
      </trkpt>
      <trkpt lat="46.84495" lon="-1.01528">
        <ele>109.5</ele>
        <time>2026-03-12T12:03:14.246Z</time>
      </trkpt>
      <trkpt lat="46.84494" lon="-1.01551">
        <ele>109.8</ele>
        <time>2026-03-12T12:03:17.449Z</time>
      </trkpt>
      <trkpt lat="46.84497" lon="-1.01577">
        <ele>110</ele>
        <time>2026-03-12T12:03:20.822Z</time>
      </trkpt>
      <trkpt lat="46.84507" lon="-1.01601">
        <ele>109.9</ele>
        <time>2026-03-12T12:03:23.891Z</time>
      </trkpt>
      <trkpt lat="46.84545" lon="-1.01672">
        <ele>108.8</ele>
        <time>2026-03-12T12:03:32.700Z</time>
      </trkpt>
      <trkpt lat="46.84555" lon="-1.017">
        <ele>107.7</ele>
        <time>2026-03-12T12:03:35.103Z</time>
      </trkpt>
      <trkpt lat="46.84567" lon="-1.01825">
        <ele>105.1</ele>
        <time>2026-03-12T12:03:46.267Z</time>
      </trkpt>
      <trkpt lat="46.84605" lon="-1.02283">
        <ele>112.3</ele>
        <time>2026-03-12T12:04:53.085Z</time>
      </trkpt>
      <trkpt lat="46.84607" lon="-1.0233">
        <ele>112.3</ele>
        <time>2026-03-12T12:04:58.484Z</time>
      </trkpt>
      <trkpt lat="46.84606" lon="-1.0235">
        <ele>112.5</ele>
        <time>2026-03-12T12:05:01.144Z</time>
      </trkpt>
      <trkpt lat="46.84601" lon="-1.02374">
        <ele>112.7</ele>
        <time>2026-03-12T12:05:04.371Z</time>
      </trkpt>
      <trkpt lat="46.8457" lon="-1.02486">
        <ele>112.8</ele>
        <time>2026-03-12T12:05:18.386Z</time>
      </trkpt>
      <trkpt lat="46.84481" lon="-1.02787">
        <ele>111.9</ele>
        <time>2026-03-12T12:05:54.597Z</time>
      </trkpt>
      <trkpt lat="46.84477" lon="-1.02811">
        <ele>111.9</ele>
        <time>2026-03-12T12:05:57.429Z</time>
        <extensions>
          <visugpx:TrkExtension xmlns:visugpx="https://www.visugpx.com/editgpx/">
            <visugpx:node>6</visugpx:node>
            </visugpx:TrkExtension>
        </extensions>
      </trkpt>
      <trkpt lat="46.8447" lon="-1.02858">
        <ele>111.9</ele>
        <time>2026-03-12T12:06:02.945Z</time>
      </trkpt>
      <trkpt lat="46.84474" lon="-1.02982">
        <ele>110.7</ele>
        <time>2026-03-12T12:06:15.464Z</time>
      </trkpt>
      <trkpt lat="46.84486" lon="-1.03134">
        <ele>110.8</ele>
        <time>2026-03-12T12:06:33.169Z</time>
      </trkpt>
      <trkpt lat="46.84487" lon="-1.03178">
        <ele>110.7</ele>
        <time>2026-03-12T12:06:38.062Z</time>
      </trkpt>
      <trkpt lat="46.84485" lon="-1.03198">
        <ele>110.5</ele>
        <time>2026-03-12T12:06:40.095Z</time>
      </trkpt>
      <trkpt lat="46.84442" lon="-1.03317">
        <ele>109.8</ele>
        <time>2026-03-12T12:06:54.476Z</time>
      </trkpt>
      <trkpt lat="46.84404" lon="-1.03431">
        <ele>108.7</ele>
        <time>2026-03-12T12:07:07.429Z</time>
      </trkpt>
      <trkpt lat="46.84374" lon="-1.03552">
        <ele>107.2</ele>
        <time>2026-03-12T12:07:20.090Z</time>
      </trkpt>
      <trkpt lat="46.8434" lon="-1.03738">
        <ele>108.1</ele>
        <time>2026-03-12T12:07:43.683Z</time>
      </trkpt>
      <trkpt lat="46.84296" lon="-1.04053">
        <ele>108.4</ele>
        <time>2026-03-12T12:08:21.032Z</time>
      </trkpt>
      <trkpt lat="46.84282" lon="-1.04218">
        <ele>107</ele>
        <time>2026-03-12T12:08:38.069Z</time>
      </trkpt>
      <trkpt lat="46.84306" lon="-1.04442">
        <ele>106.5</ele>
        <time>2026-03-12T12:09:03.291Z</time>
      </trkpt>
      <trkpt lat="46.84317" lon="-1.04477">
        <ele>106.2</ele>
        <time>2026-03-12T12:09:07.270Z</time>
        <extensions>
          <visugpx:TrkExtension xmlns:visugpx="https://www.visugpx.com/editgpx/">
            <visugpx:node>7</visugpx:node>
            </visugpx:TrkExtension>
        </extensions>
      </trkpt>
      <trkpt lat="46.84349" lon="-1.0458">
        <ele>106.2</ele>
        <time>2026-03-12T12:09:20.242Z</time>
      </trkpt>
      <trkpt lat="46.8436" lon="-1.04627">
        <ele>106.5</ele>
        <time>2026-03-12T12:09:26.452Z</time>
      </trkpt>
      <trkpt lat="46.84367" lon="-1.04671">
        <ele>106.8</ele>
        <time>2026-03-12T12:09:32.150Z</time>
      </trkpt>
      <trkpt lat="46.8437" lon="-1.0471">
        <ele>106.9</ele>
        <time>2026-03-12T12:09:36.814Z</time>
      </trkpt>
      <trkpt lat="46.84353" lon="-1.04753">
        <ele>106.4</ele>
        <time>2026-03-12T12:09:41.798Z</time>
      </trkpt>
      <trkpt lat="46.84345" lon="-1.04767">
        <ele>105.9</ele>
        <time>2026-03-12T12:09:43.295Z</time>
      </trkpt>
      <trkpt lat="46.8429" lon="-1.04837">
        <ele>103.4</ele>
        <time>2026-03-12T12:09:52.429Z</time>
      </trkpt>
      <trkpt lat="46.84271" lon="-1.04868">
        <ele>102.5</ele>
        <time>2026-03-12T12:09:56.068Z</time>
      </trkpt>
      <trkpt lat="46.84259" lon="-1.04857">
        <ele>102.6</ele>
        <time>2026-03-12T12:09:58.611Z</time>
      </trkpt>
      <trkpt lat="46.84098" lon="-1.04965">
        <ele>99.2</ele>
        <time>2026-03-12T12:10:23.629Z</time>
      </trkpt>
      <trkpt lat="46.8397" lon="-1.05034">
        <ele>93.3</ele>
        <time>2026-03-12T12:10:39.629Z</time>
      </trkpt>
      <trkpt lat="46.83961" lon="-1.05037">
        <ele>92.9</ele>
        <time>2026-03-12T12:10:40.711Z</time>
        <extensions>
          <visugpx:TrkExtension xmlns:visugpx="https://www.visugpx.com/editgpx/">
            <visugpx:node>8</visugpx:node>
            </visugpx:TrkExtension>
        </extensions>
      </trkpt>
      <trkpt lat="46.83902" lon="-1.05059">
        <ele>91.6</ele>
        <time>2026-03-12T12:10:49.158Z</time>
      </trkpt>
      <trkpt lat="46.83782" lon="-1.05098">
        <ele>95.4</ele>
        <time>2026-03-12T12:11:17.671Z</time>
      </trkpt>
      <trkpt lat="46.83734" lon="-1.0513">
        <ele>97.1</ele>
        <time>2026-03-12T12:11:30.094Z</time>
      </trkpt>
      <trkpt lat="46.83684" lon="-1.05142">
        <ele>98.8</ele>
        <time>2026-03-12T12:11:42.212Z</time>
      </trkpt>
      <trkpt lat="46.83661" lon="-1.05138">
        <ele>99.5</ele>
        <time>2026-03-12T12:11:47.542Z</time>
      </trkpt>
      <trkpt lat="46.83637" lon="-1.05151">
        <ele>100.3</ele>
        <time>2026-03-12T12:11:53.503Z</time>
      </trkpt>
      <trkpt lat="46.83617" lon="-1.05157">
        <ele>100.7</ele>
        <time>2026-03-12T12:11:57.677Z</time>
      </trkpt>
      <trkpt lat="46.83477" lon="-1.05186">
        <ele>106.6</ele>
        <time>2026-03-12T12:12:34.969Z</time>
      </trkpt>
      <trkpt lat="46.8345" lon="-1.05194">
        <ele>106.5</ele>
        <time>2026-03-12T12:12:39.433Z</time>
      </trkpt>
      <trkpt lat="46.83344" lon="-1.05235">
        <ele>105.2</ele>
        <time>2026-03-12T12:12:55.925Z</time>
      </trkpt>
      <trkpt lat="46.83315" lon="-1.05248">
        <ele>105</ele>
        <time>2026-03-12T12:13:00.708Z</time>
      </trkpt>
      <trkpt lat="46.83289" lon="-1.05119">
        <ele>104.5</ele>
        <time>2026-03-12T12:13:15.368Z</time>
      </trkpt>
      <trkpt lat="46.83278" lon="-1.05121">
        <ele>104.3</ele>
        <time>2026-03-12T12:13:16.948Z</time>
      </trkpt>
      <trkpt lat="46.83177" lon="-1.05157">
        <ele>102.3</ele>
        <time>2026-03-12T12:13:31.625Z</time>
      </trkpt>
      <trkpt lat="46.83131" lon="-1.05171">
        <ele>101.5</ele>
        <time>2026-03-12T12:13:38.384Z</time>
      </trkpt>
      <trkpt lat="46.83049" lon="-1.05192">
        <ele>100.1</ele>
        <time>2026-03-12T12:13:50.379Z</time>
      </trkpt>
      <trkpt lat="46.83004" lon="-1.05203">
        <ele>99.6</ele>
        <time>2026-03-12T12:13:57.296Z</time>
      </trkpt>
      <trkpt lat="46.82951" lon="-1.05211">
        <ele>100.1</ele>
        <time>2026-03-12T12:14:07.089Z</time>
      </trkpt>
      <trkpt lat="46.82921" lon="-1.05215">
        <ele>100.5</ele>
        <time>2026-03-12T12:14:12.851Z</time>
      </trkpt>
      <trkpt lat="46.829" lon="-1.0522">
        <ele>101.8</ele>
        <time>2026-03-12T12:14:20.042Z</time>
      </trkpt>
      <trkpt lat="46.82875" lon="-1.0523">
        <ele>103.6</ele>
        <time>2026-03-12T12:14:29.842Z</time>
      </trkpt>
      <trkpt lat="46.82589" lon="-1.05363">
        <ele>108.4</ele>
        <time>2026-03-12T12:15:28.896Z</time>
        <extensions>
          <visugpx:TrkExtension xmlns:visugpx="https://www.visugpx.com/editgpx/">
            <visugpx:node>9</visugpx:node>
            </visugpx:TrkExtension>
        </extensions>
      </trkpt>
      <trkpt lat="46.82145" lon="-1.05571">
        <ele>112.7</ele>
        <time>2026-03-12T12:16:54.452Z</time>
      </trkpt>
      <trkpt lat="46.82078" lon="-1.05604">
        <ele>113.2</ele>
        <time>2026-03-12T12:17:07.149Z</time>
      </trkpt>
      <trkpt lat="46.82038" lon="-1.05627">
        <ele>112.7</ele>
        <time>2026-03-12T12:17:13.627Z</time>
      </trkpt>
      <trkpt lat="46.81979" lon="-1.05653">
        <ele>110</ele>
        <time>2026-03-12T12:17:20.826Z</time>
      </trkpt>
      <trkpt lat="46.8194" lon="-1.05668">
        <ele>107.3</ele>
        <time>2026-03-12T12:17:24.882Z</time>
      </trkpt>
      <trkpt lat="46.81897" lon="-1.05678">
        <ele>105.1</ele>
        <time>2026-03-12T12:17:29.738Z</time>
      </trkpt>
      <trkpt lat="46.81876" lon="-1.05678">
        <ele>104.7</ele>
        <time>2026-03-12T12:17:32.707Z</time>
      </trkpt>
      <trkpt lat="46.81802" lon="-1.05672">
        <ele>104.2</ele>
        <time>2026-03-12T12:17:44.376Z</time>
      </trkpt>
      <trkpt lat="46.81679" lon="-1.05657">
        <ele>104.1</ele>
        <time>2026-03-12T12:18:04.909Z</time>
      </trkpt>
      <trkpt lat="46.81613" lon="-1.05647">
        <ele>104.2</ele>
        <time>2026-03-12T12:18:16.194Z</time>
      </trkpt>
      <trkpt lat="46.8156" lon="-1.05635">
        <ele>104.6</ele>
        <time>2026-03-12T12:18:25.863Z</time>
      </trkpt>
      <trkpt lat="46.81535" lon="-1.05627">
        <ele>104.8</ele>
        <time>2026-03-12T12:18:30.493Z</time>
      </trkpt>
      <trkpt lat="46.81423" lon="-1.05578">
        <ele>104.9</ele>
        <time>2026-03-12T12:18:50.253Z</time>
      </trkpt>
      <trkpt lat="46.81261" lon="-1.05514">
        <ele>104.3</ele>
        <time>2026-03-12T12:19:17.457Z</time>
      </trkpt>
      <trkpt lat="46.81223" lon="-1.05501">
        <ele>104.3</ele>
        <time>2026-03-12T12:19:23.999Z</time>
        <extensions>
          <visugpx:TrkExtension xmlns:visugpx="https://www.visugpx.com/editgpx/">
            <visugpx:node>10</visugpx:node>
            </visugpx:TrkExtension>
        </extensions>
      </trkpt>
      <trkpt lat="46.81066" lon="-1.05462">
        <ele>103.1</ele>
        <time>2026-03-12T12:19:48.894Z</time>
      </trkpt>
      <trkpt lat="46.81011" lon="-1.05457">
        <ele>101.3</ele>
        <time>2026-03-12T12:19:55.882Z</time>
      </trkpt>
      <trkpt lat="46.80983" lon="-1.05448">
        <ele>100.1</ele>
        <time>2026-03-12T12:19:59.278Z</time>
      </trkpt>
      <trkpt lat="46.80954" lon="-1.05436">
        <ele>98.8</ele>
        <time>2026-03-12T12:20:02.816Z</time>
      </trkpt>
      <trkpt lat="46.80938" lon="-1.05431">
        <ele>98.1</ele>
        <time>2026-03-12T12:20:04.741Z</time>
      </trkpt>
      <trkpt lat="46.80923" lon="-1.05429">
        <ele>97.5</ele>
        <time>2026-03-12T12:20:06.551Z</time>
      </trkpt>
      <trkpt lat="46.80898" lon="-1.0543">
        <ele>96.6</ele>
        <time>2026-03-12T12:20:09.644Z</time>
      </trkpt>
      <trkpt lat="46.80872" lon="-1.0544">
        <ele>96</ele>
        <time>2026-03-12T12:20:13.344Z</time>
      </trkpt>
      <trkpt lat="46.80856" lon="-1.05451">
        <ele>95.6</ele>
        <time>2026-03-12T12:20:15.771Z</time>
      </trkpt>
      <trkpt lat="46.80834" lon="-1.05472">
        <ele>95.3</ele>
        <time>2026-03-12T12:20:19.739Z</time>
      </trkpt>
      <trkpt lat="46.80714" lon="-1.0561">
        <ele>92.1</ele>
        <time>2026-03-12T12:20:40.994Z</time>
      </trkpt>
      <trkpt lat="46.80679" lon="-1.05645">
        <ele>91.3</ele>
        <time>2026-03-12T12:20:47.000Z</time>
      </trkpt>
      <trkpt lat="46.80617" lon="-1.05701">
        <ele>92.6</ele>
        <time>2026-03-12T12:21:01.625Z</time>
      </trkpt>
      <trkpt lat="46.80588" lon="-1.0573">
        <ele>93.5</ele>
        <time>2026-03-12T12:21:09.301Z</time>
      </trkpt>
      <trkpt lat="46.80574" lon="-1.05747">
        <ele>93.9</ele>
        <time>2026-03-12T12:21:13.120Z</time>
      </trkpt>
      <trkpt lat="46.80538" lon="-1.05805">
        <ele>93.9</ele>
        <time>2026-03-12T12:21:22.104Z</time>
      </trkpt>
      <trkpt lat="46.80529" lon="-1.05816">
        <ele>93.8</ele>
        <time>2026-03-12T12:21:23.922Z</time>
      </trkpt>
      <trkpt lat="46.80505" lon="-1.05838">
        <ele>93.2</ele>
        <time>2026-03-12T12:21:27.858Z</time>
      </trkpt>
      <trkpt lat="46.80475" lon="-1.0586">
        <ele>92.8</ele>
        <time>2026-03-12T12:21:32.904Z</time>
      </trkpt>
      <trkpt lat="46.80448" lon="-1.05874">
        <ele>92.3</ele>
        <time>2026-03-12T12:21:37.011Z</time>
      </trkpt>
      <trkpt lat="46.80432" lon="-1.0588">
        <ele>91.8</ele>
        <time>2026-03-12T12:21:39.144Z</time>
      </trkpt>
      <trkpt lat="46.80385" lon="-1.05892">
        <ele>91.2</ele>
        <time>2026-03-12T12:21:46.275Z</time>
      </trkpt>
      <trkpt lat="46.80375" lon="-1.05893">
        <ele>91.1</ele>
        <time>2026-03-12T12:21:47.808Z</time>
      </trkpt>
      <trkpt lat="46.80365" lon="-1.05897">
        <ele>91.1</ele>
        <time>2026-03-12T12:21:49.546Z</time>
      </trkpt>
      <trkpt lat="46.80335" lon="-1.05916">
        <ele>91</ele>
        <time>2026-03-12T12:21:54.872Z</time>
      </trkpt>
      <trkpt lat="46.80309" lon="-1.05937">
        <ele>91.1</ele>
        <time>2026-03-12T12:22:00.017Z</time>
      </trkpt>
      <trkpt lat="46.8029" lon="-1.05947">
        <ele>91</ele>
        <time>2026-03-12T12:22:03.249Z</time>
      </trkpt>
      <trkpt lat="46.80276" lon="-1.05951">
        <ele>90.8</ele>
        <time>2026-03-12T12:22:05.355Z</time>
      </trkpt>
      <trkpt lat="46.80257" lon="-1.05947">
        <ele>90.7</ele>
        <time>2026-03-12T12:22:08.420Z</time>
      </trkpt>
      <trkpt lat="46.80154" lon="-1.05916">
        <ele>92.2</ele>
        <time>2026-03-12T12:22:28.740Z</time>
      </trkpt>
      <trkpt lat="46.80126" lon="-1.0591">
        <ele>92.6</ele>
        <time>2026-03-12T12:22:34.201Z</time>
      </trkpt>
      <trkpt lat="46.80113" lon="-1.05909">
        <ele>92.8</ele>
        <time>2026-03-12T12:22:36.746Z</time>
      </trkpt>
      <trkpt lat="46.80091" lon="-1.0591">
        <ele>93.1</ele>
        <time>2026-03-12T12:22:40.971Z</time>
      </trkpt>
      <trkpt lat="46.80071" lon="-1.05917">
        <ele>93.1</ele>
        <time>2026-03-12T12:22:44.419Z</time>
      </trkpt>
      <trkpt lat="46.80063" lon="-1.05922">
        <ele>93.2</ele>
        <time>2026-03-12T12:22:46.053Z</time>
      </trkpt>
      <trkpt lat="46.80045" lon="-1.05938">
        <ele>93.1</ele>
        <time>2026-03-12T12:22:49.432Z</time>
      </trkpt>
      <trkpt lat="46.80034" lon="-1.05951">
        <ele>92.9</ele>
        <time>2026-03-12T12:22:51.518Z</time>
      </trkpt>
      <trkpt lat="46.79914" lon="-1.06122">
        <ele>90.1</ele>
        <time>2026-03-12T12:23:15.697Z</time>
      </trkpt>
      <trkpt lat="46.79903" lon="-1.06136">
        <ele>90.3</ele>
        <time>2026-03-12T12:23:18.500Z</time>
      </trkpt>
      <trkpt lat="46.79883" lon="-1.06157">
        <ele>90.8</ele>
        <time>2026-03-12T12:23:23.574Z</time>
      </trkpt>
      <trkpt lat="46.79867" lon="-1.06169">
        <ele>91.1</ele>
        <time>2026-03-12T12:23:27.139Z</time>
      </trkpt>
      <trkpt lat="46.79848" lon="-1.06178">
        <ele>91.5</ele>
        <time>2026-03-12T12:23:31.242Z</time>
      </trkpt>
      <trkpt lat="46.79835" lon="-1.06181">
        <ele>91.8</ele>
        <time>2026-03-12T12:23:34.028Z</time>
      </trkpt>
      <trkpt lat="46.79821" lon="-1.06184">
        <ele>92</ele>
        <time>2026-03-12T12:23:36.758Z</time>
      </trkpt>
      <trkpt lat="46.79766" lon="-1.06192">
        <ele>92.8</ele>
        <time>2026-03-12T12:23:47.462Z</time>
      </trkpt>
      <trkpt lat="46.79716" lon="-1.06207">
        <ele>92.3</ele>
        <time>2026-03-12T12:23:55.281Z</time>
      </trkpt>
      <trkpt lat="46.79598" lon="-1.06263">
        <ele>89</ele>
        <time>2026-03-12T12:24:11.776Z</time>
      </trkpt>
      <trkpt lat="46.79524" lon="-1.06301">
        <ele>87.7</ele>
        <time>2026-03-12T12:24:23.102Z</time>
      </trkpt>
      <trkpt lat="46.79498" lon="-1.06312">
        <ele>87.8</ele>
        <time>2026-03-12T12:24:27.804Z</time>
      </trkpt>
      <trkpt lat="46.79487" lon="-1.06315">
        <ele>88.3</ele>
        <time>2026-03-12T12:24:30.865Z</time>
      </trkpt>
      <trkpt lat="46.79476" lon="-1.06316">
        <ele>88.6</ele>
        <time>2026-03-12T12:24:33.316Z</time>
      </trkpt>
      <trkpt lat="46.79465" lon="-1.06315">
        <ele>89.1</ele>
        <time>2026-03-12T12:24:36.356Z</time>
      </trkpt>
      <trkpt lat="46.79407" lon="-1.06305">
        <ele>90.8</ele>
        <time>2026-03-12T12:24:49.625Z</time>
      </trkpt>
      <trkpt lat="46.79352" lon="-1.06292">
        <ele>91.3</ele>
        <time>2026-03-12T12:24:59.823Z</time>
      </trkpt>
      <trkpt lat="46.7926" lon="-1.06277">
        <ele>91.9</ele>
        <time>2026-03-12T12:25:16.350Z</time>
      </trkpt>
      <trkpt lat="46.79228" lon="-1.06275">
        <ele>91.7</ele>
        <time>2026-03-12T12:25:21.416Z</time>
      </trkpt>
      <trkpt lat="46.79202" lon="-1.06269">
        <ele>91.4</ele>
        <time>2026-03-12T12:25:25.391Z</time>
      </trkpt>
      <trkpt lat="46.7918" lon="-1.06262">
        <ele>91.2</ele>
        <time>2026-03-12T12:25:28.869Z</time>
      </trkpt>
      <trkpt lat="46.79142" lon="-1.06244">
        <ele>91.3</ele>
        <time>2026-03-12T12:25:35.728Z</time>
      </trkpt>
      <trkpt lat="46.79022" lon="-1.06181">
        <ele>94.4</ele>
        <time>2026-03-12T12:26:03.179Z</time>
        <extensions>
          <visugpx:TrkExtension xmlns:visugpx="https://www.visugpx.com/editgpx/">
            <visugpx:node>11</visugpx:node>
            </visugpx:TrkExtension>
        </extensions>
      </trkpt>
      <trkpt lat="46.78902" lon="-1.0612">
        <ele>101.6</ele>
        <time>2026-03-12T12:26:43.679Z</time>
      </trkpt>
      <trkpt lat="46.78876" lon="-1.06108">
        <ele>103.5</ele>
        <time>2026-03-12T12:26:54.021Z</time>
      </trkpt>
      <trkpt lat="46.78857" lon="-1.06103">
        <ele>104.7</ele>
        <time>2026-03-12T12:27:00.638Z</time>
      </trkpt>
      <trkpt lat="46.78834" lon="-1.061">
        <ele>106.2</ele>
        <time>2026-03-12T12:27:08.856Z</time>
      </trkpt>
      <trkpt lat="46.78818" lon="-1.06101">
        <ele>106.8</ele>
        <time>2026-03-12T12:27:12.867Z</time>
      </trkpt>
      <trkpt lat="46.78794" lon="-1.0611">
        <ele>107.7</ele>
        <time>2026-03-12T12:27:18.990Z</time>
      </trkpt>
      <trkpt lat="46.7876" lon="-1.06131">
        <ele>109.2</ele>
        <time>2026-03-12T12:27:28.597Z</time>
      </trkpt>
      <trkpt lat="46.7872" lon="-1.06158">
        <ele>109.6</ele>
        <time>2026-03-12T12:27:36.671Z</time>
      </trkpt>
      <trkpt lat="46.78703" lon="-1.06161">
        <ele>109.4</ele>
        <time>2026-03-12T12:27:39.251Z</time>
      </trkpt>
      <trkpt lat="46.78682" lon="-1.06158">
        <ele>109.2</ele>
        <time>2026-03-12T12:27:42.492Z</time>
        <extensions>
          <visugpx:TrkExtension xmlns:visugpx="https://www.visugpx.com/editgpx/">
            <visugpx:node>12</visugpx:node>
            </visugpx:TrkExtension>
        </extensions>
      </trkpt>
      <trkpt lat="46.78697" lon="-1.06161">
        <ele>109.3</ele>
        <time>2026-03-12T12:27:45.199Z</time>
      </trkpt>
      <trkpt lat="46.7869" lon="-1.06239">
        <ele>108.4</ele>
        <time>2026-03-12T12:27:52.967Z</time>
      </trkpt>
      <trkpt lat="46.78678" lon="-1.06335">
        <ele>108</ele>
        <time>2026-03-12T12:28:03.561Z</time>
      </trkpt>
      <trkpt lat="46.78668" lon="-1.06399">
        <ele>108.8</ele>
        <time>2026-03-12T12:28:12.576Z</time>
      </trkpt>
      <trkpt lat="46.78641" lon="-1.06542">
        <ele>106.5</ele>
        <time>2026-03-12T12:28:26.516Z</time>
      </trkpt>
      <trkpt lat="46.78565" lon="-1.06771">
        <ele>97.6</ele>
        <time>2026-03-12T12:28:45.877Z</time>
      </trkpt>
      <trkpt lat="46.78554" lon="-1.06801">
        <ele>96.9</ele>
        <time>2026-03-12T12:28:48.892Z</time>
      </trkpt>
      <trkpt lat="46.78529" lon="-1.06855">
        <ele>95.2</ele>
        <time>2026-03-12T12:28:54.325Z</time>
      </trkpt>
      <trkpt lat="46.78494" lon="-1.06908">
        <ele>93.5</ele>
        <time>2026-03-12T12:29:00.667Z</time>
      </trkpt>
      <trkpt lat="46.7847" lon="-1.06938">
        <ele>93.4</ele>
        <time>2026-03-12T12:29:05.808Z</time>
      </trkpt>
      <trkpt lat="46.78448" lon="-1.06959">
        <ele>93.4</ele>
        <time>2026-03-12T12:29:10.214Z</time>
      </trkpt>
      <trkpt lat="46.78427" lon="-1.06977">
        <ele>93.6</ele>
        <time>2026-03-12T12:29:14.637Z</time>
      </trkpt>
      <trkpt lat="46.78402" lon="-1.06997">
        <ele>94.2</ele>
        <time>2026-03-12T12:29:20.557Z</time>
      </trkpt>
      <trkpt lat="46.78374" lon="-1.07014">
        <ele>96.2</ele>
        <time>2026-03-12T12:29:31.494Z</time>
      </trkpt>
      <trkpt lat="46.78285" lon="-1.07055">
        <ele>100.2</ele>
        <time>2026-03-12T12:29:56.452Z</time>
      </trkpt>
      <trkpt lat="46.78241" lon="-1.07072">
        <ele>101.1</ele>
        <time>2026-03-12T12:30:05.776Z</time>
      </trkpt>
      <trkpt lat="46.78241" lon="-1.07081">
        <ele>101.1</ele>
        <time>2026-03-12T12:30:06.809Z</time>
      </trkpt>
      <trkpt lat="46.78238" lon="-1.07095">
        <ele>101</ele>
        <time>2026-03-12T12:30:08.346Z</time>
      </trkpt>
      <trkpt lat="46.7823" lon="-1.07103">
        <ele>101</ele>
        <time>2026-03-12T12:30:09.971Z</time>
      </trkpt>
      <trkpt lat="46.78222" lon="-1.07106">
        <ele>101.1</ele>
        <time>2026-03-12T12:30:11.532Z</time>
      </trkpt>
      <trkpt lat="46.78222" lon="-1.07125">
        <ele>100.8</ele>
        <time>2026-03-12T12:30:13.312Z</time>
      </trkpt>
      <trkpt lat="46.78236" lon="-1.07188">
        <ele>100</ele>
        <time>2026-03-12T12:30:19.802Z</time>
      </trkpt>
      <trkpt lat="46.78215" lon="-1.07225">
        <ele>100.3</ele>
        <time>2026-03-12T12:30:25.834Z</time>
      </trkpt>
      <trkpt lat="46.78208" lon="-1.07253">
        <ele>100.5</ele>
        <time>2026-03-12T12:30:29.601Z</time>
      </trkpt>
      <trkpt lat="46.78207" lon="-1.07291">
        <ele>100.1</ele>
        <time>2026-03-12T12:30:33.400Z</time>
      </trkpt>
      <trkpt lat="46.78209" lon="-1.07374">
        <ele>99.2</ele>
        <time>2026-03-12T12:30:41.665Z</time>
      </trkpt>
      <trkpt lat="46.78204" lon="-1.07454">
        <ele>98.6</ele>
        <time>2026-03-12T12:30:50.009Z</time>
        <extensions>
          <visugpx:TrkExtension xmlns:visugpx="https://www.visugpx.com/editgpx/">
            <visugpx:node>13</visugpx:node>
            </visugpx:TrkExtension>
        </extensions>
      </trkpt>
      <trkpt lat="46.78203" lon="-1.07494">
        <ele>97.9</ele>
        <time>2026-03-12T12:30:53.683Z</time>
      </trkpt>
      <trkpt lat="46.78244" lon="-1.07703">
        <ele>94.3</ele>
        <time>2026-03-12T12:31:13.863Z</time>
      </trkpt>
      <trkpt lat="46.78252" lon="-1.07764">
        <ele>92.4</ele>
        <time>2026-03-12T12:31:18.801Z</time>
      </trkpt>
      <trkpt lat="46.78258" lon="-1.07822">
        <ele>90</ele>
        <time>2026-03-12T12:31:23.019Z</time>
      </trkpt>
      <trkpt lat="46.78259" lon="-1.07867">
        <ele>89.2</ele>
        <time>2026-03-12T12:31:27.139Z</time>
      </trkpt>
      <trkpt lat="46.7825" lon="-1.07953">
        <ele>86.9</ele>
        <time>2026-03-12T12:31:34.364Z</time>
      </trkpt>
      <trkpt lat="46.7824" lon="-1.08015">
        <ele>83.6</ele>
        <time>2026-03-12T12:31:38.751Z</time>
      </trkpt>
      <trkpt lat="46.78227" lon="-1.08064">
        <ele>82.6</ele>
        <time>2026-03-12T12:31:43.490Z</time>
      </trkpt>
      <trkpt lat="46.78222" lon="-1.08092">
        <ele>82.4</ele>
        <time>2026-03-12T12:31:46.517Z</time>
      </trkpt>
      <trkpt lat="46.78221" lon="-1.0812">
        <ele>82.8</ele>
        <time>2026-03-12T12:31:50.495Z</time>
      </trkpt>
      <trkpt lat="46.78224" lon="-1.08207">
        <ele>82.8</ele>
        <time>2026-03-12T12:32:00.495Z</time>
      </trkpt>
      <trkpt lat="46.78221" lon="-1.08241">
        <ele>82.5</ele>
        <time>2026-03-12T12:32:03.998Z</time>
      </trkpt>
      <trkpt lat="46.78217" lon="-1.08263">
        <ele>82.3</ele>
        <time>2026-03-12T12:32:06.322Z</time>
      </trkpt>
      <trkpt lat="46.78207" lon="-1.08295">
        <ele>82</ele>
        <time>2026-03-12T12:32:09.926Z</time>
      </trkpt>
      <trkpt lat="46.78191" lon="-1.08341">
        <ele>81.8</ele>
        <time>2026-03-12T12:32:15.544Z</time>
      </trkpt>
      <trkpt lat="46.78185" lon="-1.08384">
        <ele>82.1</ele>
        <time>2026-03-12T12:32:21.101Z</time>
      </trkpt>
      <trkpt lat="46.78174" lon="-1.08483">
        <ele>83.4</ele>
        <time>2026-03-12T12:32:35.043Z</time>
      </trkpt>
      <trkpt lat="46.78173" lon="-1.08513">
        <ele>83.9</ele>
        <time>2026-03-12T12:32:39.470Z</time>
      </trkpt>
      <trkpt lat="46.78175" lon="-1.08542">
        <ele>84.5</ele>
        <time>2026-03-12T12:32:44.055Z</time>
      </trkpt>
      <trkpt lat="46.78185" lon="-1.08588">
        <ele>84.8</ele>
        <time>2026-03-12T12:32:50.110Z</time>
      </trkpt>
      <trkpt lat="46.78192" lon="-1.08612">
        <ele>84.2</ele>
        <time>2026-03-12T12:32:52.359Z</time>
      </trkpt>
      <trkpt lat="46.78214" lon="-1.08699">
        <ele>81.1</ele>
        <time>2026-03-12T12:32:59.525Z</time>
      </trkpt>
      <trkpt lat="46.78219" lon="-1.08729">
        <ele>80.2</ele>
        <time>2026-03-12T12:33:02.016Z</time>
      </trkpt>
      <trkpt lat="46.78221" lon="-1.08759">
        <ele>79.9</ele>
        <time>2026-03-12T12:33:05.049Z</time>
      </trkpt>
      <trkpt lat="46.78215" lon="-1.08858">
        <ele>80</ele>
        <time>2026-03-12T12:33:16.620Z</time>
      </trkpt>
      <trkpt lat="46.7821" lon="-1.08897">
        <ele>79.3</ele>
        <time>2026-03-12T12:33:20.256Z</time>
      </trkpt>
      <trkpt lat="46.78206" lon="-1.08915">
        <ele>79.2</ele>
        <time>2026-03-12T12:33:22.279Z</time>
      </trkpt>
      <trkpt lat="46.78199" lon="-1.08932">
        <ele>78.7</ele>
        <time>2026-03-12T12:33:23.948Z</time>
      </trkpt>
      <trkpt lat="46.7817" lon="-1.08969">
        <ele>77</ele>
        <time>2026-03-12T12:33:28.436Z</time>
      </trkpt>
      <trkpt lat="46.78163" lon="-1.08985">
        <ele>75.9</ele>
        <time>2026-03-12T12:33:29.744Z</time>
      </trkpt>
      <trkpt lat="46.78162" lon="-1.09007">
        <ele>74.4</ele>
        <time>2026-03-12T12:33:31.262Z</time>
      </trkpt>
      <trkpt lat="46.78164" lon="-1.09026">
        <ele>73.6</ele>
        <time>2026-03-12T12:33:32.636Z</time>
      </trkpt>
      <trkpt lat="46.78172" lon="-1.09062">
        <ele>72.7</ele>
        <time>2026-03-12T12:33:35.871Z</time>
        <extensions>
          <visugpx:TrkExtension xmlns:visugpx="https://www.visugpx.com/editgpx/">
            <visugpx:node>14</visugpx:node>
            </visugpx:TrkExtension>
        </extensions>
      </trkpt>
      <trkpt lat="46.78176" lon="-1.09078">
        <ele>72.6</ele>
        <time>2026-03-12T12:33:37.677Z</time>
      </trkpt>
      <trkpt lat="46.78167" lon="-1.09184">
        <ele>73.5</ele>
        <time>2026-03-12T12:33:51.527Z</time>
      </trkpt>
      <trkpt lat="46.78162" lon="-1.0921">
        <ele>73.9</ele>
        <time>2026-03-12T12:33:55.392Z</time>
      </trkpt>
      <trkpt lat="46.78156" lon="-1.09228">
        <ele>73.9</ele>
        <time>2026-03-12T12:33:57.690Z</time>
      </trkpt>
      <trkpt lat="46.78121" lon="-1.09296">
        <ele>74.5</ele>
        <time>2026-03-12T12:34:08.497Z</time>
      </trkpt>
      <trkpt lat="46.78118" lon="-1.0931">
        <ele>74.9</ele>
        <time>2026-03-12T12:34:11.085Z</time>
      </trkpt>
      <trkpt lat="46.78117" lon="-1.09328">
        <ele>75.8</ele>
        <time>2026-03-12T12:34:15.978Z</time>
      </trkpt>
      <trkpt lat="46.78119" lon="-1.09338">
        <ele>76.3</ele>
        <time>2026-03-12T12:34:18.699Z</time>
      </trkpt>
      <trkpt lat="46.78132" lon="-1.09355">
        <ele>77.7</ele>
        <time>2026-03-12T12:34:26.341Z</time>
      </trkpt>
      <trkpt lat="46.78155" lon="-1.09376">
        <ele>79.5</ele>
        <time>2026-03-12T12:34:36.177Z</time>
      </trkpt>
      <trkpt lat="46.78159" lon="-1.09388">
        <ele>80</ele>
        <time>2026-03-12T12:34:39.017Z</time>
      </trkpt>
      <trkpt lat="46.78162" lon="-1.09407">
        <ele>80.6</ele>
        <time>2026-03-12T12:34:42.680Z</time>
      </trkpt>
      <trkpt lat="46.78163" lon="-1.09446">
        <ele>82</ele>
        <time>2026-03-12T12:34:50.738Z</time>
      </trkpt>
      <trkpt lat="46.78162" lon="-1.09482">
        <ele>83.3</ele>
        <time>2026-03-12T12:34:58.207Z</time>
      </trkpt>
      <trkpt lat="46.78156" lon="-1.0956">
        <ele>84.7</ele>
        <time>2026-03-12T12:35:10.003Z</time>
      </trkpt>
      <trkpt lat="46.78158" lon="-1.09602">
        <ele>85.4</ele>
        <time>2026-03-12T12:35:16.207Z</time>
      </trkpt>
      <trkpt lat="46.78164" lon="-1.09662">
        <ele>86.9</ele>
        <time>2026-03-12T12:35:26.444Z</time>
        <extensions>
          <visugpx:TrkExtension xmlns:visugpx="https://www.visugpx.com/editgpx/">
            <visugpx:node>15</visugpx:node>
            </visugpx:TrkExtension>
        </extensions>
      </trkpt>
      <trkpt lat="46.78174" lon="-1.09766">
        <ele>89.3</ele>
        <time>2026-03-12T12:35:43.607Z</time>
      </trkpt>
      <trkpt lat="46.7818" lon="-1.09816">
        <ele>90</ele>
        <time>2026-03-12T12:35:50.756Z</time>
      </trkpt>
      <trkpt lat="46.78179" lon="-1.09847">
        <ele>90.5</ele>
        <time>2026-03-12T12:35:55.292Z</time>
      </trkpt>
      <trkpt lat="46.7815" lon="-1.09875">
        <ele>91.1</ele>
        <time>2026-03-12T12:36:02.224Z</time>
      </trkpt>
      <trkpt lat="46.7813" lon="-1.09886">
        <ele>91.5</ele>
        <time>2026-03-12T12:36:06.553Z</time>
      </trkpt>
      <trkpt lat="46.78077" lon="-1.09901">
        <ele>92.5</ele>
        <time>2026-03-12T12:36:17.465Z</time>
      </trkpt>
      <trkpt lat="46.78058" lon="-1.09911">
        <ele>93.1</ele>
        <time>2026-03-12T12:36:22.085Z</time>
      </trkpt>
      <trkpt lat="46.78038" lon="-1.09925">
        <ele>93.5</ele>
        <time>2026-03-12T12:36:26.544Z</time>
        <extensions>
          <visugpx:TrkExtension xmlns:visugpx="https://www.visugpx.com/editgpx/">
            <visugpx:node>16</visugpx:node>
            </visugpx:TrkExtension>
        </extensions>
      </trkpt>
      <trkpt lat="46.78008" lon="-1.09948">
        <ele>93.9</ele>
        <time>2026-03-12T12:36:32.927Z</time>
      </trkpt>
      <trkpt lat="46.7793" lon="-1.10002">
        <ele>94.8</ele>
        <time>2026-03-12T12:36:48.961Z</time>
      </trkpt>
      <trkpt lat="46.77902" lon="-1.10024">
        <ele>94.7</ele>
        <time>2026-03-12T12:36:54.136Z</time>
      </trkpt>
      <trkpt lat="46.77686" lon="-1.10179">
        <ele>90.2</ele>
        <time>2026-03-12T12:37:28.268Z</time>
      </trkpt>
      <trkpt lat="46.77682" lon="-1.10178">
        <ele>90.1</ele>
        <time>2026-03-12T12:37:28.816Z</time>
      </trkpt>
      <trkpt lat="46.77679" lon="-1.10173">
        <ele>90.1</ele>
        <time>2026-03-12T12:37:29.580Z</time>
      </trkpt>
      <trkpt lat="46.77675" lon="-1.10161">
        <ele>90.3</ele>
        <time>2026-03-12T12:37:31.495Z</time>
      </trkpt>
      <trkpt lat="46.77657" lon="-1.1007">
        <ele>90.8</ele>
        <time>2026-03-12T12:37:43.219Z</time>
      </trkpt>
      <trkpt lat="46.77646" lon="-1.10001">
        <ele>91.7</ele>
        <time>2026-03-12T12:37:53.028Z</time>
      </trkpt>
      <trkpt lat="46.77642" lon="-1.09991">
        <ele>91.8</ele>
        <time>2026-03-12T12:37:54.534Z</time>
      </trkpt>
      <trkpt lat="46.77635" lon="-1.09986">
        <ele>91.6</ele>
        <time>2026-03-12T12:37:55.578Z</time>
      </trkpt>
      <trkpt lat="46.77614" lon="-1.09985">
        <ele>90.4</ele>
        <time>2026-03-12T12:37:57.822Z</time>
      </trkpt>
      <trkpt lat="46.77584" lon="-1.09989">
        <ele>88.4</ele>
        <time>2026-03-12T12:38:00.858Z</time>
      </trkpt>
      <trkpt lat="46.77556" lon="-1.09996">
        <ele>87.8</ele>
        <time>2026-03-12T12:38:04.806Z</time>
      </trkpt>
      <trkpt lat="46.77527" lon="-1.10008">
        <ele>87.2</ele>
        <time>2026-03-12T12:38:09.038Z</time>
      </trkpt>
      <trkpt lat="46.77467" lon="-1.10048">
        <ele>85.9</ele>
        <time>2026-03-12T12:38:18.313Z</time>
      </trkpt>
      <trkpt lat="46.77438" lon="-1.10062">
        <ele>85.5</ele>
        <time>2026-03-12T12:38:22.858Z</time>
      </trkpt>
      <trkpt lat="46.77405" lon="-1.10083">
        <ele>85</ele>
        <time>2026-03-12T12:38:28.177Z</time>
      </trkpt>
      <trkpt lat="46.7739" lon="-1.10091">
        <ele>84.8</ele>
        <time>2026-03-12T12:38:30.565Z</time>
      </trkpt>
      <trkpt lat="46.7738" lon="-1.10098">
        <ele>84.6</ele>
        <time>2026-03-12T12:38:32.146Z</time>
      </trkpt>
      <trkpt lat="46.7736" lon="-1.10108">
        <ele>84.4</ele>
        <time>2026-03-12T12:38:35.394Z</time>
      </trkpt>
      <trkpt lat="46.77333" lon="-1.10118">
        <ele>84.2</ele>
        <time>2026-03-12T12:38:39.763Z</time>
      </trkpt>
      <trkpt lat="46.77281" lon="-1.10128">
        <ele>83.6</ele>
        <time>2026-03-12T12:38:47.680Z</time>
      </trkpt>
      <trkpt lat="46.77216" lon="-1.10136">
        <ele>83.1</ele>
        <time>2026-03-12T12:38:57.865Z</time>
      </trkpt>
      <trkpt lat="46.77172" lon="-1.10151">
        <ele>82.8</ele>
        <time>2026-03-12T12:39:04.986Z</time>
        <extensions>
          <visugpx:TrkExtension xmlns:visugpx="https://www.visugpx.com/editgpx/">
            <visugpx:node>17</visugpx:node>
            </visugpx:TrkExtension>
        </extensions>
      </trkpt>
      <trkpt lat="46.77127" lon="-1.10169">
        <ele>82.5</ele>
        <time>2026-03-12T12:39:12.354Z</time>
      </trkpt>
      <trkpt lat="46.77102" lon="-1.10183">
        <ele>82.4</ele>
        <time>2026-03-12T12:39:16.688Z</time>
      </trkpt>
      <trkpt lat="46.77062" lon="-1.10213">
        <ele>83.6</ele>
        <time>2026-03-12T12:39:26.628Z</time>
      </trkpt>
      <trkpt lat="46.77061" lon="-1.10289">
        <ele>84.1</ele>
        <time>2026-03-12T12:39:36.218Z</time>
      </trkpt>
      <trkpt lat="46.77056" lon="-1.10356">
        <ele>84.6</ele>
        <time>2026-03-12T12:39:44.828Z</time>
      </trkpt>
      <trkpt lat="46.77025" lon="-1.10521">
        <ele>88.5</ele>
        <time>2026-03-12T12:40:12.766Z</time>
      </trkpt>
      <trkpt lat="46.77017" lon="-1.10575">
        <ele>90</ele>
        <time>2026-03-12T12:40:22.497Z</time>
      </trkpt>
      <trkpt lat="46.77005" lon="-1.10605">
        <ele>90.7</ele>
        <time>2026-03-12T12:40:27.922Z</time>
      </trkpt>
      <trkpt lat="46.76963" lon="-1.10664">
        <ele>91</ele>
        <time>2026-03-12T12:40:38.191Z</time>
      </trkpt>
      <trkpt lat="46.76954" lon="-1.1068">
        <ele>91</ele>
        <time>2026-03-12T12:40:40.569Z</time>
      </trkpt>
      <trkpt lat="46.76948" lon="-1.10701">
        <ele>91</ele>
        <time>2026-03-12T12:40:43.181Z</time>
        <extensions>
          <visugpx:TrkExtension xmlns:visugpx="https://www.visugpx.com/editgpx/">
            <visugpx:node>18</visugpx:node>
            </visugpx:TrkExtension>
        </extensions>
      </trkpt>
      <trkpt lat="46.76939" lon="-1.1074">
        <ele>91</ele>
        <time>2026-03-12T12:40:47.907Z</time>
      </trkpt>
      <trkpt lat="46.76928" lon="-1.10851">
        <ele>89.9</ele>
        <time>2026-03-12T12:40:59.216Z</time>
      </trkpt>
      <trkpt lat="46.76929" lon="-1.1092">
        <ele>89.8</ele>
        <time>2026-03-12T12:41:06.984Z</time>
      </trkpt>
      <trkpt lat="46.76934" lon="-1.10923">
        <ele>89.8</ele>
        <time>2026-03-12T12:41:07.890Z</time>
      </trkpt>
      <trkpt lat="46.76929" lon="-1.10962">
        <ele>89.5</ele>
        <time>2026-03-12T12:41:12.007Z</time>
      </trkpt>
      <trkpt lat="46.76921" lon="-1.11414">
        <ele>88.1</ele>
        <time>2026-03-12T12:42:01.772Z</time>
      </trkpt>
      <trkpt lat="46.76914" lon="-1.11447">
        <ele>87.6</ele>
        <time>2026-03-12T12:42:05.061Z</time>
      </trkpt>
      <trkpt lat="46.76908" lon="-1.11467">
        <ele>87.2</ele>
        <time>2026-03-12T12:42:07.046Z</time>
      </trkpt>
      <trkpt lat="46.76832" lon="-1.11652">
        <ele>86.8</ele>
        <time>2026-03-12T12:42:31.193Z</time>
      </trkpt>
      <trkpt lat="46.76828" lon="-1.11674">
        <ele>86.8</ele>
        <time>2026-03-12T12:42:33.807Z</time>
      </trkpt>
      <trkpt lat="46.76839" lon="-1.11671">
        <ele>86.9</ele>
        <time>2026-03-12T12:42:35.854Z</time>
        <extensions>
          <visugpx:TrkExtension xmlns:visugpx="https://www.visugpx.com/editgpx/">
            <visugpx:node>19</visugpx:node>
            </visugpx:TrkExtension>
        </extensions>
      </trkpt>
      <trkpt lat="46.76795" lon="-1.11687">
        <ele>86.3</ele>
        <time>2026-03-12T12:42:42.593Z</time>
      </trkpt>
      <trkpt lat="46.76746" lon="-1.11695">
        <ele>85.7</ele>
        <time>2026-03-12T12:42:49.988Z</time>
      </trkpt>
      <trkpt lat="46.76655" lon="-1.11734">
        <ele>86.7</ele>
        <time>2026-03-12T12:43:07.626Z</time>
      </trkpt>
      <trkpt lat="46.76636" lon="-1.11707">
        <ele>86.1</ele>
        <time>2026-03-12T12:43:11.266Z</time>
      </trkpt>
      <trkpt lat="46.76605" lon="-1.11668">
        <ele>85.3</ele>
        <time>2026-03-12T12:43:17.028Z</time>
      </trkpt>
      <trkpt lat="46.76549" lon="-1.1159">
        <ele>82.5</ele>
        <time>2026-03-12T12:43:26.585Z</time>
      </trkpt>
      <trkpt lat="46.76536" lon="-1.11581">
        <ele>81.7</ele>
        <time>2026-03-12T12:43:28.137Z</time>
      </trkpt>
      <trkpt lat="46.76518" lon="-1.1158">
        <ele>80.8</ele>
        <time>2026-03-12T12:43:30.153Z</time>
      </trkpt>
      <trkpt lat="46.76513" lon="-1.11582">
        <ele>80.6</ele>
        <time>2026-03-12T12:43:30.782Z</time>
      </trkpt>
      <trkpt lat="46.76488" lon="-1.11599">
        <ele>79.7</ele>
        <time>2026-03-12T12:43:34.280Z</time>
      </trkpt>
      <trkpt lat="46.76479" lon="-1.11612">
        <ele>79.6</ele>
        <time>2026-03-12T12:43:36.252Z</time>
      </trkpt>
      <trkpt lat="46.76462" lon="-1.11646">
        <ele>79.9</ele>
        <time>2026-03-12T12:43:41.607Z</time>
      </trkpt>
      <trkpt lat="46.76448" lon="-1.1166">
        <ele>79.9</ele>
        <time>2026-03-12T12:43:44.452Z</time>
      </trkpt>
      <trkpt lat="46.76436" lon="-1.11665">
        <ele>79.6</ele>
        <time>2026-03-12T12:43:46.145Z</time>
      </trkpt>
      <trkpt lat="46.76423" lon="-1.11663">
        <ele>79</ele>
        <time>2026-03-12T12:43:47.650Z</time>
      </trkpt>
      <trkpt lat="46.76418" lon="-1.11657">
        <ele>78.6</ele>
        <time>2026-03-12T12:43:48.321Z</time>
      </trkpt>
      <trkpt lat="46.76393" lon="-1.11612">
        <ele>74.8</ele>
        <time>2026-03-12T12:43:52.313Z</time>
      </trkpt>
      <trkpt lat="46.76389" lon="-1.11599">
        <ele>73.9</ele>
        <time>2026-03-12T12:43:53.295Z</time>
      </trkpt>
      <trkpt lat="46.76376" lon="-1.11543">
        <ele>74</ele>
        <time>2026-03-12T12:44:00.248Z</time>
      </trkpt>
      <trkpt lat="46.76374" lon="-1.11537">
        <ele>74.1</ele>
        <time>2026-03-12T12:44:01.206Z</time>
      </trkpt>
      <trkpt lat="46.76366" lon="-1.11528">
        <ele>74.1</ele>
        <time>2026-03-12T12:44:02.899Z</time>
      </trkpt>
      <trkpt lat="46.76354" lon="-1.11523">
        <ele>73.8</ele>
        <time>2026-03-12T12:44:04.592Z</time>
      </trkpt>
      <trkpt lat="46.76338" lon="-1.11525">
        <ele>73</ele>
        <time>2026-03-12T12:44:06.392Z</time>
      </trkpt>
      <trkpt lat="46.76308" lon="-1.11536">
        <ele>71</ele>
        <time>2026-03-12T12:44:09.542Z</time>
      </trkpt>
      <trkpt lat="46.76298" lon="-1.11537">
        <ele>70.5</ele>
        <time>2026-03-12T12:44:10.665Z</time>
      </trkpt>
      <trkpt lat="46.76294" lon="-1.11536">
        <ele>70.3</ele>
        <time>2026-03-12T12:44:11.121Z</time>
      </trkpt>
      <trkpt lat="46.76286" lon="-1.11528">
        <ele>70.2</ele>
        <time>2026-03-12T12:44:12.600Z</time>
      </trkpt>
      <trkpt lat="46.76253" lon="-1.11487">
        <ele>69.8</ele>
        <time>2026-03-12T12:44:19.271Z</time>
      </trkpt>
      <trkpt lat="46.76232" lon="-1.11465">
        <ele>71.7</ele>
        <time>2026-03-12T12:44:29.600Z</time>
      </trkpt>
      <trkpt lat="46.76218" lon="-1.11458">
        <ele>72.8</ele>
        <time>2026-03-12T12:44:35.580Z</time>
      </trkpt>
      <trkpt lat="46.76183" lon="-1.11444">
        <ele>75.2</ele>
        <time>2026-03-12T12:44:48.700Z</time>
        <extensions>
          <visugpx:TrkExtension xmlns:visugpx="https://www.visugpx.com/editgpx/">
            <visugpx:node>20</visugpx:node>
            </visugpx:TrkExtension>
        </extensions>
      </trkpt>
      <trkpt lat="46.76159" lon="-1.11435">
        <ele>76.5</ele>
        <time>2026-03-12T12:44:56.179Z</time>
      </trkpt>
      <trkpt lat="46.76121" lon="-1.11427">
        <ele>77.3</ele>
        <time>2026-03-12T12:45:04.134Z</time>
      </trkpt>
      <trkpt lat="46.76115" lon="-1.11431">
        <ele>77.3</ele>
        <time>2026-03-12T12:45:05.240Z</time>
      </trkpt>
      <trkpt lat="46.76025" lon="-1.11446">
        <ele>74.8</ele>
        <time>2026-03-12T12:45:17.188Z</time>
      </trkpt>
      <trkpt lat="46.75951" lon="-1.11467">
        <ele>68.7</ele>
        <time>2026-03-12T12:45:24.770Z</time>
      </trkpt>
      <trkpt lat="46.75848" lon="-1.11482">
        <ele>61.9</ele>
        <time>2026-03-12T12:45:35.247Z</time>
      </trkpt>
      <trkpt lat="46.75817" lon="-1.11496">
        <ele>61.2</ele>
        <time>2026-03-12T12:45:39.740Z</time>
      </trkpt>
      <trkpt lat="46.75798" lon="-1.11508">
        <ele>61.3</ele>
        <time>2026-03-12T12:45:43.376Z</time>
      </trkpt>
      <trkpt lat="46.75756" lon="-1.11527">
        <ele>61.3</ele>
        <time>2026-03-12T12:45:50.748Z</time>
      </trkpt>
      <trkpt lat="46.75695" lon="-1.11543">
        <ele>63.2</ele>
        <time>2026-03-12T12:46:05.081Z</time>
      </trkpt>
      <trkpt lat="46.7567" lon="-1.11549">
        <ele>64.1</ele>
        <time>2026-03-12T12:46:11.282Z</time>
      </trkpt>
      <trkpt lat="46.75638" lon="-1.11553">
        <ele>64.8</ele>
        <time>2026-03-12T12:46:18.007Z</time>
      </trkpt>
      <trkpt lat="46.75631" lon="-1.11552">
        <ele>65</ele>
        <time>2026-03-12T12:46:19.593Z</time>
      </trkpt>
      <trkpt lat="46.75625" lon="-1.11549">
        <ele>65.3</ele>
        <time>2026-03-12T12:46:21.386Z</time>
      </trkpt>
      <trkpt lat="46.75615" lon="-1.11552">
        <ele>65.4</ele>
        <time>2026-03-12T12:46:23.270Z</time>
      </trkpt>
      <trkpt lat="46.75581" lon="-1.11549">
        <ele>66.1</ele>
        <time>2026-03-12T12:46:30.306Z</time>
      </trkpt>
      <trkpt lat="46.75499" lon="-1.11537">
        <ele>63.6</ele>
        <time>2026-03-12T12:46:40.945Z</time>
      </trkpt>
      <trkpt lat="46.75467" lon="-1.11536">
        <ele>61.9</ele>
        <time>2026-03-12T12:46:44.453Z</time>
      </trkpt>
      <trkpt lat="46.75444" lon="-1.11539">
        <ele>60.6</ele>
        <time>2026-03-12T12:46:46.932Z</time>
      </trkpt>
      <trkpt lat="46.75412" lon="-1.11522">
        <ele>59.7</ele>
        <time>2026-03-12T12:46:51.465Z</time>
      </trkpt>
      <trkpt lat="46.75394" lon="-1.1151">
        <ele>59.4</ele>
        <time>2026-03-12T12:46:54.357Z</time>
      </trkpt>
      <trkpt lat="46.75338" lon="-1.11457">
        <ele>58.8</ele>
        <time>2026-03-12T12:47:04.655Z</time>
      </trkpt>
      <trkpt lat="46.75321" lon="-1.11447">
        <ele>58.9</ele>
        <time>2026-03-12T12:47:07.894Z</time>
      </trkpt>
      <trkpt lat="46.75183" lon="-1.11413">
        <ele>60.7</ele>
        <time>2026-03-12T12:47:34.547Z</time>
      </trkpt>
      <trkpt lat="46.75149" lon="-1.11407">
        <ele>60.8</ele>
        <time>2026-03-12T12:47:40.451Z</time>
      </trkpt>
      <trkpt lat="46.75124" lon="-1.11408">
        <ele>60.1</ele>
        <time>2026-03-12T12:47:43.740Z</time>
      </trkpt>
      <trkpt lat="46.75065" lon="-1.11418">
        <ele>57.9</ele>
        <time>2026-03-12T12:47:51.027Z</time>
      </trkpt>
      <trkpt lat="46.74919" lon="-1.11452">
        <ele>50.1</ele>
        <time>2026-03-12T12:48:07.270Z</time>
      </trkpt>
      <trkpt lat="46.74893" lon="-1.11457">
        <ele>49.6</ele>
        <time>2026-03-12T12:48:10.978Z</time>
      </trkpt>
      <trkpt lat="46.74876" lon="-1.11455">
        <ele>49.3</ele>
        <time>2026-03-12T12:48:13.419Z</time>
      </trkpt>
      <trkpt lat="46.74854" lon="-1.11442">
        <ele>49</ele>
        <time>2026-03-12T12:48:16.965Z</time>
      </trkpt>
      <trkpt lat="46.74837" lon="-1.11444">
        <ele>48.7</ele>
        <time>2026-03-12T12:48:19.406Z</time>
      </trkpt>
      <trkpt lat="46.74821" lon="-1.11444">
        <ele>48.7</ele>
        <time>2026-03-12T12:48:22.089Z</time>
      </trkpt>
      <trkpt lat="46.74687" lon="-1.11432">
        <ele>49</ele>
        <time>2026-03-12T12:48:45.082Z</time>
        <extensions>
          <visugpx:TrkExtension xmlns:visugpx="https://www.visugpx.com/editgpx/">
            <visugpx:node>21</visugpx:node>
            </visugpx:TrkExtension>
        </extensions>
      </trkpt>
      <trkpt lat="46.74644" lon="-1.11427">
        <ele>49.3</ele>
        <time>2026-03-12T12:48:52.820Z</time>
      </trkpt>
      <trkpt lat="46.74614" lon="-1.11425">
        <ele>49.6</ele>
        <time>2026-03-12T12:48:58.373Z</time>
      </trkpt>
      <trkpt lat="46.74549" lon="-1.11419">
        <ele>51.2</ele>
        <time>2026-03-12T12:49:12.433Z</time>
      </trkpt>
      <trkpt lat="46.7453" lon="-1.1142">
        <ele>51.9</ele>
        <time>2026-03-12T12:49:17.159Z</time>
      </trkpt>
      <trkpt lat="46.74469" lon="-1.11435">
        <ele>52.9</ele>
        <time>2026-03-12T12:49:29.353Z</time>
      </trkpt>
      <trkpt lat="46.74453" lon="-1.11437">
        <ele>52.9</ele>
        <time>2026-03-12T12:49:32.045Z</time>
      </trkpt>
      <trkpt lat="46.74417" lon="-1.11436">
        <ele>53</ele>
        <time>2026-03-12T12:49:38.244Z</time>
      </trkpt>
      <trkpt lat="46.74398" lon="-1.11431">
        <ele>53</ele>
        <time>2026-03-12T12:49:41.481Z</time>
      </trkpt>
      <trkpt lat="46.74399" lon="-1.11402">
        <ele>53</ele>
        <time>2026-03-12T12:49:44.817Z</time>
      </trkpt>
      <trkpt lat="46.74398" lon="-1.11393">
        <ele>53</ele>
        <time>2026-03-12T12:49:45.864Z</time>
      </trkpt>
      <trkpt lat="46.74391" lon="-1.11368">
        <ele>53</ele>
        <time>2026-03-12T12:49:48.967Z</time>
      </trkpt>
      <trkpt lat="46.7439" lon="-1.11352">
        <ele>53</ele>
        <time>2026-03-12T12:49:50.812Z</time>
      </trkpt>
      <trkpt lat="46.74393" lon="-1.11331">
        <ele>53</ele>
        <time>2026-03-12T12:49:53.277Z</time>
      </trkpt>
      <trkpt lat="46.74401" lon="-1.113">
        <ele>53</ele>
        <time>2026-03-12T12:49:57.082Z</time>
      </trkpt>
      <trkpt lat="46.74403" lon="-1.11274">
        <ele>53</ele>
        <time>2026-03-12T12:50:00.088Z</time>
      </trkpt>
      <trkpt lat="46.74397" lon="-1.11234">
        <ele>53</ele>
        <time>2026-03-12T12:50:04.792Z</time>
      </trkpt>
      <trkpt lat="46.74392" lon="-1.1121">
        <ele>53.1</ele>
        <time>2026-03-12T12:50:07.840Z</time>
      </trkpt>
      <trkpt lat="46.74382" lon="-1.11179">
        <ele>53.4</ele>
        <time>2026-03-12T12:50:12.308Z</time>
      </trkpt>
      <trkpt lat="46.74369" lon="-1.11152">
        <ele>53.4</ele>
        <time>2026-03-12T12:50:16.099Z</time>
      </trkpt>
      <trkpt lat="46.74347" lon="-1.1112">
        <ele>53.3</ele>
        <time>2026-03-12T12:50:21.151Z</time>
      </trkpt>
      <trkpt lat="46.7433" lon="-1.11098">
        <ele>53.2</ele>
        <time>2026-03-12T12:50:24.806Z</time>
      </trkpt>
      <trkpt lat="46.74313" lon="-1.11072">
        <ele>53.2</ele>
        <time>2026-03-12T12:50:28.934Z</time>
      </trkpt>
      <trkpt lat="46.74285" lon="-1.1101">
        <ele>52.6</ele>
        <time>2026-03-12T12:50:36.592Z</time>
      </trkpt>
      <trkpt lat="46.74256" lon="-1.10941">
        <ele>52.7</ele>
        <time>2026-03-12T12:50:46.053Z</time>
      </trkpt>
      <trkpt lat="46.74211" lon="-1.10821">
        <ele>53</ele>
        <time>2026-03-12T12:51:02.258Z</time>
      </trkpt>
      <trkpt lat="46.74163" lon="-1.10686">
        <ele>54</ele>
        <time>2026-03-12T12:51:21.455Z</time>
      </trkpt>
      <trkpt lat="46.74137" lon="-1.10615">
        <ele>54.4</ele>
        <time>2026-03-12T12:51:31.380Z</time>
      </trkpt>
      <trkpt lat="46.7411" lon="-1.1057">
        <ele>54.3</ele>
        <time>2026-03-12T12:51:38.095Z</time>
      </trkpt>
      <trkpt lat="46.74063" lon="-1.10502">
        <ele>54</ele>
        <time>2026-03-12T12:51:48.729Z</time>
        <extensions>
          <visugpx:TrkExtension xmlns:visugpx="https://www.visugpx.com/editgpx/">
            <visugpx:node>22</visugpx:node>
            </visugpx:TrkExtension>
        </extensions>
      </trkpt>
      <trkpt lat="46.74034" lon="-1.10459">
        <ele>54.3</ele>
        <time>2026-03-12T12:51:56.168Z</time>
      </trkpt>
      <trkpt lat="46.74002" lon="-1.1042">
        <ele>54.9</ele>
        <time>2026-03-12T12:52:04.235Z</time>
      </trkpt>
      <trkpt lat="46.73918" lon="-1.10323">
        <ele>60.4</ele>
        <time>2026-03-12T12:52:36.104Z</time>
      </trkpt>
      <trkpt lat="46.73886" lon="-1.10271">
        <ele>62.9</ele>
        <time>2026-03-12T12:52:50.510Z</time>
      </trkpt>
      <trkpt lat="46.73872" lon="-1.10238">
        <ele>64.4</ele>
        <time>2026-03-12T12:52:58.958Z</time>
      </trkpt>
      <trkpt lat="46.7386" lon="-1.10195">
        <ele>65.4</ele>
        <time>2026-03-12T12:53:06.383Z</time>
      </trkpt>
      <trkpt lat="46.73835" lon="-1.10058">
        <ele>68.6</ele>
        <time>2026-03-12T12:53:29.453Z</time>
      </trkpt>
      <trkpt lat="46.73828" lon="-1.0999">
        <ele>69.9</ele>
        <time>2026-03-12T12:53:39.977Z</time>
      </trkpt>
      <trkpt lat="46.73827" lon="-1.09959">
        <ele>69.6</ele>
        <time>2026-03-12T12:53:43.114Z</time>
      </trkpt>
      <trkpt lat="46.73828" lon="-1.09942">
        <ele>69.4</ele>
        <time>2026-03-12T12:53:44.794Z</time>
      </trkpt>
      <trkpt lat="46.73832" lon="-1.09916">
        <ele>69</ele>
        <time>2026-03-12T12:53:47.316Z</time>
      </trkpt>
      <trkpt lat="46.73847" lon="-1.09863">
        <ele>66.9</ele>
        <time>2026-03-12T12:53:51.614Z</time>
      </trkpt>
      <trkpt lat="46.73857" lon="-1.09818">
        <ele>65.4</ele>
        <time>2026-03-12T12:53:55.337Z</time>
      </trkpt>
      <trkpt lat="46.73868" lon="-1.09607">
        <ele>60.1</ele>
        <time>2026-03-12T12:54:13.195Z</time>
      </trkpt>
      <trkpt lat="46.73868" lon="-1.09561">
        <ele>59.7</ele>
        <time>2026-03-12T12:54:17.902Z</time>
      </trkpt>
      <trkpt lat="46.73865" lon="-1.09531">
        <ele>59.9</ele>
        <time>2026-03-12T12:54:21.730Z</time>
      </trkpt>
      <trkpt lat="46.73855" lon="-1.09481">
        <ele>60.4</ele>
        <time>2026-03-12T12:54:28.609Z</time>
      </trkpt>
      <trkpt lat="46.73843" lon="-1.09432">
        <ele>61.5</ele>
        <time>2026-03-12T12:54:36.874Z</time>
      </trkpt>
      <trkpt lat="46.73842" lon="-1.09411">
        <ele>61.8</ele>
        <time>2026-03-12T12:54:39.863Z</time>
      </trkpt>
      <trkpt lat="46.73845" lon="-1.0939">
        <ele>62</ele>
        <time>2026-03-12T12:54:42.684Z</time>
      </trkpt>
      <trkpt lat="46.73895" lon="-1.09246">
        <ele>63</ele>
        <time>2026-03-12T12:55:02.947Z</time>
      </trkpt>
      <trkpt lat="46.73909" lon="-1.09201">
        <ele>63</ele>
        <time>2026-03-12T12:55:08.624Z</time>
      </trkpt>
      <trkpt lat="46.7392" lon="-1.09155">
        <ele>63</ele>
        <time>2026-03-12T12:55:14.222Z</time>
      </trkpt>
      <trkpt lat="46.73927" lon="-1.09099">
        <ele>63.1</ele>
        <time>2026-03-12T12:55:20.925Z</time>
      </trkpt>
      <trkpt lat="46.73935" lon="-1.08987">
        <ele>64.8</ele>
        <time>2026-03-12T12:55:37.125Z</time>
      </trkpt>
      <trkpt lat="46.73949" lon="-1.08861">
        <ele>68.7</ele>
        <time>2026-03-12T12:56:01.023Z</time>
      </trkpt>
      <trkpt lat="46.73954" lon="-1.08827">
        <ele>69.7</ele>
        <time>2026-03-12T12:56:07.326Z</time>
      </trkpt>
      <trkpt lat="46.73966" lon="-1.08771">
        <ele>70.8</ele>
        <time>2026-03-12T12:56:16.282Z</time>
      </trkpt>
      <trkpt lat="46.73993" lon="-1.08662">
        <ele>72.2</ele>
        <time>2026-03-12T12:56:32.183Z</time>
      </trkpt>
      <trkpt lat="46.73973" lon="-1.08643">
        <ele>72.8</ele>
        <time>2026-03-12T12:56:37.368Z</time>
      </trkpt>
      <trkpt lat="46.7397" lon="-1.08633">
        <ele>73</ele>
        <time>2026-03-12T12:56:39.023Z</time>
      </trkpt>
      <trkpt lat="46.73978" lon="-1.08604">
        <ele>73.6</ele>
        <time>2026-03-12T12:56:43.830Z</time>
      </trkpt>
      <trkpt lat="46.73899" lon="-1.08525">
        <ele>72</ele>
        <time>2026-03-12T12:56:57.643Z</time>
      </trkpt>
      <trkpt lat="46.73898" lon="-1.08486">
        <ele>70.7</ele>
        <time>2026-03-12T12:57:00.665Z</time>
      </trkpt>
      <trkpt lat="46.73874" lon="-1.08359">
        <ele>67.6</ele>
        <time>2026-03-12T12:57:11.968Z</time>
      </trkpt>
      <trkpt lat="46.73858" lon="-1.08246">
        <ele>65.7</ele>
        <time>2026-03-12T12:57:22.700Z</time>
      </trkpt>
      <trkpt lat="46.73844" lon="-1.07998">
        <ele>67</ele>
        <time>2026-03-12T12:57:53.495Z</time>
      </trkpt>
      <trkpt lat="46.73834" lon="-1.07898">
        <ele>67.5</ele>
        <time>2026-03-12T12:58:05.951Z</time>
      </trkpt>
      <trkpt lat="46.73827" lon="-1.07838">
        <ele>68.9</ele>
        <time>2026-03-12T12:58:15.928Z</time>
      </trkpt>
      <trkpt lat="46.73819" lon="-1.07795">
        <ele>69.8</ele>
        <time>2026-03-12T12:58:22.895Z</time>
      </trkpt>
      <trkpt lat="46.738" lon="-1.07711">
        <ele>71.1</ele>
        <time>2026-03-12T12:58:35.540Z</time>
        <extensions>
          <visugpx:TrkExtension xmlns:visugpx="https://www.visugpx.com/editgpx/">
            <visugpx:node>23</visugpx:node>
            </visugpx:TrkExtension>
        </extensions>
      </trkpt>
      <trkpt lat="46.73739" lon="-1.0744">
        <ele>69.2</ele>
        <time>2026-03-12T12:59:05.506Z</time>
      </trkpt>
      <trkpt lat="46.73719" lon="-1.07367">
        <ele>68.9</ele>
        <time>2026-03-12T12:59:14.081Z</time>
      </trkpt>
      <trkpt lat="46.73706" lon="-1.07327">
        <ele>69</ele>
        <time>2026-03-12T12:59:19.331Z</time>
      </trkpt>
      <trkpt lat="46.7369" lon="-1.07288">
        <ele>68.8</ele>
        <time>2026-03-12T12:59:24.250Z</time>
      </trkpt>
      <trkpt lat="46.73621" lon="-1.07166">
        <ele>64.9</ele>
        <time>2026-03-12T12:59:37.656Z</time>
      </trkpt>
      <trkpt lat="46.73592" lon="-1.071">
        <ele>63.2</ele>
        <time>2026-03-12T12:59:44.523Z</time>
      </trkpt>
      <trkpt lat="46.73572" lon="-1.07063">
        <ele>63.1</ele>
        <time>2026-03-12T12:59:49.782Z</time>
      </trkpt>
      <trkpt lat="46.73522" lon="-1.06988">
        <ele>65.9</ele>
        <time>2026-03-12T13:00:08.089Z</time>
      </trkpt>
      <trkpt lat="46.73504" lon="-1.06957">
        <ele>67.8</ele>
        <time>2026-03-12T13:00:18.445Z</time>
      </trkpt>
      <trkpt lat="46.7347" lon="-1.06885">
        <ele>69.5</ele>
        <time>2026-03-12T13:00:31.946Z</time>
      </trkpt>
      <trkpt lat="46.73457" lon="-1.06864">
        <ele>69.5</ele>
        <time>2026-03-12T13:00:35.198Z</time>
      </trkpt>
      <trkpt lat="46.73425" lon="-1.06823">
        <ele>69.2</ele>
        <time>2026-03-12T13:00:41.885Z</time>
      </trkpt>
      <trkpt lat="46.73374" lon="-1.06767">
        <ele>69.5</ele>
        <time>2026-03-12T13:00:53.082Z</time>
      </trkpt>
      <trkpt lat="46.73356" lon="-1.06744">
        <ele>69.2</ele>
        <time>2026-03-12T13:00:56.659Z</time>
      </trkpt>
      <trkpt lat="46.73308" lon="-1.06663">
        <ele>68</ele>
        <time>2026-03-12T13:01:07.277Z</time>
      </trkpt>
      <trkpt lat="46.73263" lon="-1.06606">
        <ele>67.9</ele>
        <time>2026-03-12T13:01:17.110Z</time>
      </trkpt>
      <trkpt lat="46.73229" lon="-1.06571">
        <ele>67.1</ele>
        <time>2026-03-12T13:01:22.985Z</time>
      </trkpt>
      <trkpt lat="46.73209" lon="-1.06557">
        <ele>66.3</ele>
        <time>2026-03-12T13:01:25.726Z</time>
      </trkpt>
      <trkpt lat="46.73192" lon="-1.06549">
        <ele>66</ele>
        <time>2026-03-12T13:01:28.301Z</time>
      </trkpt>
      <trkpt lat="46.73184" lon="-1.06547">
        <ele>65.8</ele>
        <time>2026-03-12T13:01:29.397Z</time>
      </trkpt>
      <trkpt lat="46.73176" lon="-1.06548">
        <ele>65.6</ele>
        <time>2026-03-12T13:01:30.479Z</time>
      </trkpt>
      <trkpt lat="46.73161" lon="-1.06555">
        <ele>65.2</ele>
        <time>2026-03-12T13:01:32.592Z</time>
      </trkpt>
      <trkpt lat="46.73124" lon="-1.06582">
        <ele>64.5</ele>
        <time>2026-03-12T13:01:38.548Z</time>
      </trkpt>
      <trkpt lat="46.73116" lon="-1.06586">
        <ele>64.4</ele>
        <time>2026-03-12T13:01:39.821Z</time>
      </trkpt>
      <trkpt lat="46.73109" lon="-1.06587">
        <ele>64.3</ele>
        <time>2026-03-12T13:01:40.857Z</time>
      </trkpt>
      <trkpt lat="46.73098" lon="-1.06582">
        <ele>64.2</ele>
        <time>2026-03-12T13:01:42.640Z</time>
      </trkpt>
      <trkpt lat="46.73084" lon="-1.06566">
        <ele>63.8</ele>
        <time>2026-03-12T13:01:45.084Z</time>
      </trkpt>
      <trkpt lat="46.73067" lon="-1.0654">
        <ele>63.6</ele>
        <time>2026-03-12T13:01:48.913Z</time>
      </trkpt>
      <trkpt lat="46.73033" lon="-1.06477">
        <ele>63.7</ele>
        <time>2026-03-12T13:01:58.289Z</time>
      </trkpt>
      <trkpt lat="46.73024" lon="-1.06439">
        <ele>64.6</ele>
        <time>2026-03-12T13:02:04.811Z</time>
      </trkpt>
      <trkpt lat="46.73022" lon="-1.06399">
        <ele>65.6</ele>
        <time>2026-03-12T13:02:11.609Z</time>
      </trkpt>
      <trkpt lat="46.73022" lon="-1.06378">
        <ele>66.2</ele>
        <time>2026-03-12T13:02:15.403Z</time>
      </trkpt>
      <trkpt lat="46.73024" lon="-1.06354">
        <ele>67.1</ele>
        <time>2026-03-12T13:02:20.525Z</time>
      </trkpt>
      <trkpt lat="46.73034" lon="-1.06324">
        <ele>68.1</ele>
        <time>2026-03-12T13:02:26.707Z</time>
      </trkpt>
      <trkpt lat="46.73048" lon="-1.063">
        <ele>68.1</ele>
        <time>2026-03-12T13:02:30.328Z</time>
      </trkpt>
      <trkpt lat="46.73072" lon="-1.06271">
        <ele>67.9</ele>
        <time>2026-03-12T13:02:35.249Z</time>
      </trkpt>
      <trkpt lat="46.73088" lon="-1.06248">
        <ele>67.1</ele>
        <time>2026-03-12T13:02:38.034Z</time>
      </trkpt>
      <trkpt lat="46.73097" lon="-1.06225">
        <ele>67.3</ele>
        <time>2026-03-12T13:02:41.427Z</time>
      </trkpt>
      <trkpt lat="46.731" lon="-1.06205">
        <ele>67.4</ele>
        <time>2026-03-12T13:02:43.948Z</time>
      </trkpt>
      <trkpt lat="46.731" lon="-1.06193">
        <ele>67.4</ele>
        <time>2026-03-12T13:02:45.327Z</time>
      </trkpt>
      <trkpt lat="46.73097" lon="-1.06172">
        <ele>67.3</ele>
        <time>2026-03-12T13:02:47.641Z</time>
      </trkpt>
      <trkpt lat="46.73078" lon="-1.06117">
        <ele>68.1</ele>
        <time>2026-03-12T13:02:56.212Z</time>
      </trkpt>
      <trkpt lat="46.73064" lon="-1.06067">
        <ele>68.3</ele>
        <time>2026-03-12T13:03:02.752Z</time>
      </trkpt>
      <trkpt lat="46.73057" lon="-1.06004">
        <ele>67.4</ele>
        <time>2026-03-12T13:03:08.859Z</time>
      </trkpt>
      <trkpt lat="46.73056" lon="-1.05953">
        <ele>67.7</ele>
        <time>2026-03-12T13:03:15.235Z</time>
        <extensions>
          <visugpx:TrkExtension xmlns:visugpx="https://www.visugpx.com/editgpx/">
            <visugpx:node>24</visugpx:node>
            </visugpx:TrkExtension>
        </extensions>
      </trkpt>
      <trkpt lat="46.73054" lon="-1.05823">
        <ele>68.9</ele>
        <time>2026-03-12T13:03:32.315Z</time>
      </trkpt>
      <trkpt lat="46.73056" lon="-1.0579">
        <ele>69</ele>
        <time>2026-03-12T13:03:36.287Z</time>
      </trkpt>
      <trkpt lat="46.73065" lon="-1.05734">
        <ele>69.5</ele>
        <time>2026-03-12T13:03:43.781Z</time>
      </trkpt>
      <trkpt lat="46.73106" lon="-1.05537">
        <ele>71.4</ele>
        <time>2026-03-12T13:04:10.824Z</time>
      </trkpt>
      <trkpt lat="46.73114" lon="-1.05469">
        <ele>72</ele>
        <time>2026-03-12T13:04:19.813Z</time>
      </trkpt>
      <trkpt lat="46.73117" lon="-1.05396">
        <ele>72.8</ele>
        <time>2026-03-12T13:04:29.673Z</time>
      </trkpt>
      <trkpt lat="46.73115" lon="-1.05251">
        <ele>74.8</ele>
        <time>2026-03-12T13:04:50.113Z</time>
      </trkpt>
      <trkpt lat="46.73128" lon="-1.05068">
        <ele>76.2</ele>
        <time>2026-03-12T13:05:13.698Z</time>
      </trkpt>
      <trkpt lat="46.73131" lon="-1.04999">
        <ele>77</ele>
        <time>2026-03-12T13:05:23.110Z</time>
      </trkpt>
      <trkpt lat="46.73132" lon="-1.04902">
        <ele>77.2</ele>
        <time>2026-03-12T13:05:34.584Z</time>
      </trkpt>
      <trkpt lat="46.7313" lon="-1.04844">
        <ele>77.9</ele>
        <time>2026-03-12T13:05:42.549Z</time>
      </trkpt>
      <trkpt lat="46.73125" lon="-1.04774">
        <ele>77.6</ele>
        <time>2026-03-12T13:05:50.181Z</time>
      </trkpt>
      <trkpt lat="46.73115" lon="-1.04689">
        <ele>78.4</ele>
        <time>2026-03-12T13:06:01.517Z</time>
      </trkpt>
      <trkpt lat="46.73102" lon="-1.04629">
        <ele>78.5</ele>
        <time>2026-03-12T13:06:08.910Z</time>
      </trkpt>
      <trkpt lat="46.73097" lon="-1.04614">
        <ele>78.3</ele>
        <time>2026-03-12T13:06:10.548Z</time>
        <extensions>
          <visugpx:TrkExtension xmlns:visugpx="https://www.visugpx.com/editgpx/">
            <visugpx:node>25</visugpx:node>
            </visugpx:TrkExtension>
        </extensions>
      </trkpt>
      <trkpt lat="46.72988" lon="-1.04644">
        <ele>78.3</ele>
        <time>2026-03-12T13:06:29.143Z</time>
      </trkpt>
      <trkpt lat="46.7295" lon="-1.04659">
        <ele>78.1</ele>
        <time>2026-03-12T13:06:35.437Z</time>
      </trkpt>
      <trkpt lat="46.72819" lon="-1.04721">
        <ele>77.4</ele>
        <time>2026-03-12T13:06:57.453Z</time>
      </trkpt>
      <trkpt lat="46.72762" lon="-1.04752">
        <ele>77</ele>
        <time>2026-03-12T13:07:07.045Z</time>
      </trkpt>
      <trkpt lat="46.72426" lon="-1.04955">
        <ele>72.6</ele>
        <time>2026-03-12T13:08:01.630Z</time>
      </trkpt>
      <trkpt lat="46.72404" lon="-1.04965">
        <ele>72.3</ele>
        <time>2026-03-12T13:08:05.061Z</time>
      </trkpt>
      <trkpt lat="46.72387" lon="-1.04965">
        <ele>72.1</ele>
        <time>2026-03-12T13:08:07.620Z</time>
      </trkpt>
      <trkpt lat="46.72371" lon="-1.04957">
        <ele>72</ele>
        <time>2026-03-12T13:08:10.303Z</time>
      </trkpt>
      <trkpt lat="46.72351" lon="-1.04939">
        <ele>71.9</ele>
        <time>2026-03-12T13:08:14.088Z</time>
      </trkpt>
      <trkpt lat="46.72332" lon="-1.04918">
        <ele>72</ele>
        <time>2026-03-12T13:08:18.250Z</time>
      </trkpt>
      <trkpt lat="46.72238" lon="-1.04809">
        <ele>74.1</ele>
        <time>2026-03-12T13:08:42.254Z</time>
      </trkpt>
      <trkpt lat="46.72226" lon="-1.04794">
        <ele>74.2</ele>
        <time>2026-03-12T13:08:45.071Z</time>
      </trkpt>
      <trkpt lat="46.72213" lon="-1.04774">
        <ele>74.5</ele>
        <time>2026-03-12T13:08:48.784Z</time>
      </trkpt>
      <trkpt lat="46.7219" lon="-1.04724">
        <ele>75.1</ele>
        <time>2026-03-12T13:08:56.783Z</time>
      </trkpt>
      <trkpt lat="46.72175" lon="-1.04701">
        <ele>75.7</ele>
        <time>2026-03-12T13:09:01.642Z</time>
      </trkpt>
      <trkpt lat="46.72099" lon="-1.04607">
        <ele>76</ele>
        <time>2026-03-12T13:09:18.836Z</time>
      </trkpt>
      <trkpt lat="46.71975" lon="-1.04459">
        <ele>77.5</ele>
        <time>2026-03-12T13:09:48.278Z</time>
      </trkpt>
      <trkpt lat="46.71925" lon="-1.04397">
        <ele>77.9</ele>
        <time>2026-03-12T13:09:59.949Z</time>
        <extensions>
          <visugpx:TrkExtension xmlns:visugpx="https://www.visugpx.com/editgpx/">
            <visugpx:node>26</visugpx:node>
            </visugpx:TrkExtension>
        </extensions>
      </trkpt>
      <trkpt lat="46.71829" lon="-1.04273">
        <ele>80</ele>
        <time>2026-03-12T13:10:25.283Z</time>
      </trkpt>
      <trkpt lat="46.71779" lon="-1.04202">
        <ele>80.4</ele>
        <time>2026-03-12T13:10:37.649Z</time>
      </trkpt>
      <trkpt lat="46.71767" lon="-1.04194">
        <ele>80.7</ele>
        <time>2026-03-12T13:10:40.440Z</time>
      </trkpt>
      <trkpt lat="46.71748" lon="-1.04191">
        <ele>81</ele>
        <time>2026-03-12T13:10:44.189Z</time>
      </trkpt>
      <trkpt lat="46.71719" lon="-1.0419">
        <ele>81.3</ele>
        <time>2026-03-12T13:10:49.573Z</time>
      </trkpt>
      <trkpt lat="46.71683" lon="-1.04194">
        <ele>81.5</ele>
        <time>2026-03-12T13:10:55.959Z</time>
      </trkpt>
      <trkpt lat="46.71673" lon="-1.04193">
        <ele>81.6</ele>
        <time>2026-03-12T13:10:57.812Z</time>
      </trkpt>
      <trkpt lat="46.71587" lon="-1.04167">
        <ele>81</ele>
        <time>2026-03-12T13:11:11.629Z</time>
      </trkpt>
      <trkpt lat="46.71575" lon="-1.04162">
        <ele>80.7</ele>
        <time>2026-03-12T13:11:13.323Z</time>
      </trkpt>
      <trkpt lat="46.7156" lon="-1.04151">
        <ele>80.2</ele>
        <time>2026-03-12T13:11:15.500Z</time>
      </trkpt>
      <trkpt lat="46.71551" lon="-1.04132">
        <ele>79.8</ele>
        <time>2026-03-12T13:11:17.627Z</time>
      </trkpt>
      <trkpt lat="46.71538" lon="-1.04071">
        <ele>78.8</ele>
        <time>2026-03-12T13:11:23.629Z</time>
      </trkpt>
      <trkpt lat="46.71531" lon="-1.04053">
        <ele>78.5</ele>
        <time>2026-03-12T13:11:25.601Z</time>
      </trkpt>
      <trkpt lat="46.71525" lon="-1.04046">
        <ele>78.3</ele>
        <time>2026-03-12T13:11:26.627Z</time>
      </trkpt>
      <trkpt lat="46.71519" lon="-1.04042">
        <ele>78.1</ele>
        <time>2026-03-12T13:11:27.479Z</time>
      </trkpt>
      <trkpt lat="46.71493" lon="-1.04038">
        <ele>77.3</ele>
        <time>2026-03-12T13:11:30.847Z</time>
      </trkpt>
      <trkpt lat="46.71468" lon="-1.04029">
        <ele>76.6</ele>
        <time>2026-03-12T13:11:34.254Z</time>
      </trkpt>
      <trkpt lat="46.71458" lon="-1.04024">
        <ele>76.3</ele>
        <time>2026-03-12T13:11:35.640Z</time>
      </trkpt>
      <trkpt lat="46.71447" lon="-1.04013">
        <ele>75.9</ele>
        <time>2026-03-12T13:11:37.366Z</time>
      </trkpt>
      <trkpt lat="46.71443" lon="-1.04006">
        <ele>75.7</ele>
        <time>2026-03-12T13:11:38.163Z</time>
      </trkpt>
      <trkpt lat="46.7141" lon="-1.03886">
        <ele>75.3</ele>
        <time>2026-03-12T13:11:52.408Z</time>
      </trkpt>
      <trkpt lat="46.71399" lon="-1.03858">
        <ele>75.8</ele>
        <time>2026-03-12T13:11:57.082Z</time>
      </trkpt>
      <trkpt lat="46.71364" lon="-1.03798">
        <ele>77.6</ele>
        <time>2026-03-12T13:12:09.966Z</time>
      </trkpt>
      <trkpt lat="46.71294" lon="-1.03686">
        <ele>79.3</ele>
        <time>2026-03-12T13:12:30.491Z</time>
      </trkpt>
      <trkpt lat="46.71266" lon="-1.03651">
        <ele>79.4</ele>
        <time>2026-03-12T13:12:36.836Z</time>
      </trkpt>
      <trkpt lat="46.7115" lon="-1.03498">
        <ele>78.8</ele>
        <time>2026-03-12T13:13:02.128Z</time>
      </trkpt>
      <trkpt lat="46.71121" lon="-1.03465">
        <ele>78.9</ele>
        <time>2026-03-12T13:13:08.457Z</time>
        <extensions>
          <visugpx:TrkExtension xmlns:visugpx="https://www.visugpx.com/editgpx/">
            <visugpx:node>27</visugpx:node>
            </visugpx:TrkExtension>
        </extensions>
      </trkpt>
      <trkpt lat="46.71078" lon="-1.03405">
        <ele>79.2</ele>
        <time>2026-03-12T13:13:18.932Z</time>
      </trkpt>
      <trkpt lat="46.71058" lon="-1.0337">
        <ele>79.8</ele>
        <time>2026-03-12T13:13:25.293Z</time>
      </trkpt>
      <trkpt lat="46.71033" lon="-1.03334">
        <ele>80.4</ele>
        <time>2026-03-12T13:13:32.285Z</time>
      </trkpt>
      <trkpt lat="46.71017" lon="-1.03317">
        <ele>80.4</ele>
        <time>2026-03-12T13:13:35.604Z</time>
      </trkpt>
      <trkpt lat="46.70943" lon="-1.03258">
        <ele>79.6</ele>
        <time>2026-03-12T13:13:48.558Z</time>
      </trkpt>
      <trkpt lat="46.70922" lon="-1.03236">
        <ele>78.8</ele>
        <time>2026-03-12T13:13:51.881Z</time>
      </trkpt>
      <trkpt lat="46.70913" lon="-1.03222">
        <ele>78.4</ele>
        <time>2026-03-12T13:13:53.579Z</time>
      </trkpt>
      <trkpt lat="46.70878" lon="-1.03159">
        <ele>77.8</ele>
        <time>2026-03-12T13:14:02.020Z</time>
      </trkpt>
      <trkpt lat="46.70864" lon="-1.03176">
        <ele>78.3</ele>
        <time>2026-03-12T13:14:06.082Z</time>
        <extensions>
          <visugpx:TrkExtension xmlns:visugpx="https://www.visugpx.com/editgpx/">
            <visugpx:node>28</visugpx:node>
            </visugpx:TrkExtension>
        </extensions>
      </trkpt>
      <trkpt lat="46.70878" lon="-1.03159">
        <ele>77.8</ele>
        <time>2026-03-12T13:14:08.488Z</time>
      </trkpt>
      <trkpt lat="46.70844" lon="-1.03103">
        <ele>78.5</ele>
        <time>2026-03-12T13:14:18.335Z</time>
      </trkpt>
      <trkpt lat="46.70833" lon="-1.03079">
        <ele>78.8</ele>
        <time>2026-03-12T13:14:22.196Z</time>
      </trkpt>
      <trkpt lat="46.70822" lon="-1.03064">
        <ele>77.8</ele>
        <time>2026-03-12T13:14:23.713Z</time>
      </trkpt>
      <trkpt lat="46.70725" lon="-1.02963">
        <ele>74.1</ele>
        <time>2026-03-12T13:14:39.015Z</time>
      </trkpt>
      <trkpt lat="46.70702" lon="-1.02941">
        <ele>73.6</ele>
        <time>2026-03-12T13:14:42.933Z</time>
      </trkpt>
      <trkpt lat="46.70672" lon="-1.02923">
        <ele>73.1</ele>
        <time>2026-03-12T13:14:47.664Z</time>
      </trkpt>
      <trkpt lat="46.70659" lon="-1.02917">
        <ele>73.1</ele>
        <time>2026-03-12T13:14:49.950Z</time>
      </trkpt>
      <trkpt lat="46.70653" lon="-1.02935">
        <ele>73.6</ele>
        <time>2026-03-12T13:14:53.346Z</time>
        <extensions>
          <visugpx:TrkExtension xmlns:visugpx="https://www.visugpx.com/editgpx/">
            <visugpx:node>29</visugpx:node>
            </visugpx:TrkExtension>
        </extensions>
      </trkpt>
      <trkpt lat="46.70659" lon="-1.02917">
        <ele>73.1</ele>
        <time>2026-03-12T13:14:55.037Z</time>
      </trkpt>
      <trkpt lat="46.70586" lon="-1.02879">
        <ele>71.7</ele>
        <time>2026-03-12T13:15:06.089Z</time>
      </trkpt>
      <trkpt lat="46.70569" lon="-1.02865">
        <ele>71.9</ele>
        <time>2026-03-12T13:15:09.709Z</time>
      </trkpt>
      <trkpt lat="46.70561" lon="-1.02856">
        <ele>72.1</ele>
        <time>2026-03-12T13:15:11.779Z</time>
      </trkpt>
      <trkpt lat="46.70527" lon="-1.02801">
        <ele>72.8</ele>
        <time>2026-03-12T13:15:21.542Z</time>
      </trkpt>
      <trkpt lat="46.70509" lon="-1.02787">
        <ele>73.7</ele>
        <time>2026-03-12T13:15:27.083Z</time>
      </trkpt>
      <trkpt lat="46.70499" lon="-1.02781">
        <ele>74.2</ele>
        <time>2026-03-12T13:15:30.099Z</time>
      </trkpt>
      <trkpt lat="46.70484" lon="-1.02777">
        <ele>74.8</ele>
        <time>2026-03-12T13:15:34.006Z</time>
      </trkpt>
      <trkpt lat="46.70429" lon="-1.02772">
        <ele>77.8</ele>
        <time>2026-03-12T13:15:51.069Z</time>
      </trkpt>
      <trkpt lat="46.70387" lon="-1.02749">
        <ele>77.6</ele>
        <time>2026-03-12T13:15:58.282Z</time>
      </trkpt>
      <trkpt lat="46.70358" lon="-1.02729">
        <ele>76.8</ele>
        <time>2026-03-12T13:16:02.604Z</time>
      </trkpt>
      <trkpt lat="46.70339" lon="-1.0271">
        <ele>76.5</ele>
        <time>2026-03-12T13:16:06.034Z</time>
      </trkpt>
      <trkpt lat="46.70286" lon="-1.02667">
        <ele>76</ele>
        <time>2026-03-12T13:16:15.455Z</time>
      </trkpt>
      <trkpt lat="46.70237" lon="-1.02632">
        <ele>76.6</ele>
        <time>2026-03-12T13:16:25.649Z</time>
      </trkpt>
      <trkpt lat="46.70218" lon="-1.02622">
        <ele>76.9</ele>
        <time>2026-03-12T13:16:29.576Z</time>
      </trkpt>
      <trkpt lat="46.70166" lon="-1.02602">
        <ele>77.8</ele>
        <time>2026-03-12T13:16:40.241Z</time>
      </trkpt>
      <trkpt lat="46.70111" lon="-1.02596">
        <ele>78.6</ele>
        <time>2026-03-12T13:16:50.925Z</time>
      </trkpt>
      <trkpt lat="46.70086" lon="-1.02591">
        <ele>79</ele>
        <time>2026-03-12T13:16:55.883Z</time>
      </trkpt>
      <trkpt lat="46.70067" lon="-1.02586">
        <ele>79.8</ele>
        <time>2026-03-12T13:17:00.957Z</time>
      </trkpt>
      <trkpt lat="46.70031" lon="-1.02569">
        <ele>81.5</ele>
        <time>2026-03-12T13:17:11.339Z</time>
      </trkpt>
      <trkpt lat="46.70009" lon="-1.02557">
        <ele>82.6</ele>
        <time>2026-03-12T13:17:17.938Z</time>
      </trkpt>
      <trkpt lat="46.69985" lon="-1.02541">
        <ele>83.6</ele>
        <time>2026-03-12T13:17:24.582Z</time>
      </trkpt>
      <trkpt lat="46.69842" lon="-1.02418">
        <ele>85.8</ele>
        <time>2026-03-12T13:17:56.328Z</time>
      </trkpt>
      <trkpt lat="46.69784" lon="-1.02359">
        <ele>82.4</ele>
        <time>2026-03-12T13:18:04.348Z</time>
      </trkpt>
      <trkpt lat="46.6974" lon="-1.02305">
        <ele>79.7</ele>
        <time>2026-03-12T13:18:10.920Z</time>
      </trkpt>
      <trkpt lat="46.69727" lon="-1.02292">
        <ele>79</ele>
        <time>2026-03-12T13:18:12.754Z</time>
      </trkpt>
      <trkpt lat="46.69688" lon="-1.02263">
        <ele>77</ele>
        <time>2026-03-12T13:18:17.801Z</time>
      </trkpt>
      <trkpt lat="46.69651" lon="-1.0225">
        <ele>75.4</ele>
        <time>2026-03-12T13:18:22.304Z</time>
      </trkpt>
      <trkpt lat="46.69619" lon="-1.02233">
        <ele>74.1</ele>
        <time>2026-03-12T13:18:26.447Z</time>
      </trkpt>
      <trkpt lat="46.69608" lon="-1.02225">
        <ele>73.6</ele>
        <time>2026-03-12T13:18:27.916Z</time>
      </trkpt>
      <trkpt lat="46.6959" lon="-1.02202">
        <ele>72.6</ele>
        <time>2026-03-12T13:18:30.753Z</time>
      </trkpt>
      <trkpt lat="46.69544" lon="-1.0211">
        <ele>69.3</ele>
        <time>2026-03-12T13:18:39.976Z</time>
      </trkpt>
      <trkpt lat="46.695" lon="-1.02037">
        <ele>68</ele>
        <time>2026-03-12T13:18:49.365Z</time>
      </trkpt>
      <trkpt lat="46.69472" lon="-1.02003">
        <ele>67.3</ele>
        <time>2026-03-12T13:18:54.511Z</time>
      </trkpt>
      <trkpt lat="46.69459" lon="-1.01991">
        <ele>66.8</ele>
        <time>2026-03-12T13:18:56.464Z</time>
      </trkpt>
      <trkpt lat="46.69441" lon="-1.01966">
        <ele>66</ele>
        <time>2026-03-12T13:18:59.628Z</time>
      </trkpt>
      <trkpt lat="46.69433" lon="-1.01947">
        <ele>65.6</ele>
        <time>2026-03-12T13:19:01.668Z</time>
      </trkpt>
      <trkpt lat="46.69412" lon="-1.01909">
        <ele>64.9</ele>
        <time>2026-03-12T13:19:06.328Z</time>
      </trkpt>
      <trkpt lat="46.69388" lon="-1.01853">
        <ele>64.4</ele>
        <time>2026-03-12T13:19:13.190Z</time>
      </trkpt>
      <trkpt lat="46.6938" lon="-1.01841">
        <ele>64.4</ele>
        <time>2026-03-12T13:19:15.114Z</time>
      </trkpt>
      <trkpt lat="46.69371" lon="-1.01833">
        <ele>64.6</ele>
        <time>2026-03-12T13:19:17.255Z</time>
      </trkpt>
      <trkpt lat="46.69359" lon="-1.0183">
        <ele>64.7</ele>
        <time>2026-03-12T13:19:19.466Z</time>
      </trkpt>
      <trkpt lat="46.69332" lon="-1.01831">
        <ele>65.1</ele>
        <time>2026-03-12T13:19:24.715Z</time>
      </trkpt>
      <trkpt lat="46.69321" lon="-1.01829">
        <ele>65.7</ele>
        <time>2026-03-12T13:19:28.133Z</time>
      </trkpt>
      <trkpt lat="46.69242" lon="-1.01796">
        <ele>71</ele>
        <time>2026-03-12T13:19:57.195Z</time>
      </trkpt>
      <trkpt lat="46.69203" lon="-1.01785">
        <ele>73.9</ele>
        <time>2026-03-12T13:20:12.960Z</time>
      </trkpt>
      <trkpt lat="46.69163" lon="-1.01775">
        <ele>76.7</ele>
        <time>2026-03-12T13:20:28.210Z</time>
      </trkpt>
      <trkpt lat="46.69151" lon="-1.01766">
        <ele>76.8</ele>
        <time>2026-03-12T13:20:30.642Z</time>
      </trkpt>
      <trkpt lat="46.69149" lon="-1.01761">
        <ele>76.9</ele>
        <time>2026-03-12T13:20:31.505Z</time>
      </trkpt>
      <trkpt lat="46.69149" lon="-1.01753">
        <ele>77</ele>
        <time>2026-03-12T13:20:32.611Z</time>
      </trkpt>
      <trkpt lat="46.69174" lon="-1.01625">
        <ele>76.2</ele>
        <time>2026-03-12T13:20:46.724Z</time>
      </trkpt>
      <trkpt lat="46.69191" lon="-1.01531">
        <ele>72.9</ele>
        <time>2026-03-12T13:20:54.212Z</time>
      </trkpt>
      <trkpt lat="46.69192" lon="-1.01513">
        <ele>72.2</ele>
        <time>2026-03-12T13:20:55.540Z</time>
      </trkpt>
      <trkpt lat="46.69188" lon="-1.01479">
        <ele>71.3</ele>
        <time>2026-03-12T13:20:58.422Z</time>
      </trkpt>
      <trkpt lat="46.69174" lon="-1.01434">
        <ele>70.4</ele>
        <time>2026-03-12T13:21:02.929Z</time>
      </trkpt>
      <trkpt lat="46.69155" lon="-1.01396">
        <ele>69.4</ele>
        <time>2026-03-12T13:21:07.072Z</time>
      </trkpt>
      <trkpt lat="46.69132" lon="-1.01361">
        <ele>68.2</ele>
        <time>2026-03-12T13:21:11.180Z</time>
      </trkpt>
      <trkpt lat="46.69117" lon="-1.01325">
        <ele>67.4</ele>
        <time>2026-03-12T13:21:14.988Z</time>
      </trkpt>
      <trkpt lat="46.69094" lon="-1.01265">
        <ele>66.5</ele>
        <time>2026-03-12T13:21:21.652Z</time>
      </trkpt>
      <trkpt lat="46.69084" lon="-1.01253">
        <ele>66.1</ele>
        <time>2026-03-12T13:21:23.317Z</time>
      </trkpt>
      <trkpt lat="46.69018" lon="-1.01205">
        <ele>65.6</ele>
        <time>2026-03-12T13:21:34.926Z</time>
      </trkpt>
      <trkpt lat="46.68974" lon="-1.01168">
        <ele>67.9</ele>
        <time>2026-03-12T13:21:48.923Z</time>
      </trkpt>
      <trkpt lat="46.68962" lon="-1.0116">
        <ele>68.7</ele>
        <time>2026-03-12T13:21:53.355Z</time>
      </trkpt>
      <trkpt lat="46.68943" lon="-1.01154">
        <ele>70</ele>
        <time>2026-03-12T13:22:00.454Z</time>
      </trkpt>
      <trkpt lat="46.68879" lon="-1.01149">
        <ele>73</ele>
        <time>2026-03-12T13:22:18.456Z</time>
      </trkpt>
      <trkpt lat="46.68824" lon="-1.01129">
        <ele>74.2</ele>
        <time>2026-03-12T13:22:30.245Z</time>
      </trkpt>
      <trkpt lat="46.68806" lon="-1.0112">
        <ele>74</ele>
        <time>2026-03-12T13:22:33.141Z</time>
      </trkpt>
      <trkpt lat="46.68804" lon="-1.0105">
        <ele>71.6</ele>
        <time>2026-03-12T13:22:38.522Z</time>
      </trkpt>
      <trkpt lat="46.688" lon="-1.01013">
        <ele>70.1</ele>
        <time>2026-03-12T13:22:41.243Z</time>
      </trkpt>
      <trkpt lat="46.68775" lon="-1.0095">
        <ele>68.5</ele>
        <time>2026-03-12T13:22:47.604Z</time>
      </trkpt>
      <trkpt lat="46.6875" lon="-1.00903">
        <ele>66.5</ele>
        <time>2026-03-12T13:22:52.200Z</time>
      </trkpt>
      <trkpt lat="46.68741" lon="-1.00882">
        <ele>66</ele>
        <time>2026-03-12T13:22:54.408Z</time>
      </trkpt>
      <trkpt lat="46.68708" lon="-1.00786">
        <ele>63.8</ele>
        <time>2026-03-12T13:23:03.952Z</time>
      </trkpt>
      <trkpt lat="46.68666" lon="-1.00711">
        <ele>62.6</ele>
        <time>2026-03-12T13:23:13.421Z</time>
      </trkpt>
      <trkpt lat="46.68633" lon="-1.00619">
        <ele>62.1</ele>
        <time>2026-03-12T13:23:24.606Z</time>
      </trkpt>
      <trkpt lat="46.68624" lon="-1.00584">
        <ele>62.1</ele>
        <time>2026-03-12T13:23:28.905Z</time>
      </trkpt>
      <trkpt lat="46.68621" lon="-1.00552">
        <ele>62.9</ele>
        <time>2026-03-12T13:23:34.366Z</time>
      </trkpt>
      <trkpt lat="46.68618" lon="-1.00466">
        <ele>63.7</ele>
        <time>2026-03-12T13:23:45.695Z</time>
      </trkpt>
      <trkpt lat="46.68611" lon="-1.00435">
        <ele>63.8</ele>
        <time>2026-03-12T13:23:49.613Z</time>
      </trkpt>
      <trkpt lat="46.68555" lon="-1.00323">
        <ele>61.8</ele>
        <time>2026-03-12T13:24:02.837Z</time>
      </trkpt>
      <trkpt lat="46.68523" lon="-1.00277">
        <ele>59.4</ele>
        <time>2026-03-12T13:24:07.753Z</time>
      </trkpt>
      <trkpt lat="46.68505" lon="-1.00248">
        <ele>57.7</ele>
        <time>2026-03-12T13:24:10.507Z</time>
      </trkpt>
      <trkpt lat="46.68474" lon="-1.00187">
        <ele>57.5</ele>
        <time>2026-03-12T13:24:18.929Z</time>
      </trkpt>
      <trkpt lat="46.68455" lon="-1.00155">
        <ele>57.6</ele>
        <time>2026-03-12T13:24:23.960Z</time>
      </trkpt>
      <trkpt lat="46.68422" lon="-1.00117">
        <ele>57.9</ele>
        <time>2026-03-12T13:24:31.516Z</time>
      </trkpt>
      <trkpt lat="46.68372" lon="-1.00063">
        <ele>58.1</ele>
        <time>2026-03-12T13:24:42.276Z</time>
      </trkpt>
      <trkpt lat="46.68365" lon="-1.00071">
        <ele>59.1</ele>
        <time>2026-03-12T13:24:48.019Z</time>
        <extensions>
          <visugpx:TrkExtension xmlns:visugpx="https://www.visugpx.com/editgpx/">
            <visugpx:node>30</visugpx:node>
            </visugpx:TrkExtension>
        </extensions>
      </trkpt>
      <trkpt lat="46.68372" lon="-1.00063">
        <ele>58.1</ele>
        <time>2026-03-12T13:24:48.913Z</time>
      </trkpt>
      <trkpt lat="46.68379" lon="-1.0005">
        <ele>56.8</ele>
        <time>2026-03-12T13:24:50.054Z</time>
      </trkpt>
      <trkpt lat="46.68397" lon="-0.9999">
        <ele>52</ele>
        <time>2026-03-12T13:24:54.572Z</time>
      </trkpt>
      <trkpt lat="46.68404" lon="-0.99976">
        <ele>50.5</ele>
        <time>2026-03-12T13:24:55.768Z</time>
      </trkpt>
      <trkpt lat="46.68476" lon="-0.99872">
        <ele>43.3</ele>
        <time>2026-03-12T13:25:05.963Z</time>
      </trkpt>
      <trkpt lat="46.68494" lon="-0.99842">
        <ele>42.3</ele>
        <time>2026-03-12T13:25:09.329Z</time>
      </trkpt>
      <trkpt lat="46.6854" lon="-0.99744">
        <ele>43.5</ele>
        <time>2026-03-12T13:25:25.147Z</time>
      </trkpt>
      <trkpt lat="46.68576" lon="-0.99665">
        <ele>44.9</ele>
        <time>2026-03-12T13:25:38.729Z</time>
      </trkpt>
      <trkpt lat="46.68595" lon="-0.99625">
        <ele>46.6</ele>
        <time>2026-03-12T13:25:48.607Z</time>
      </trkpt>
      <trkpt lat="46.68603" lon="-0.99616">
        <ele>47.3</ele>
        <time>2026-03-12T13:25:52.419Z</time>
      </trkpt>
      <trkpt lat="46.68612" lon="-0.99611">
        <ele>48</ele>
        <time>2026-03-12T13:25:56.224Z</time>
      </trkpt>
      <trkpt lat="46.68635" lon="-0.99603">
        <ele>49.5</ele>
        <time>2026-03-12T13:26:04.469Z</time>
      </trkpt>
      <trkpt lat="46.68644" lon="-0.99598">
        <ele>50.2</ele>
        <time>2026-03-12T13:26:08.274Z</time>
      </trkpt>
      <trkpt lat="46.68653" lon="-0.9959">
        <ele>50.9</ele>
        <time>2026-03-12T13:26:12.099Z</time>
      </trkpt>
      <trkpt lat="46.6867" lon="-0.99566">
        <ele>53.3</ele>
        <time>2026-03-12T13:26:25.719Z</time>
      </trkpt>
      <trkpt lat="46.68677" lon="-0.99563">
        <ele>54.1</ele>
        <time>2026-03-12T13:26:30.309Z</time>
      </trkpt>
      <trkpt lat="46.68683" lon="-0.99563">
        <ele>54.9</ele>
        <time>2026-03-12T13:26:34.619Z</time>
      </trkpt>
      <trkpt lat="46.6869" lon="-0.99565">
        <ele>55.5</ele>
        <time>2026-03-12T13:26:37.911Z</time>
      </trkpt>
      <trkpt lat="46.68725" lon="-0.99599">
        <ele>58</ele>
        <time>2026-03-12T13:26:51.816Z</time>
      </trkpt>
      <trkpt lat="46.68742" lon="-0.99602">
        <ele>59.8</ele>
        <time>2026-03-12T13:27:02.092Z</time>
      </trkpt>
      <trkpt lat="46.6875" lon="-0.99601">
        <ele>60.7</ele>
        <time>2026-03-12T13:27:07.260Z</time>
      </trkpt>
      <trkpt lat="46.68765" lon="-0.99595">
        <ele>62</ele>
        <time>2026-03-12T13:27:14.388Z</time>
      </trkpt>
      <trkpt lat="46.68784" lon="-0.99573">
        <ele>64.3</ele>
        <time>2026-03-12T13:27:27.271Z</time>
      </trkpt>
      <trkpt lat="46.68803" lon="-0.99544">
        <ele>66.4</ele>
        <time>2026-03-12T13:27:38.696Z</time>
      </trkpt>
      <trkpt lat="46.6882" lon="-0.99505">
        <ele>68.9</ele>
        <time>2026-03-12T13:27:52.323Z</time>
      </trkpt>
      <trkpt lat="46.68834" lon="-0.99478">
        <ele>70</ele>
        <time>2026-03-12T13:27:58.891Z</time>
      </trkpt>
      <trkpt lat="46.68848" lon="-0.99461">
        <ele>70.2</ele>
        <time>2026-03-12T13:28:02.295Z</time>
      </trkpt>
      <trkpt lat="46.68883" lon="-0.99436">
        <ele>70.9</ele>
        <time>2026-03-12T13:28:10.125Z</time>
      </trkpt>
      <trkpt lat="46.69055" lon="-0.99351">
        <ele>75</ele>
        <time>2026-03-12T13:28:48.480Z</time>
        <extensions>
          <visugpx:TrkExtension xmlns:visugpx="https://www.visugpx.com/editgpx/">
            <visugpx:node>31</visugpx:node>
            </visugpx:TrkExtension>
        </extensions>
      </trkpt>
      <trkpt lat="46.69065" lon="-0.99348">
        <ele>75.2</ele>
        <time>2026-03-12T13:28:50.567Z</time>
      </trkpt>
      <trkpt lat="46.69077" lon="-0.99347">
        <ele>75.5</ele>
        <time>2026-03-12T13:28:53.173Z</time>
      </trkpt>
      <trkpt lat="46.69104" lon="-0.99351">
        <ele>75.7</ele>
        <time>2026-03-12T13:28:58.062Z</time>
      </trkpt>
      <trkpt lat="46.69173" lon="-0.99386">
        <ele>76.2</ele>
        <time>2026-03-12T13:29:11.152Z</time>
      </trkpt>
      <trkpt lat="46.69239" lon="-0.9941">
        <ele>78.5</ele>
        <time>2026-03-12T13:29:27.470Z</time>
      </trkpt>
      <trkpt lat="46.69289" lon="-0.9942">
        <ele>80.4</ele>
        <time>2026-03-12T13:29:40.140Z</time>
      </trkpt>
      <trkpt lat="46.69412" lon="-0.99424">
        <ele>80.3</ele>
        <time>2026-03-12T13:30:00.606Z</time>
      </trkpt>
      <trkpt lat="46.69448" lon="-0.99432">
        <ele>80.2</ele>
        <time>2026-03-12T13:30:06.555Z</time>
      </trkpt>
      <trkpt lat="46.69479" lon="-0.99443">
        <ele>80.2</ele>
        <time>2026-03-12T13:30:11.904Z</time>
      </trkpt>
      <trkpt lat="46.69567" lon="-0.99472">
        <ele>78.1</ele>
        <time>2026-03-12T13:30:24.223Z</time>
      </trkpt>
      <trkpt lat="46.69603" lon="-0.99474">
        <ele>77.2</ele>
        <time>2026-03-12T13:30:29.075Z</time>
      </trkpt>
      <trkpt lat="46.69612" lon="-0.99471">
        <ele>77.1</ele>
        <time>2026-03-12T13:30:30.476Z</time>
      </trkpt>
      <trkpt lat="46.69655" lon="-0.99452">
        <ele>76.9</ele>
        <time>2026-03-12T13:30:37.701Z</time>
      </trkpt>
      <trkpt lat="46.69737" lon="-0.99403">
        <ele>77.2</ele>
        <time>2026-03-12T13:30:53.049Z</time>
      </trkpt>
      <trkpt lat="46.69779" lon="-0.99384">
        <ele>77.2</ele>
        <time>2026-03-12T13:31:00.421Z</time>
      </trkpt>
      <trkpt lat="46.69824" lon="-0.99367">
        <ele>78.2</ele>
        <time>2026-03-12T13:31:10.125Z</time>
      </trkpt>
      <trkpt lat="46.69907" lon="-0.99345">
        <ele>78.4</ele>
        <time>2026-03-12T13:31:24.592Z</time>
      </trkpt>
      <trkpt lat="46.6992" lon="-0.99339">
        <ele>78.5</ele>
        <time>2026-03-12T13:31:27.047Z</time>
      </trkpt>
      <trkpt lat="46.69958" lon="-0.99313">
        <ele>77.2</ele>
        <time>2026-03-12T13:31:32.439Z</time>
      </trkpt>
      <trkpt lat="46.70015" lon="-0.99256">
        <ele>75.6</ele>
        <time>2026-03-12T13:31:41.887Z</time>
      </trkpt>
      <trkpt lat="46.70088" lon="-0.99188">
        <ele>73.4</ele>
        <time>2026-03-12T13:31:53.514Z</time>
      </trkpt>
      <trkpt lat="46.7009" lon="-0.99184">
        <ele>73.4</ele>
        <time>2026-03-12T13:31:54.083Z</time>
      </trkpt>
      <trkpt lat="46.70115" lon="-0.99166">
        <ele>73.8</ele>
        <time>2026-03-12T13:31:59.476Z</time>
      </trkpt>
      <trkpt lat="46.70151" lon="-0.99153">
        <ele>74.8</ele>
        <time>2026-03-12T13:32:07.699Z</time>
      </trkpt>
      <trkpt lat="46.70167" lon="-0.9915">
        <ele>75.2</ele>
        <time>2026-03-12T13:32:11.191Z</time>
      </trkpt>
      <trkpt lat="46.702" lon="-0.99131">
        <ele>75.4</ele>
        <time>2026-03-12T13:32:17.472Z</time>
      </trkpt>
      <trkpt lat="46.70218" lon="-0.99116">
        <ele>75.7</ele>
        <time>2026-03-12T13:32:21.487Z</time>
      </trkpt>
      <trkpt lat="46.70245" lon="-0.99088">
        <ele>76.8</ele>
        <time>2026-03-12T13:32:29.379Z</time>
      </trkpt>
      <trkpt lat="46.70265" lon="-0.99063">
        <ele>76.5</ele>
        <time>2026-03-12T13:32:33.357Z</time>
      </trkpt>
      <trkpt lat="46.70277" lon="-0.99038">
        <ele>76.1</ele>
        <time>2026-03-12T13:32:36.315Z</time>
      </trkpt>
      <trkpt lat="46.70282" lon="-0.99025">
        <ele>75.9</ele>
        <time>2026-03-12T13:32:37.754Z</time>
      </trkpt>
      <trkpt lat="46.70295" lon="-0.98966">
        <ele>75.8</ele>
        <time>2026-03-12T13:32:44.722Z</time>
      </trkpt>
      <trkpt lat="46.703" lon="-0.98951">
        <ele>76</ele>
        <time>2026-03-12T13:32:47.008Z</time>
      </trkpt>
      <trkpt lat="46.70317" lon="-0.98919">
        <ele>76.6</ele>
        <time>2026-03-12T13:32:52.809Z</time>
      </trkpt>
      <trkpt lat="46.70332" lon="-0.98902">
        <ele>77</ele>
        <time>2026-03-12T13:32:56.756Z</time>
      </trkpt>
      <trkpt lat="46.70348" lon="-0.98888">
        <ele>77.1</ele>
        <time>2026-03-12T13:33:00.050Z</time>
        <extensions>
          <visugpx:TrkExtension xmlns:visugpx="https://www.visugpx.com/editgpx/">
            <visugpx:node>32</visugpx:node>
            </visugpx:TrkExtension>
        </extensions>
      </trkpt>
      <trkpt lat="46.70359" lon="-0.98882">
        <ele>77.1</ele>
        <time>2026-03-12T13:33:02.019Z</time>
      </trkpt>
      <trkpt lat="46.70405" lon="-0.98864">
        <ele>77.5</ele>
        <time>2026-03-12T13:33:10.686Z</time>
      </trkpt>
      <trkpt lat="46.70436" lon="-0.98846">
        <ele>78.3</ele>
        <time>2026-03-12T13:33:17.843Z</time>
      </trkpt>
      <trkpt lat="46.70503" lon="-0.9877">
        <ele>80.2</ele>
        <time>2026-03-12T13:33:35.732Z</time>
      </trkpt>
      <trkpt lat="46.70524" lon="-0.9875">
        <ele>81.7</ele>
        <time>2026-03-12T13:33:44.064Z</time>
      </trkpt>
      <trkpt lat="46.70538" lon="-0.98741">
        <ele>82.9</ele>
        <time>2026-03-12T13:33:50.602Z</time>
      </trkpt>
      <trkpt lat="46.70583" lon="-0.98738">
        <ele>86</ele>
        <time>2026-03-12T13:34:07.490Z</time>
      </trkpt>
      <trkpt lat="46.70628" lon="-0.98721">
        <ele>87.4</ele>
        <time>2026-03-12T13:34:18.174Z</time>
      </trkpt>
      <trkpt lat="46.70633" lon="-0.98735">
        <ele>87.4</ele>
        <time>2026-03-12T13:34:19.988Z</time>
      </trkpt>
      <trkpt lat="46.70644" lon="-0.98742">
        <ele>87.6</ele>
        <time>2026-03-12T13:34:22.366Z</time>
      </trkpt>
      <trkpt lat="46.70651" lon="-0.98743">
        <ele>87.8</ele>
        <time>2026-03-12T13:34:23.952Z</time>
      </trkpt>
      <trkpt lat="46.70658" lon="-0.98742">
        <ele>88</ele>
        <time>2026-03-12T13:34:25.538Z</time>
      </trkpt>
      <trkpt lat="46.70681" lon="-0.98734">
        <ele>87.8</ele>
        <time>2026-03-12T13:34:29.204Z</time>
      </trkpt>
      <trkpt lat="46.70688" lon="-0.98729">
        <ele>87.7</ele>
        <time>2026-03-12T13:34:30.366Z</time>
      </trkpt>
      <trkpt lat="46.707" lon="-0.98726">
        <ele>87.4</ele>
        <time>2026-03-12T13:34:32.010Z</time>
      </trkpt>
      <trkpt lat="46.70732" lon="-0.98709">
        <ele>87.4</ele>
        <time>2026-03-12T13:34:37.720Z</time>
      </trkpt>
      <trkpt lat="46.70754" lon="-0.98701">
        <ele>87.2</ele>
        <time>2026-03-12T13:34:41.223Z</time>
      </trkpt>
      <trkpt lat="46.7078" lon="-0.98697">
        <ele>85.2</ele>
        <time>2026-03-12T13:34:43.853Z</time>
      </trkpt>
      <trkpt lat="46.70825" lon="-0.98697">
        <ele>81.3</ele>
        <time>2026-03-12T13:34:48.379Z</time>
      </trkpt>
      <trkpt lat="46.70843" lon="-0.98687">
        <ele>80.7</ele>
        <time>2026-03-12T13:34:50.850Z</time>
      </trkpt>
      <trkpt lat="46.70852" lon="-0.98677">
        <ele>80.7</ele>
        <time>2026-03-12T13:34:52.747Z</time>
      </trkpt>
      <trkpt lat="46.70874" lon="-0.98646">
        <ele>81.2</ele>
        <time>2026-03-12T13:34:58.789Z</time>
      </trkpt>
      <trkpt lat="46.70951" lon="-0.98526">
        <ele>84.5</ele>
        <time>2026-03-12T13:35:24.444Z</time>
      </trkpt>
      <trkpt lat="46.7098" lon="-0.98478">
        <ele>86</ele>
        <time>2026-03-12T13:35:35.014Z</time>
      </trkpt>
      <trkpt lat="46.70997" lon="-0.98446">
        <ele>86.7</ele>
        <time>2026-03-12T13:35:41.050Z</time>
      </trkpt>
      <trkpt lat="46.71007" lon="-0.98436">
        <ele>87.2</ele>
        <time>2026-03-12T13:35:44.229Z</time>
      </trkpt>
      <trkpt lat="46.71036" lon="-0.98419">
        <ele>88.4</ele>
        <time>2026-03-12T13:35:52.146Z</time>
      </trkpt>
      <trkpt lat="46.71092" lon="-0.98394">
        <ele>89.6</ele>
        <time>2026-03-12T13:36:04.236Z</time>
      </trkpt>
      <trkpt lat="46.71117" lon="-0.98387">
        <ele>89.8</ele>
        <time>2026-03-12T13:36:08.844Z</time>
      </trkpt>
      <trkpt lat="46.7113" lon="-0.98385">
        <ele>89.9</ele>
        <time>2026-03-12T13:36:11.205Z</time>
      </trkpt>
      <trkpt lat="46.71136" lon="-0.98387">
        <ele>89.9</ele>
        <time>2026-03-12T13:36:12.237Z</time>
      </trkpt>
      <trkpt lat="46.71141" lon="-0.98381">
        <ele>90</ele>
        <time>2026-03-12T13:36:13.503Z</time>
      </trkpt>
      <trkpt lat="46.71168" lon="-0.98371">
        <ele>90</ele>
        <time>2026-03-12T13:36:18.173Z</time>
      </trkpt>
      <trkpt lat="46.712" lon="-0.98355">
        <ele>89.1</ele>
        <time>2026-03-12T13:36:22.670Z</time>
      </trkpt>
      <trkpt lat="46.71232" lon="-0.98326">
        <ele>88.3</ele>
        <time>2026-03-12T13:36:27.902Z</time>
      </trkpt>
      <trkpt lat="46.71243" lon="-0.98314">
        <ele>87.9</ele>
        <time>2026-03-12T13:36:29.692Z</time>
      </trkpt>
      <trkpt lat="46.71256" lon="-0.98307">
        <ele>87.5</ele>
        <time>2026-03-12T13:36:31.502Z</time>
      </trkpt>
      <trkpt lat="46.71322" lon="-0.98267">
        <ele>84.6</ele>
        <time>2026-03-12T13:36:40.046Z</time>
      </trkpt>
      <trkpt lat="46.71387" lon="-0.98247">
        <ele>85.2</ele>
        <time>2026-03-12T13:36:52.212Z</time>
      </trkpt>
      <trkpt lat="46.71445" lon="-0.98234">
        <ele>85.3</ele>
        <time>2026-03-12T13:37:02.211Z</time>
      </trkpt>
      <trkpt lat="46.71534" lon="-0.98202">
        <ele>84.4</ele>
        <time>2026-03-12T13:37:16.250Z</time>
      </trkpt>
      <trkpt lat="46.71547" lon="-0.98192">
        <ele>84.5</ele>
        <time>2026-03-12T13:37:18.882Z</time>
      </trkpt>
      <trkpt lat="46.71575" lon="-0.98161">
        <ele>85.1</ele>
        <time>2026-03-12T13:37:25.878Z</time>
      </trkpt>
      <trkpt lat="46.71592" lon="-0.98132">
        <ele>85.9</ele>
        <time>2026-03-12T13:37:31.923Z</time>
      </trkpt>
      <trkpt lat="46.71669" lon="-0.98041">
        <ele>88.5</ele>
        <time>2026-03-12T13:37:53.719Z</time>
        <extensions>
          <visugpx:TrkExtension xmlns:visugpx="https://www.visugpx.com/editgpx/">
            <visugpx:node>33</visugpx:node>
            </visugpx:TrkExtension>
        </extensions>
      </trkpt>
      <trkpt lat="46.71699" lon="-0.98008">
        <ele>88</ele>
        <time>2026-03-12T13:37:59.300Z</time>
      </trkpt>
      <trkpt lat="46.71733" lon="-0.97982">
        <ele>88.1</ele>
        <time>2026-03-12T13:38:05.898Z</time>
      </trkpt>
      <trkpt lat="46.71792" lon="-0.9795">
        <ele>89.6</ele>
        <time>2026-03-12T13:38:19.377Z</time>
      </trkpt>
      <trkpt lat="46.7189" lon="-0.9789">
        <ele>92.1</ele>
        <time>2026-03-12T13:38:42.058Z</time>
      </trkpt>
      <trkpt lat="46.71961" lon="-0.97851">
        <ele>94.2</ele>
        <time>2026-03-12T13:38:59.017Z</time>
      </trkpt>
      <trkpt lat="46.71987" lon="-0.97842">
        <ele>94.7</ele>
        <time>2026-03-12T13:39:04.429Z</time>
      </trkpt>
      <trkpt lat="46.72015" lon="-0.97836">
        <ele>95</ele>
        <time>2026-03-12T13:39:09.695Z</time>
      </trkpt>
      <trkpt lat="46.72025" lon="-0.97833">
        <ele>95</ele>
        <time>2026-03-12T13:39:11.407Z</time>
      </trkpt>
      <trkpt lat="46.72116" lon="-0.97784">
        <ele>97.1</ele>
        <time>2026-03-12T13:39:31.686Z</time>
      </trkpt>
      <trkpt lat="46.72277" lon="-0.97706">
        <ele>102.7</ele>
        <time>2026-03-12T13:40:12.004Z</time>
      </trkpt>
      <trkpt lat="46.72314" lon="-0.97686">
        <ele>103.7</ele>
        <time>2026-03-12T13:40:20.596Z</time>
      </trkpt>
      <trkpt lat="46.72328" lon="-0.97676">
        <ele>103.9</ele>
        <time>2026-03-12T13:40:23.564Z</time>
      </trkpt>
      <trkpt lat="46.72341" lon="-0.97664">
        <ele>103.9</ele>
        <time>2026-03-12T13:40:26.143Z</time>
      </trkpt>
      <trkpt lat="46.72368" lon="-0.9763">
        <ele>102.9</ele>
        <time>2026-03-12T13:40:30.831Z</time>
      </trkpt>
      <trkpt lat="46.72402" lon="-0.97596">
        <ele>101.6</ele>
        <time>2026-03-12T13:40:36.103Z</time>
      </trkpt>
      <trkpt lat="46.72458" lon="-0.9752">
        <ele>100</ele>
        <time>2026-03-12T13:40:46.751Z</time>
      </trkpt>
      <trkpt lat="46.72474" lon="-0.97502">
        <ele>99.7</ele>
        <time>2026-03-12T13:40:49.712Z</time>
      </trkpt>
      <trkpt lat="46.72496" lon="-0.97481">
        <ele>99.1</ele>
        <time>2026-03-12T13:40:53.316Z</time>
      </trkpt>
      <trkpt lat="46.72512" lon="-0.97463">
        <ele>98.2</ele>
        <time>2026-03-12T13:40:55.664Z</time>
      </trkpt>
      <trkpt lat="46.72526" lon="-0.9744">
        <ele>97.3</ele>
        <time>2026-03-12T13:40:58.147Z</time>
      </trkpt>
      <trkpt lat="46.72594" lon="-0.97314">
        <ele>96.3</ele>
        <time>2026-03-12T13:41:15.091Z</time>
      </trkpt>
      <trkpt lat="46.7266" lon="-0.97219">
        <ele>99.5</ele>
        <time>2026-03-12T13:41:37.517Z</time>
      </trkpt>
      <trkpt lat="46.72685" lon="-0.97187">
        <ele>100.6</ele>
        <time>2026-03-12T13:41:45.428Z</time>
      </trkpt>
      <trkpt lat="46.72717" lon="-0.97151">
        <ele>101</ele>
        <time>2026-03-12T13:41:52.893Z</time>
      </trkpt>
      <trkpt lat="46.72725" lon="-0.97163">
        <ele>101</ele>
        <time>2026-03-12T13:41:54.817Z</time>
      </trkpt>
      <trkpt lat="46.72749" lon="-0.97184">
        <ele>100.8</ele>
        <time>2026-03-12T13:41:59.207Z</time>
      </trkpt>
      <trkpt lat="46.72808" lon="-0.97225">
        <ele>98.7</ele>
        <time>2026-03-12T13:42:07.527Z</time>
      </trkpt>
      <trkpt lat="46.72851" lon="-0.97252">
        <ele>97.6</ele>
        <time>2026-03-12T13:42:13.908Z</time>
      </trkpt>
      <trkpt lat="46.7289" lon="-0.97273">
        <ele>97</ele>
        <time>2026-03-12T13:42:20.022Z</time>
      </trkpt>
      <trkpt lat="46.72913" lon="-0.97279">
        <ele>96.8</ele>
        <time>2026-03-12T13:42:23.641Z</time>
      </trkpt>
      <trkpt lat="46.72923" lon="-0.97281">
        <ele>96.8</ele>
        <time>2026-03-12T13:42:25.333Z</time>
      </trkpt>
      <trkpt lat="46.72942" lon="-0.97277">
        <ele>97</ele>
        <time>2026-03-12T13:42:28.899Z</time>
      </trkpt>
      <trkpt lat="46.72951" lon="-0.97273">
        <ele>97</ele>
        <time>2026-03-12T13:42:30.476Z</time>
      </trkpt>
      <trkpt lat="46.72961" lon="-0.97266">
        <ele>96.9</ele>
        <time>2026-03-12T13:42:32.187Z</time>
      </trkpt>
      <trkpt lat="46.73024" lon="-0.9724">
        <ele>96.8</ele>
        <time>2026-03-12T13:42:43.005Z</time>
      </trkpt>
      <trkpt lat="46.73053" lon="-0.97239">
        <ele>97.2</ele>
        <time>2026-03-12T13:42:48.583Z</time>
      </trkpt>
      <trkpt lat="46.73063" lon="-0.97241">
        <ele>97.4</ele>
        <time>2026-03-12T13:42:50.651Z</time>
      </trkpt>
      <trkpt lat="46.73077" lon="-0.97249">
        <ele>97.9</ele>
        <time>2026-03-12T13:42:54.235Z</time>
      </trkpt>
      <trkpt lat="46.73089" lon="-0.97255">
        <ele>98</ele>
        <time>2026-03-12T13:42:56.532Z</time>
      </trkpt>
      <trkpt lat="46.73116" lon="-0.97257">
        <ele>97.8</ele>
        <time>2026-03-12T13:43:00.763Z</time>
      </trkpt>
      <trkpt lat="46.7315" lon="-0.97262">
        <ele>97.6</ele>
        <time>2026-03-12T13:43:06.187Z</time>
      </trkpt>
      <trkpt lat="46.7318" lon="-0.9726">
        <ele>97</ele>
        <time>2026-03-12T13:43:10.401Z</time>
      </trkpt>
      <trkpt lat="46.73258" lon="-0.97247">
        <ele>94.7</ele>
        <time>2026-03-12T13:43:20.618Z</time>
      </trkpt>
      <trkpt lat="46.73274" lon="-0.97241">
        <ele>94.1</ele>
        <time>2026-03-12T13:43:22.656Z</time>
      </trkpt>
      <trkpt lat="46.73294" lon="-0.97237">
        <ele>93.4</ele>
        <time>2026-03-12T13:43:25.177Z</time>
      </trkpt>
      <trkpt lat="46.73348" lon="-0.97216">
        <ele>91.3</ele>
        <time>2026-03-12T13:43:32.006Z</time>
      </trkpt>
      <trkpt lat="46.73435" lon="-0.9716">
        <ele>89.6</ele>
        <time>2026-03-12T13:43:45.585Z</time>
      </trkpt>
      <trkpt lat="46.73474" lon="-0.97134">
        <ele>88.1</ele>
        <time>2026-03-12T13:43:50.927Z</time>
      </trkpt>
      <trkpt lat="46.73481" lon="-0.97131">
        <ele>88</ele>
        <time>2026-03-12T13:43:52.007Z</time>
      </trkpt>
      <trkpt lat="46.73498" lon="-0.97131">
        <ele>87.8</ele>
        <time>2026-03-12T13:43:54.566Z</time>
      </trkpt>
      <trkpt lat="46.73548" lon="-0.97141">
        <ele>87.7</ele>
        <time>2026-03-12T13:44:02.869Z</time>
      </trkpt>
      <trkpt lat="46.73559" lon="-0.97141">
        <ele>87.6</ele>
        <time>2026-03-12T13:44:04.565Z</time>
      </trkpt>
      <trkpt lat="46.73569" lon="-0.9714">
        <ele>87.5</ele>
        <time>2026-03-12T13:44:06.098Z</time>
      </trkpt>
      <trkpt lat="46.73603" lon="-0.97127">
        <ele>87.6</ele>
        <time>2026-03-12T13:44:12.153Z</time>
        <extensions>
          <visugpx:TrkExtension xmlns:visugpx="https://www.visugpx.com/editgpx/">
            <visugpx:node>34</visugpx:node>
            </visugpx:TrkExtension>
        </extensions>
      </trkpt>
      <trkpt lat="46.73645" lon="-0.97112">
        <ele>88.7</ele>
        <time>2026-03-12T13:44:21.579Z</time>
      </trkpt>
      <trkpt lat="46.73658" lon="-0.97109">
        <ele>89</ele>
        <time>2026-03-12T13:44:24.365Z</time>
      </trkpt>
      <trkpt lat="46.73675" lon="-0.97108">
        <ele>89.2</ele>
        <time>2026-03-12T13:44:27.569Z</time>
      </trkpt>
      <trkpt lat="46.73692" lon="-0.9711">
        <ele>88.9</ele>
        <time>2026-03-12T13:44:30.010Z</time>
      </trkpt>
      <trkpt lat="46.73743" lon="-0.97141">
        <ele>88.1</ele>
        <time>2026-03-12T13:44:38.132Z</time>
      </trkpt>
      <trkpt lat="46.73775" lon="-0.97145">
        <ele>86.7</ele>
        <time>2026-03-12T13:44:41.890Z</time>
      </trkpt>
      <trkpt lat="46.73802" lon="-0.97152">
        <ele>85.4</ele>
        <time>2026-03-12T13:44:45.014Z</time>
      </trkpt>
      <trkpt lat="46.73822" lon="-0.97152">
        <ele>84.4</ele>
        <time>2026-03-12T13:44:47.252Z</time>
      </trkpt>
      <trkpt lat="46.73845" lon="-0.97149">
        <ele>83.7</ele>
        <time>2026-03-12T13:44:50.234Z</time>
      </trkpt>
      <trkpt lat="46.73887" lon="-0.97155">
        <ele>83.6</ele>
        <time>2026-03-12T13:44:57.152Z</time>
      </trkpt>
      <trkpt lat="46.73893" lon="-0.97159">
        <ele>83.7</ele>
        <time>2026-03-12T13:44:58.439Z</time>
      </trkpt>
      <trkpt lat="46.73896" lon="-0.97165">
        <ele>83.9</ele>
        <time>2026-03-12T13:44:59.742Z</time>
      </trkpt>
      <trkpt lat="46.73898" lon="-0.97175">
        <ele>84.2</ele>
        <time>2026-03-12T13:45:01.632Z</time>
      </trkpt>
      <trkpt lat="46.73902" lon="-0.97227">
        <ele>85.2</ele>
        <time>2026-03-12T13:45:09.667Z</time>
      </trkpt>
      <trkpt lat="46.73906" lon="-0.97242">
        <ele>85.6</ele>
        <time>2026-03-12T13:45:12.391Z</time>
      </trkpt>
      <trkpt lat="46.73916" lon="-0.97266">
        <ele>86</ele>
        <time>2026-03-12T13:45:16.377Z</time>
      </trkpt>
      <trkpt lat="46.73928" lon="-0.97284">
        <ele>86.3</ele>
        <time>2026-03-12T13:45:19.815Z</time>
      </trkpt>
      <trkpt lat="46.73939" lon="-0.97294">
        <ele>86.5</ele>
        <time>2026-03-12T13:45:22.350Z</time>
      </trkpt>
      <trkpt lat="46.73957" lon="-0.97318">
        <ele>87</ele>
        <time>2026-03-12T13:45:27.385Z</time>
      </trkpt>
      <trkpt lat="46.73968" lon="-0.97328">
        <ele>87.2</ele>
        <time>2026-03-12T13:45:29.920Z</time>
      </trkpt>
      <trkpt lat="46.73971" lon="-0.97329">
        <ele>87.3</ele>
        <time>2026-03-12T13:45:30.647Z</time>
      </trkpt>
      <trkpt lat="46.73979" lon="-0.97326">
        <ele>87.5</ele>
        <time>2026-03-12T13:45:32.423Z</time>
      </trkpt>
      <trkpt lat="46.73997" lon="-0.97305">
        <ele>87.9</ele>
        <time>2026-03-12T13:45:37.024Z</time>
      </trkpt>
      <trkpt lat="46.74023" lon="-0.97242">
        <ele>88.6</ele>
        <time>2026-03-12T13:45:46.724Z</time>
      </trkpt>
      <trkpt lat="46.74027" lon="-0.97235">
        <ele>88.7</ele>
        <time>2026-03-12T13:45:47.954Z</time>
      </trkpt>
      <trkpt lat="46.74032" lon="-0.97233">
        <ele>88.9</ele>
        <time>2026-03-12T13:45:49.270Z</time>
      </trkpt>
      <trkpt lat="46.74037" lon="-0.97233">
        <ele>89</ele>
        <time>2026-03-12T13:45:50.296Z</time>
      </trkpt>
      <trkpt lat="46.74043" lon="-0.97237">
        <ele>89.1</ele>
        <time>2026-03-12T13:45:51.583Z</time>
      </trkpt>
      <trkpt lat="46.74127" lon="-0.97291">
        <ele>92.1</ele>
        <time>2026-03-12T13:46:13.315Z</time>
      </trkpt>
      <trkpt lat="46.74134" lon="-0.97319">
        <ele>92.5</ele>
        <time>2026-03-12T13:46:17.490Z</time>
      </trkpt>
      <trkpt lat="46.74133" lon="-0.97348">
        <ele>92.5</ele>
        <time>2026-03-12T13:46:20.826Z</time>
      </trkpt>
      <trkpt lat="46.74127" lon="-0.97379">
        <ele>92.6</ele>
        <time>2026-03-12T13:46:24.692Z</time>
      </trkpt>
      <trkpt lat="46.74109" lon="-0.97431">
        <ele>93</ele>
        <time>2026-03-12T13:46:32.077Z</time>
      </trkpt>
      <trkpt lat="46.74098" lon="-0.97483">
        <ele>94.5</ele>
        <time>2026-03-12T13:46:41.735Z</time>
      </trkpt>
      <trkpt lat="46.741" lon="-0.97505">
        <ele>95.1</ele>
        <time>2026-03-12T13:46:45.636Z</time>
      </trkpt>
      <trkpt lat="46.74123" lon="-0.97603">
        <ele>97</ele>
        <time>2026-03-12T13:47:01.342Z</time>
        <extensions>
          <visugpx:TrkExtension xmlns:visugpx="https://www.visugpx.com/editgpx/">
            <visugpx:node>35</visugpx:node>
            </visugpx:TrkExtension>
        </extensions>
      </trkpt>
      <trkpt lat="46.74134" lon="-0.97667">
        <ele>98.6</ele>
        <time>2026-03-12T13:47:12.392Z</time>
      </trkpt>
      <trkpt lat="46.7413" lon="-0.97671">
        <ele>98.7</ele>
        <time>2026-03-12T13:47:13.395Z</time>
      </trkpt>
      <trkpt lat="46.74137" lon="-0.97708">
        <ele>99.9</ele>
        <time>2026-03-12T13:47:20.674Z</time>
      </trkpt>
      <trkpt lat="46.74144" lon="-0.9779">
        <ele>101.6</ele>
        <time>2026-03-12T13:47:33.675Z</time>
      </trkpt>
      <trkpt lat="46.74174" lon="-0.97926">
        <ele>101.1</ele>
        <time>2026-03-12T13:47:49.323Z</time>
      </trkpt>
      <trkpt lat="46.74181" lon="-0.97947">
        <ele>101.6</ele>
        <time>2026-03-12T13:47:53.049Z</time>
      </trkpt>
      <trkpt lat="46.74249" lon="-0.98129">
        <ele>104.1</ele>
        <time>2026-03-12T13:48:21.480Z</time>
      </trkpt>
      <trkpt lat="46.74266" lon="-0.98205">
        <ele>105</ele>
        <time>2026-03-12T13:48:32.309Z</time>
      </trkpt>
      <trkpt lat="46.74288" lon="-0.98261">
        <ele>105.1</ele>
        <time>2026-03-12T13:48:39.887Z</time>
      </trkpt>
      <trkpt lat="46.74341" lon="-0.9836">
        <ele>105.8</ele>
        <time>2026-03-12T13:48:55.512Z</time>
      </trkpt>
      <trkpt lat="46.74383" lon="-0.98441">
        <ele>104.4</ele>
        <time>2026-03-12T13:49:05.267Z</time>
      </trkpt>
      <trkpt lat="46.74475" lon="-0.98639">
        <ele>102.1</ele>
        <time>2026-03-12T13:49:29.460Z</time>
      </trkpt>
      <trkpt lat="46.7449" lon="-0.98666">
        <ele>102</ele>
        <time>2026-03-12T13:49:33.299Z</time>
      </trkpt>
      <trkpt lat="46.74507" lon="-0.98694">
        <ele>100.8</ele>
        <time>2026-03-12T13:49:36.231Z</time>
      </trkpt>
      <trkpt lat="46.74522" lon="-0.98714">
        <ele>99.8</ele>
        <time>2026-03-12T13:49:38.517Z</time>
      </trkpt>
      <trkpt lat="46.74581" lon="-0.98779">
        <ele>98.6</ele>
        <time>2026-03-12T13:49:49.222Z</time>
      </trkpt>
      <trkpt lat="46.74596" lon="-0.98801">
        <ele>98.6</ele>
        <time>2026-03-12T13:49:52.788Z</time>
      </trkpt>
      <trkpt lat="46.74611" lon="-0.98827">
        <ele>98.7</ele>
        <time>2026-03-12T13:49:56.857Z</time>
      </trkpt>
      <trkpt lat="46.74626" lon="-0.98862">
        <ele>98.8</ele>
        <time>2026-03-12T13:50:01.763Z</time>
      </trkpt>
      <trkpt lat="46.74641" lon="-0.98887">
        <ele>98.9</ele>
        <time>2026-03-12T13:50:05.746Z</time>
      </trkpt>
      <trkpt lat="46.74658" lon="-0.98909">
        <ele>99</ele>
        <time>2026-03-12T13:50:09.720Z</time>
      </trkpt>
      <trkpt lat="46.74686" lon="-0.98934">
        <ele>99.3</ele>
        <time>2026-03-12T13:50:15.738Z</time>
      </trkpt>
      <trkpt lat="46.74697" lon="-0.98941">
        <ele>99.5</ele>
        <time>2026-03-12T13:50:18.116Z</time>
        <extensions>
          <visugpx:TrkExtension xmlns:visugpx="https://www.visugpx.com/editgpx/">
            <visugpx:node>36</visugpx:node>
            </visugpx:TrkExtension>
        </extensions>
      </trkpt>
      <trkpt lat="46.7472" lon="-0.98959">
        <ele>99.9</ele>
        <time>2026-03-12T13:50:23.215Z</time>
      </trkpt>
      <trkpt lat="46.74836" lon="-0.99056">
        <ele>101.3</ele>
        <time>2026-03-12T13:50:48.060Z</time>
      </trkpt>
      <trkpt lat="46.74856" lon="-0.99078">
        <ele>100.5</ele>
        <time>2026-03-12T13:50:51.253Z</time>
      </trkpt>
      <trkpt lat="46.74976" lon="-0.99217">
        <ele>97.1</ele>
        <time>2026-03-12T13:51:12.359Z</time>
      </trkpt>
      <trkpt lat="46.75006" lon="-0.99248">
        <ele>96</ele>
        <time>2026-03-12T13:51:17.119Z</time>
      </trkpt>
      <trkpt lat="46.75036" lon="-0.99269">
        <ele>95.3</ele>
        <time>2026-03-12T13:51:21.747Z</time>
      </trkpt>
      <trkpt lat="46.75111" lon="-0.99313">
        <ele>94.9</ele>
        <time>2026-03-12T13:51:34.684Z</time>
      </trkpt>
      <trkpt lat="46.75133" lon="-0.99323">
        <ele>94.9</ele>
        <time>2026-03-12T13:51:38.547Z</time>
      </trkpt>
      <trkpt lat="46.75177" lon="-0.99338">
        <ele>94.7</ele>
        <time>2026-03-12T13:51:45.814Z</time>
      </trkpt>
      <trkpt lat="46.75201" lon="-0.99342">
        <ele>94.1</ele>
        <time>2026-03-12T13:51:49.071Z</time>
      </trkpt>
      <trkpt lat="46.7522" lon="-0.9934">
        <ele>93.6</ele>
        <time>2026-03-12T13:51:51.611Z</time>
      </trkpt>
      <trkpt lat="46.75238" lon="-0.99336">
        <ele>93.2</ele>
        <time>2026-03-12T13:51:54.124Z</time>
      </trkpt>
      <trkpt lat="46.75304" lon="-0.99295">
        <ele>92.4</ele>
        <time>2026-03-12T13:52:04.980Z</time>
      </trkpt>
      <trkpt lat="46.7531" lon="-0.99293">
        <ele>92.3</ele>
        <time>2026-03-12T13:52:05.871Z</time>
      </trkpt>
      <trkpt lat="46.75318" lon="-0.99293">
        <ele>92.2</ele>
        <time>2026-03-12T13:52:07.067Z</time>
      </trkpt>
      <trkpt lat="46.75337" lon="-0.99298">
        <ele>92.1</ele>
        <time>2026-03-12T13:52:10.151Z</time>
      </trkpt>
      <trkpt lat="46.7541" lon="-0.99336">
        <ele>93.8</ele>
        <time>2026-03-12T13:52:26.405Z</time>
      </trkpt>
      <trkpt lat="46.75459" lon="-0.99357">
        <ele>94.7</ele>
        <time>2026-03-12T13:52:36.628Z</time>
      </trkpt>
      <trkpt lat="46.75569" lon="-0.99396">
        <ele>95.9</ele>
        <time>2026-03-12T13:52:57.692Z</time>
      </trkpt>
      <trkpt lat="46.7561" lon="-0.99418">
        <ele>96.6</ele>
        <time>2026-03-12T13:53:06.290Z</time>
      </trkpt>
      <trkpt lat="46.75668" lon="-0.99452">
        <ele>98</ele>
        <time>2026-03-12T13:53:19.464Z</time>
      </trkpt>
      <trkpt lat="46.75697" lon="-0.99465">
        <ele>98.7</ele>
        <time>2026-03-12T13:53:25.906Z</time>
      </trkpt>
      <trkpt lat="46.75764" lon="-0.9948">
        <ele>100</ele>
        <time>2026-03-12T13:53:39.703Z</time>
      </trkpt>
      <trkpt lat="46.75785" lon="-0.99486">
        <ele>100.1</ele>
        <time>2026-03-12T13:53:43.456Z</time>
      </trkpt>
      <trkpt lat="46.75806" lon="-0.9949">
        <ele>100.1</ele>
        <time>2026-03-12T13:53:47.006Z</time>
      </trkpt>
      <trkpt lat="46.7583" lon="-0.99492">
        <ele>100.1</ele>
        <time>2026-03-12T13:53:51.036Z</time>
      </trkpt>
      <trkpt lat="46.75892" lon="-0.99456">
        <ele>100.9</ele>
        <time>2026-03-12T13:54:03.630Z</time>
      </trkpt>
      <trkpt lat="46.75935" lon="-0.9943">
        <ele>101.6</ele>
        <time>2026-03-12T13:54:12.697Z</time>
      </trkpt>
      <trkpt lat="46.75944" lon="-0.99426">
        <ele>102</ele>
        <time>2026-03-12T13:54:15.202Z</time>
      </trkpt>
      <trkpt lat="46.75947" lon="-0.99445">
        <ele>102</ele>
        <time>2026-03-12T13:54:17.441Z</time>
        <extensions>
          <visugpx:TrkExtension xmlns:visugpx="https://www.visugpx.com/editgpx/">
            <visugpx:node>37</visugpx:node>
            </visugpx:TrkExtension>
        </extensions>
      </trkpt>
      <trkpt lat="46.75944" lon="-0.99426">
        <ele>102</ele>
        <time>2026-03-12T13:54:19.681Z</time>
      </trkpt>
      <trkpt lat="46.75956" lon="-0.99417">
        <ele>102.4</ele>
        <time>2026-03-12T13:54:22.765Z</time>
      </trkpt>
      <trkpt lat="46.75966" lon="-0.99412">
        <ele>102.7</ele>
        <time>2026-03-12T13:54:25.147Z</time>
      </trkpt>
      <trkpt lat="46.76" lon="-0.994">
        <ele>103.6</ele>
        <time>2026-03-12T13:54:32.796Z</time>
      </trkpt>
      <trkpt lat="46.76047" lon="-0.99388">
        <ele>104.7</ele>
        <time>2026-03-12T13:54:42.926Z</time>
      </trkpt>
      <trkpt lat="46.76206" lon="-0.99332">
        <ele>109.5</ele>
        <time>2026-03-12T13:55:20.189Z</time>
      </trkpt>
      <trkpt lat="46.76249" lon="-0.99325">
        <ele>109.1</ele>
        <time>2026-03-12T13:55:26.849Z</time>
      </trkpt>
      <trkpt lat="46.76346" lon="-0.99322">
        <ele>110</ele>
        <time>2026-03-12T13:55:44.662Z</time>
      </trkpt>
      <trkpt lat="46.76482" lon="-0.9931">
        <ele>108.7</ele>
        <time>2026-03-12T13:56:05.580Z</time>
      </trkpt>
      <trkpt lat="46.76605" lon="-0.99298">
        <ele>105.3</ele>
        <time>2026-03-12T13:56:21.841Z</time>
      </trkpt>
      <trkpt lat="46.76619" lon="-0.99293">
        <ele>104.9</ele>
        <time>2026-03-12T13:56:23.739Z</time>
      </trkpt>
      <trkpt lat="46.76632" lon="-0.99285">
        <ele>104.6</ele>
        <time>2026-03-12T13:56:25.698Z</time>
      </trkpt>
      <trkpt lat="46.76645" lon="-0.99271">
        <ele>104.3</ele>
        <time>2026-03-12T13:56:27.991Z</time>
      </trkpt>
      <trkpt lat="46.76657" lon="-0.99254">
        <ele>104.2</ele>
        <time>2026-03-12T13:56:30.642Z</time>
      </trkpt>
      <trkpt lat="46.76716" lon="-0.99123">
        <ele>103.1</ele>
        <time>2026-03-12T13:56:47.027Z</time>
      </trkpt>
      <trkpt lat="46.76742" lon="-0.99096">
        <ele>102.9</ele>
        <time>2026-03-12T13:56:52.073Z</time>
      </trkpt>
      <trkpt lat="46.76764" lon="-0.99064">
        <ele>102.6</ele>
        <time>2026-03-12T13:56:56.835Z</time>
      </trkpt>
      <trkpt lat="46.76845" lon="-0.98922">
        <ele>102.9</ele>
        <time>2026-03-12T13:57:18.542Z</time>
      </trkpt>
      <trkpt lat="46.76867" lon="-0.98891">
        <ele>103.2</ele>
        <time>2026-03-12T13:57:24.186Z</time>
      </trkpt>
      <trkpt lat="46.76877" lon="-0.98883">
        <ele>103.2</ele>
        <time>2026-03-12T13:57:26.098Z</time>
      </trkpt>
      <trkpt lat="46.76894" lon="-0.98874">
        <ele>103.1</ele>
        <time>2026-03-12T13:57:28.977Z</time>
      </trkpt>
      <trkpt lat="46.77014" lon="-0.98808">
        <ele>103</ele>
        <time>2026-03-12T13:57:50.315Z</time>
      </trkpt>
      <trkpt lat="46.77039" lon="-0.98799">
        <ele>102.5</ele>
        <time>2026-03-12T13:57:53.945Z</time>
      </trkpt>
      <trkpt lat="46.77072" lon="-0.98792">
        <ele>101.8</ele>
        <time>2026-03-12T13:57:58.585Z</time>
      </trkpt>
      <trkpt lat="46.77092" lon="-0.98786">
        <ele>101.4</ele>
        <time>2026-03-12T13:58:01.459Z</time>
      </trkpt>
      <trkpt lat="46.77105" lon="-0.9878">
        <ele>101.2</ele>
        <time>2026-03-12T13:58:03.460Z</time>
      </trkpt>
      <trkpt lat="46.77118" lon="-0.98771">
        <ele>101</ele>
        <time>2026-03-12T13:58:05.586Z</time>
      </trkpt>
      <trkpt lat="46.7713" lon="-0.98756">
        <ele>100.9</ele>
        <time>2026-03-12T13:58:08.082Z</time>
      </trkpt>
      <trkpt lat="46.7714" lon="-0.98739">
        <ele>100.7</ele>
        <time>2026-03-12T13:58:10.367Z</time>
      </trkpt>
      <trkpt lat="46.77149" lon="-0.98713">
        <ele>100.8</ele>
        <time>2026-03-12T13:58:13.878Z</time>
      </trkpt>
      <trkpt lat="46.77169" lon="-0.98683">
        <ele>100.9</ele>
        <time>2026-03-12T13:58:18.849Z</time>
      </trkpt>
      <trkpt lat="46.77185" lon="-0.98661">
        <ele>102</ele>
        <time>2026-03-12T13:58:25.280Z</time>
      </trkpt>
      <trkpt lat="46.77224" lon="-0.98615">
        <ele>105</ele>
        <time>2026-03-12T13:58:41.943Z</time>
      </trkpt>
      <trkpt lat="46.77252" lon="-0.98586">
        <ele>107</ele>
        <time>2026-03-12T13:58:53.116Z</time>
      </trkpt>
      <trkpt lat="46.77299" lon="-0.98545">
        <ele>110.3</ele>
        <time>2026-03-12T13:59:11.418Z</time>
      </trkpt>
      <trkpt lat="46.77341" lon="-0.98498">
        <ele>113</ele>
        <time>2026-03-12T13:59:27.096Z</time>
      </trkpt>
      <trkpt lat="46.77351" lon="-0.9849">
        <ele>113</ele>
        <time>2026-03-12T13:59:29.008Z</time>
      </trkpt>
      <trkpt lat="46.77396" lon="-0.98471">
        <ele>113</ele>
        <time>2026-03-12T13:59:36.861Z</time>
      </trkpt>
      <trkpt lat="46.77461" lon="-0.98451">
        <ele>112.2</ele>
        <time>2026-03-12T13:59:46.836Z</time>
      </trkpt>
      <trkpt lat="46.77556" lon="-0.98415">
        <ele>111.3</ele>
        <time>2026-03-12T14:00:01.955Z</time>
      </trkpt>
      <trkpt lat="46.77586" lon="-0.984">
        <ele>110.9</ele>
        <time>2026-03-12T14:00:06.692Z</time>
      </trkpt>
      <trkpt lat="46.77635" lon="-0.98371">
        <ele>109.5</ele>
        <time>2026-03-12T14:00:13.728Z</time>
      </trkpt>
      <trkpt lat="46.77657" lon="-0.98361">
        <ele>108.9</ele>
        <time>2026-03-12T14:00:16.805Z</time>
      </trkpt>
      <trkpt lat="46.77685" lon="-0.98356">
        <ele>109.2</ele>
        <time>2026-03-12T14:00:22.056Z</time>
      </trkpt>
      <trkpt lat="46.77695" lon="-0.98356">
        <ele>109.4</ele>
        <time>2026-03-12T14:00:24.109Z</time>
      </trkpt>
      <trkpt lat="46.77719" lon="-0.98361">
        <ele>109.9</ele>
        <time>2026-03-12T14:00:29.121Z</time>
      </trkpt>
      <trkpt lat="46.77819" lon="-0.98399">
        <ele>113.3</ele>
        <time>2026-03-12T14:00:53.648Z</time>
      </trkpt>
      <trkpt lat="46.77835" lon="-0.98397">
        <ele>114</ele>
        <time>2026-03-12T14:00:57.982Z</time>
      </trkpt>
      <trkpt lat="46.7787" lon="-0.98387">
        <ele>115</ele>
        <time>2026-03-12T14:01:05.987Z</time>
      </trkpt>
      <trkpt lat="46.7793" lon="-0.98382">
        <ele>116.6</ele>
        <time>2026-03-12T14:01:19.262Z</time>
      </trkpt>
      <trkpt lat="46.78028" lon="-0.98358">
        <ele>116.9</ele>
        <time>2026-03-12T14:01:36.410Z</time>
      </trkpt>
      <trkpt lat="46.7806" lon="-0.98345">
        <ele>115.9</ele>
        <time>2026-03-12T14:01:40.706Z</time>
      </trkpt>
      <trkpt lat="46.78101" lon="-0.98321">
        <ele>114.4</ele>
        <time>2026-03-12T14:01:46.252Z</time>
      </trkpt>
      <trkpt lat="46.78134" lon="-0.98297">
        <ele>113.7</ele>
        <time>2026-03-12T14:01:51.467Z</time>
      </trkpt>
      <trkpt lat="46.78166" lon="-0.98263">
        <ele>113.7</ele>
        <time>2026-03-12T14:01:58.102Z</time>
      </trkpt>
      <trkpt lat="46.78188" lon="-0.98233">
        <ele>113.3</ele>
        <time>2026-03-12T14:02:02.573Z</time>
      </trkpt>
      <trkpt lat="46.78195" lon="-0.9822">
        <ele>113.2</ele>
        <time>2026-03-12T14:02:04.322Z</time>
        <extensions>
          <visugpx:TrkExtension xmlns:visugpx="https://www.visugpx.com/editgpx/">
            <visugpx:node>38</visugpx:node>
            </visugpx:TrkExtension>
        </extensions>
      </trkpt>
      <trkpt lat="46.78207" lon="-0.98186">
        <ele>113.3</ele>
        <time>2026-03-12T14:02:08.878Z</time>
      </trkpt>
      <trkpt lat="46.78214" lon="-0.98152">
        <ele>113.4</ele>
        <time>2026-03-12T14:02:13.118Z</time>
      </trkpt>
      <trkpt lat="46.78216" lon="-0.9811">
        <ele>113.3</ele>
        <time>2026-03-12T14:02:17.796Z</time>
      </trkpt>
      <trkpt lat="46.78219" lon="-0.98083">
        <ele>113.2</ele>
        <time>2026-03-12T14:02:20.784Z</time>
      </trkpt>
      <trkpt lat="46.78237" lon="-0.98017">
        <ele>113.6</ele>
        <time>2026-03-12T14:02:29.621Z</time>
      </trkpt>
      <trkpt lat="46.78266" lon="-0.97952">
        <ele>113</ele>
        <time>2026-03-12T14:02:37.651Z</time>
      </trkpt>
      <trkpt lat="46.78291" lon="-0.97906">
        <ele>113</ele>
        <time>2026-03-12T14:02:44.393Z</time>
      </trkpt>
      <trkpt lat="46.78363" lon="-0.97803">
        <ele>109.5</ele>
        <time>2026-03-12T14:02:56.974Z</time>
      </trkpt>
      <trkpt lat="46.78428" lon="-0.97728">
        <ele>107.4</ele>
        <time>2026-03-12T14:03:08.098Z</time>
      </trkpt>
      <trkpt lat="46.78459" lon="-0.97696">
        <ele>108.2</ele>
        <time>2026-03-12T14:03:15.984Z</time>
      </trkpt>
      <trkpt lat="46.78498" lon="-0.97673">
        <ele>108.9</ele>
        <time>2026-03-12T14:03:24.317Z</time>
      </trkpt>
      <trkpt lat="46.78554" lon="-0.97653">
        <ele>109.5</ele>
        <time>2026-03-12T14:03:35.024Z</time>
      </trkpt>
      <trkpt lat="46.78589" lon="-0.97636">
        <ele>110.4</ele>
        <time>2026-03-12T14:03:42.972Z</time>
      </trkpt>
      <trkpt lat="46.78614" lon="-0.97622">
        <ele>110.8</ele>
        <time>2026-03-12T14:03:48.182Z</time>
      </trkpt>
      <trkpt lat="46.78642" lon="-0.9761">
        <ele>111</ele>
        <time>2026-03-12T14:03:53.411Z</time>
      </trkpt>
      <trkpt lat="46.78667" lon="-0.97606">
        <ele>110.9</ele>
        <time>2026-03-12T14:03:57.473Z</time>
      </trkpt>
      <trkpt lat="46.78698" lon="-0.97613">
        <ele>110.1</ele>
        <time>2026-03-12T14:04:01.680Z</time>
      </trkpt>
      <trkpt lat="46.78715" lon="-0.9762">
        <ele>109.6</ele>
        <time>2026-03-12T14:04:03.996Z</time>
      </trkpt>
      <trkpt lat="46.78725" lon="-0.97621">
        <ele>109.4</ele>
        <time>2026-03-12T14:04:05.403Z</time>
      </trkpt>
      <trkpt lat="46.78736" lon="-0.97616">
        <ele>109.4</ele>
        <time>2026-03-12T14:04:07.334Z</time>
      </trkpt>
      <trkpt lat="46.78745" lon="-0.97607">
        <ele>109.5</ele>
        <time>2026-03-12T14:04:09.335Z</time>
      </trkpt>
      <trkpt lat="46.78759" lon="-0.97597">
        <ele>109.7</ele>
        <time>2026-03-12T14:04:12.302Z</time>
      </trkpt>
      <trkpt lat="46.78803" lon="-0.97597">
        <ele>109.6</ele>
        <time>2026-03-12T14:04:19.521Z</time>
      </trkpt>
      <trkpt lat="46.7887" lon="-0.97608">
        <ele>107.2</ele>
        <time>2026-03-12T14:04:27.883Z</time>
      </trkpt>
      <trkpt lat="46.78906" lon="-0.9762">
        <ele>105.1</ele>
        <time>2026-03-12T14:04:31.832Z</time>
      </trkpt>
      <trkpt lat="46.78937" lon="-0.97639">
        <ele>104.6</ele>
        <time>2026-03-12T14:04:36.757Z</time>
      </trkpt>
      <trkpt lat="46.79" lon="-0.9769">
        <ele>106</ele>
        <time>2026-03-12T14:04:51.459Z</time>
      </trkpt>
      <trkpt lat="46.79037" lon="-0.97715">
        <ele>107.6</ele>
        <time>2026-03-12T14:05:01.892Z</time>
      </trkpt>
      <trkpt lat="46.79045" lon="-0.97725">
        <ele>108</ele>
        <time>2026-03-12T14:05:04.547Z</time>
        <extensions>
          <visugpx:TrkExtension xmlns:visugpx="https://www.visugpx.com/editgpx/">
            <visugpx:node>39</visugpx:node>
            </visugpx:TrkExtension>
        </extensions>
      </trkpt>
      <trkpt lat="46.79054" lon="-0.97737">
        <ele>108.5</ele>
        <time>2026-03-12T14:05:07.733Z</time>
      </trkpt>
      <trkpt lat="46.79079" lon="-0.97658">
        <ele>108.7</ele>
        <time>2026-03-12T14:05:18.050Z</time>
      </trkpt>
      <trkpt lat="46.79115" lon="-0.97538">
        <ele>108.8</ele>
        <time>2026-03-12T14:05:33.249Z</time>
      </trkpt>
      <trkpt lat="46.7914" lon="-0.97443">
        <ele>108.2</ele>
        <time>2026-03-12T14:05:44.036Z</time>
      </trkpt>
      <trkpt lat="46.79156" lon="-0.97376">
        <ele>107.7</ele>
        <time>2026-03-12T14:05:51.445Z</time>
      </trkpt>
      <trkpt lat="46.79165" lon="-0.97305">
        <ele>107.6</ele>
        <time>2026-03-12T14:05:59.576Z</time>
      </trkpt>
      <trkpt lat="46.79228" lon="-0.97384">
        <ele>108.7</ele>
        <time>2026-03-12T14:06:15.452Z</time>
      </trkpt>
      <trkpt lat="46.79253" lon="-0.97419">
        <ele>109.1</ele>
        <time>2026-03-12T14:06:21.959Z</time>
      </trkpt>
      <trkpt lat="46.79308" lon="-0.97519">
        <ele>111</ele>
        <time>2026-03-12T14:06:40.316Z</time>
      </trkpt>
      <trkpt lat="46.79333" lon="-0.97575">
        <ele>112.8</ele>
        <time>2026-03-12T14:06:52.040Z</time>
      </trkpt>
      <trkpt lat="46.79346" lon="-0.97614">
        <ele>113.1</ele>
        <time>2026-03-12T14:06:57.538Z</time>
      </trkpt>
      <trkpt lat="46.79354" lon="-0.97653">
        <ele>113</ele>
        <time>2026-03-12T14:07:02.056Z</time>
      </trkpt>
      <trkpt lat="46.79358" lon="-0.97689">
        <ele>113</ele>
        <time>2026-03-12T14:07:06.242Z</time>
      </trkpt>
      <trkpt lat="46.79363" lon="-0.97762">
        <ele>112.9</ele>
        <time>2026-03-12T14:07:14.505Z</time>
      </trkpt>
      <trkpt lat="46.79378" lon="-0.97838">
        <ele>112.4</ele>
        <time>2026-03-12T14:07:22.842Z</time>
      </trkpt>
      <trkpt lat="46.79395" lon="-0.97893">
        <ele>111.5</ele>
        <time>2026-03-12T14:07:28.553Z</time>
      </trkpt>
      <trkpt lat="46.79414" lon="-0.97944">
        <ele>110.7</ele>
        <time>2026-03-12T14:07:34.123Z</time>
      </trkpt>
      <trkpt lat="46.7943" lon="-0.97978">
        <ele>110.1</ele>
        <time>2026-03-12T14:07:38.045Z</time>
      </trkpt>
      <trkpt lat="46.79456" lon="-0.98024">
        <ele>109.4</ele>
        <time>2026-03-12T14:07:43.913Z</time>
      </trkpt>
      <trkpt lat="46.79466" lon="-0.98038">
        <ele>109.1</ele>
        <time>2026-03-12T14:07:45.830Z</time>
      </trkpt>
      <trkpt lat="46.79536" lon="-0.98111">
        <ele>107.2</ele>
        <time>2026-03-12T14:07:57.689Z</time>
      </trkpt>
      <trkpt lat="46.79556" lon="-0.98136">
        <ele>106.5</ele>
        <time>2026-03-12T14:08:01.189Z</time>
      </trkpt>
      <trkpt lat="46.79575" lon="-0.98166">
        <ele>105.4</ele>
        <time>2026-03-12T14:08:04.564Z</time>
      </trkpt>
      <trkpt lat="46.79617" lon="-0.98252">
        <ele>101.8</ele>
        <time>2026-03-12T14:08:12.670Z</time>
      </trkpt>
      <trkpt lat="46.79636" lon="-0.98282">
        <ele>100.3</ele>
        <time>2026-03-12T14:08:15.727Z</time>
      </trkpt>
      <trkpt lat="46.79659" lon="-0.98311">
        <ele>97.7</ele>
        <time>2026-03-12T14:08:18.783Z</time>
      </trkpt>
      <trkpt lat="46.79682" lon="-0.98331">
        <ele>95.6</ele>
        <time>2026-03-12T14:08:21.475Z</time>
      </trkpt>
      <trkpt lat="46.79712" lon="-0.98351">
        <ele>94.3</ele>
        <time>2026-03-12T14:08:25.451Z</time>
      </trkpt>
      <trkpt lat="46.79755" lon="-0.98368">
        <ele>93.9</ele>
        <time>2026-03-12T14:08:32.325Z</time>
      </trkpt>
      <trkpt lat="46.79779" lon="-0.98371">
        <ele>94.2</ele>
        <time>2026-03-12T14:08:36.893Z</time>
      </trkpt>
      <trkpt lat="46.79804" lon="-0.98368">
        <ele>94.5</ele>
        <time>2026-03-12T14:08:41.626Z</time>
      </trkpt>
      <trkpt lat="46.79845" lon="-0.98353">
        <ele>95</ele>
        <time>2026-03-12T14:08:49.590Z</time>
      </trkpt>
      <trkpt lat="46.79842" lon="-0.98367">
        <ele>95.2</ele>
        <time>2026-03-12T14:08:51.650Z</time>
        <extensions>
          <visugpx:TrkExtension xmlns:visugpx="https://www.visugpx.com/editgpx/">
            <visugpx:node>40</visugpx:node>
            </visugpx:TrkExtension>
        </extensions>
      </trkpt>
      <trkpt lat="46.79848" lon="-0.98343">
        <ele>94.9</ele>
        <time>2026-03-12T14:08:54.163Z</time>
      </trkpt>
      <trkpt lat="46.79955" lon="-0.98028">
        <ele>97.6</ele>
        <time>2026-03-12T14:09:39.239Z</time>
      </trkpt>
      <trkpt lat="46.79959" lon="-0.98009">
        <ele>98</ele>
        <time>2026-03-12T14:09:42.341Z</time>
      </trkpt>
      <trkpt lat="46.79967" lon="-0.97787">
        <ele>95.5</ele>
        <time>2026-03-12T14:10:04.342Z</time>
      </trkpt>
      <trkpt lat="46.79968" lon="-0.97774">
        <ele>95.4</ele>
        <time>2026-03-12T14:10:05.697Z</time>
      </trkpt>
      <trkpt lat="46.79971" lon="-0.97768">
        <ele>95.4</ele>
        <time>2026-03-12T14:10:06.549Z</time>
      </trkpt>
      <trkpt lat="46.79967" lon="-0.97738">
        <ele>95.3</ele>
        <time>2026-03-12T14:10:09.903Z</time>
      </trkpt>
      <trkpt lat="46.79966" lon="-0.97611">
        <ele>97.5</ele>
        <time>2026-03-12T14:10:28.828Z</time>
      </trkpt>
      <trkpt lat="46.79967" lon="-0.97575">
        <ele>98.5</ele>
        <time>2026-03-12T14:10:35.239Z</time>
      </trkpt>
      <trkpt lat="46.79975" lon="-0.97502">
        <ele>99</ele>
        <time>2026-03-12T14:10:44.588Z</time>
      </trkpt>
      <trkpt lat="46.79996" lon="-0.97381">
        <ele>99.8</ele>
        <time>2026-03-12T14:11:00.290Z</time>
      </trkpt>
      <trkpt lat="46.80043" lon="-0.97067">
        <ele>100.2</ele>
        <time>2026-03-12T14:11:37.822Z</time>
      </trkpt>
      <trkpt lat="46.80056" lon="-0.96953">
        <ele>101.3</ele>
        <time>2026-03-12T14:11:53.053Z</time>
      </trkpt>
      <trkpt lat="46.80075" lon="-0.96846">
        <ele>100.7</ele>
        <time>2026-03-12T14:12:04.839Z</time>
      </trkpt>
      <trkpt lat="46.80099" lon="-0.96747">
        <ele>100.3</ele>
        <time>2026-03-12T14:12:16.282Z</time>
      </trkpt>
      <trkpt lat="46.8011" lon="-0.96712">
        <ele>99.9</ele>
        <time>2026-03-12T14:12:20.134Z</time>
        <extensions>
          <visugpx:TrkExtension xmlns:visugpx="https://www.visugpx.com/editgpx/">
            <visugpx:node>41</visugpx:node>
            </visugpx:TrkExtension>
        </extensions>
      </trkpt>
      <trkpt lat="46.80133" lon="-0.96658">
        <ele>99.5</ele>
        <time>2026-03-12T14:12:26.839Z</time>
      </trkpt>
      <trkpt lat="46.80177" lon="-0.96569">
        <ele>98.1</ele>
        <time>2026-03-12T14:12:37.503Z</time>
      </trkpt>
      <trkpt lat="46.80247" lon="-0.964">
        <ele>99.1</ele>
        <time>2026-03-12T14:13:01.864Z</time>
      </trkpt>
      <trkpt lat="46.80256" lon="-0.9639">
        <ele>99.6</ele>
        <time>2026-03-12T14:13:04.939Z</time>
      </trkpt>
      <trkpt lat="46.80267" lon="-0.96446">
        <ele>100.2</ele>
        <time>2026-03-12T14:13:12.708Z</time>
      </trkpt>
      <trkpt lat="46.80272" lon="-0.9646">
        <ele>100.6</ele>
        <time>2026-03-12T14:13:15.401Z</time>
      </trkpt>
      <trkpt lat="46.80357" lon="-0.96604">
        <ele>102.7</ele>
        <time>2026-03-12T14:13:41.049Z</time>
      </trkpt>
      <trkpt lat="46.80424" lon="-0.96687">
        <ele>104</ele>
        <time>2026-03-12T14:13:58.119Z</time>
      </trkpt>
      <trkpt lat="46.8046" lon="-0.9673">
        <ele>103.6</ele>
        <time>2026-03-12T14:14:05.318Z</time>
      </trkpt>
      <trkpt lat="46.80508" lon="-0.96765">
        <ele>102.8</ele>
        <time>2026-03-12T14:14:13.176Z</time>
      </trkpt>
      <trkpt lat="46.80532" lon="-0.96777">
        <ele>102.5</ele>
        <time>2026-03-12T14:14:16.992Z</time>
      </trkpt>
      <trkpt lat="46.80551" lon="-0.96791">
        <ele>102.2</ele>
        <time>2026-03-12T14:14:20.131Z</time>
      </trkpt>
      <trkpt lat="46.80563" lon="-0.96807">
        <ele>101.8</ele>
        <time>2026-03-12T14:14:22.325Z</time>
      </trkpt>
      <trkpt lat="46.8058" lon="-0.96842">
        <ele>100.9</ele>
        <time>2026-03-12T14:14:26.108Z</time>
        <extensions>
          <visugpx:TrkExtension xmlns:visugpx="https://www.visugpx.com/editgpx/">
            <visugpx:node>42</visugpx:node>
            </visugpx:TrkExtension>
        </extensions>
      </trkpt>
      <trkpt lat="46.80603" lon="-0.96896">
        <ele>101.1</ele>
        <time>2026-03-12T14:14:33.737Z</time>
      </trkpt>
      <trkpt lat="46.80625" lon="-0.96943">
        <ele>102</ele>
        <time>2026-03-12T14:14:42.015Z</time>
      </trkpt>
      <trkpt lat="46.80645" lon="-0.96967">
        <ele>102.9</ele>
        <time>2026-03-12T14:14:48.294Z</time>
      </trkpt>
      <trkpt lat="46.80691" lon="-0.97011">
        <ele>105.2</ele>
        <time>2026-03-12T14:15:02.814Z</time>
      </trkpt>
      <trkpt lat="46.80703" lon="-0.97025">
        <ele>105.9</ele>
        <time>2026-03-12T14:15:07.062Z</time>
      </trkpt>
      <trkpt lat="46.80709" lon="-0.97036">
        <ele>106.3</ele>
        <time>2026-03-12T14:15:09.595Z</time>
      </trkpt>
      <trkpt lat="46.80719" lon="-0.97055">
        <ele>106.9</ele>
        <time>2026-03-12T14:15:13.661Z</time>
      </trkpt>
      <trkpt lat="46.80737" lon="-0.97114">
        <ele>107.9</ele>
        <time>2026-03-12T14:15:23.003Z</time>
      </trkpt>
      <trkpt lat="46.80743" lon="-0.9713">
        <ele>108.1</ele>
        <time>2026-03-12T14:15:25.460Z</time>
      </trkpt>
      <trkpt lat="46.80784" lon="-0.9722">
        <ele>110</ele>
        <time>2026-03-12T14:15:41.634Z</time>
      </trkpt>
      <trkpt lat="46.80788" lon="-0.97234">
        <ele>110.3</ele>
        <time>2026-03-12T14:15:43.987Z</time>
      </trkpt>
      <trkpt lat="46.80796" lon="-0.97233">
        <ele>110.6</ele>
        <time>2026-03-12T14:15:45.996Z</time>
      </trkpt>
      <trkpt lat="46.8082" lon="-0.9724">
        <ele>111.5</ele>
        <time>2026-03-12T14:15:52.076Z</time>
      </trkpt>
      <trkpt lat="46.80838" lon="-0.97242">
        <ele>112.1</ele>
        <time>2026-03-12T14:15:56.378Z</time>
      </trkpt>
      <trkpt lat="46.80851" lon="-0.97237">
        <ele>112.2</ele>
        <time>2026-03-12T14:15:58.801Z</time>
      </trkpt>
      <trkpt lat="46.80862" lon="-0.97227">
        <ele>112.4</ele>
        <time>2026-03-12T14:16:01.335Z</time>
      </trkpt>
      <trkpt lat="46.8087" lon="-0.97224">
        <ele>112.6</ele>
        <time>2026-03-12T14:16:03.111Z</time>
      </trkpt>
      <trkpt lat="46.80896" lon="-0.97217">
        <ele>113</ele>
        <time>2026-03-12T14:16:08.266Z</time>
      </trkpt>
      <trkpt lat="46.81003" lon="-0.97203">
        <ele>116.7</ele>
        <time>2026-03-12T14:16:34.229Z</time>
      </trkpt>
      <trkpt lat="46.81011" lon="-0.97205">
        <ele>116.5</ele>
        <time>2026-03-12T14:16:35.325Z</time>
      </trkpt>
      <trkpt lat="46.81018" lon="-0.9721">
        <ele>116.3</ele>
        <time>2026-03-12T14:16:36.368Z</time>
      </trkpt>
      <trkpt lat="46.81023" lon="-0.97217">
        <ele>116.1</ele>
        <time>2026-03-12T14:16:37.272Z</time>
      </trkpt>
      <trkpt lat="46.81042" lon="-0.97258">
        <ele>114.9</ele>
        <time>2026-03-12T14:16:41.481Z</time>
      </trkpt>
      <trkpt lat="46.81059" lon="-0.97308">
        <ele>113.8</ele>
        <time>2026-03-12T14:16:46.474Z</time>
      </trkpt>
      <trkpt lat="46.81072" lon="-0.97316">
        <ele>113.5</ele>
        <time>2026-03-12T14:16:48.432Z</time>
      </trkpt>
      <trkpt lat="46.81099" lon="-0.97316">
        <ele>113.1</ele>
        <time>2026-03-12T14:16:52.390Z</time>
      </trkpt>
      <trkpt lat="46.81156" lon="-0.97335">
        <ele>111.2</ele>
        <time>2026-03-12T14:16:59.812Z</time>
      </trkpt>
      <trkpt lat="46.81193" lon="-0.97359">
        <ele>110.8</ele>
        <time>2026-03-12T14:17:06.008Z</time>
      </trkpt>
      <trkpt lat="46.81196" lon="-0.97359">
        <ele>110.9</ele>
        <time>2026-03-12T14:17:06.724Z</time>
      </trkpt>
      <trkpt lat="46.81211" lon="-0.97352">
        <ele>111.5</ele>
        <time>2026-03-12T14:17:10.699Z</time>
      </trkpt>
      <trkpt lat="46.81266" lon="-0.97284">
        <ele>114.9</ele>
        <time>2026-03-12T14:17:31.033Z</time>
      </trkpt>
      <trkpt lat="46.81308" lon="-0.97243">
        <ele>116.2</ele>
        <time>2026-03-12T14:17:42.080Z</time>
      </trkpt>
      <trkpt lat="46.81322" lon="-0.97222">
        <ele>116.7</ele>
        <time>2026-03-12T14:17:46.429Z</time>
      </trkpt>
      <trkpt lat="46.8135" lon="-0.97161">
        <ele>118</ele>
        <time>2026-03-12T14:17:57.438Z</time>
        <extensions>
          <visugpx:TrkExtension xmlns:visugpx="https://www.visugpx.com/editgpx/">
            <visugpx:node>43</visugpx:node>
            </visugpx:TrkExtension>
        </extensions>
      </trkpt>
      <trkpt lat="46.81361" lon="-0.9714">
        <ele>118.7</ele>
        <time>2026-03-12T14:18:02.038Z</time>
      </trkpt>
      <trkpt lat="46.81389" lon="-0.97098">
        <ele>119.5</ele>
        <time>2026-03-12T14:18:10.273Z</time>
      </trkpt>
      <trkpt lat="46.81464" lon="-0.9697">
        <ele>118.8</ele>
        <time>2026-03-12T14:18:28.542Z</time>
      </trkpt>
      <trkpt lat="46.8155" lon="-0.96852">
        <ele>116.5</ele>
        <time>2026-03-12T14:18:45.161Z</time>
      </trkpt>
      <trkpt lat="46.81558" lon="-0.96829">
        <ele>116.8</ele>
        <time>2026-03-12T14:18:48.672Z</time>
      </trkpt>
      <trkpt lat="46.81576" lon="-0.96741">
        <ele>119.3</ele>
        <time>2026-03-12T14:19:04.860Z</time>
      </trkpt>
      <trkpt lat="46.81585" lon="-0.96716">
        <ele>119.8</ele>
        <time>2026-03-12T14:19:09.094Z</time>
      </trkpt>
      <trkpt lat="46.81608" lon="-0.96663">
        <ele>121.8</ele>
        <time>2026-03-12T14:19:21.121Z</time>
      </trkpt>
      <trkpt lat="46.81621" lon="-0.96642">
        <ele>123</ele>
        <time>2026-03-12T14:19:27.743Z</time>
      </trkpt>
      <trkpt lat="46.81631" lon="-0.9663">
        <ele>123.6</ele>
        <time>2026-03-12T14:19:31.357Z</time>
      </trkpt>
      <trkpt lat="46.81641" lon="-0.96624">
        <ele>123.9</ele>
        <time>2026-03-12T14:19:33.776Z</time>
      </trkpt>
      <trkpt lat="46.81659" lon="-0.96619">
        <ele>124.1</ele>
        <time>2026-03-12T14:19:37.196Z</time>
      </trkpt>
      <trkpt lat="46.81669" lon="-0.96613">
        <ele>124.1</ele>
        <time>2026-03-12T14:19:39.008Z</time>
      </trkpt>
      <trkpt lat="46.81679" lon="-0.96606">
        <ele>123.7</ele>
        <time>2026-03-12T14:19:40.378Z</time>
      </trkpt>
      <trkpt lat="46.81685" lon="-0.96598">
        <ele>123.5</ele>
        <time>2026-03-12T14:19:41.475Z</time>
      </trkpt>
      <trkpt lat="46.81692" lon="-0.96586">
        <ele>123.4</ele>
        <time>2026-03-12T14:19:43.136Z</time>
      </trkpt>
      <trkpt lat="46.81698" lon="-0.96572">
        <ele>123.2</ele>
        <time>2026-03-12T14:19:44.753Z</time>
      </trkpt>
      <trkpt lat="46.81742" lon="-0.96401">
        <ele>121.4</ele>
        <time>2026-03-12T14:20:03.145Z</time>
      </trkpt>
      <trkpt lat="46.81753" lon="-0.96364">
        <ele>121</ele>
        <time>2026-03-12T14:20:07.203Z</time>
      </trkpt>
      <trkpt lat="46.81766" lon="-0.9634">
        <ele>121</ele>
        <time>2026-03-12T14:20:10.715Z</time>
        <extensions>
          <visugpx:TrkExtension xmlns:visugpx="https://www.visugpx.com/editgpx/">
            <visugpx:node>44</visugpx:node>
            </visugpx:TrkExtension>
        </extensions>
      </trkpt>
      <trkpt lat="46.81772" lon="-0.9633">
        <ele>121.1</ele>
        <time>2026-03-12T14:20:12.415Z</time>
      </trkpt>
      <trkpt lat="46.81825" lon="-0.9626">
        <ele>122</ele>
        <time>2026-03-12T14:20:25.983Z</time>
      </trkpt>
      <trkpt lat="46.81835" lon="-0.96245">
        <ele>121.9</ele>
        <time>2026-03-12T14:20:28.234Z</time>
      </trkpt>
      <trkpt lat="46.81844" lon="-0.96221">
        <ele>121.1</ele>
        <time>2026-03-12T14:20:30.439Z</time>
      </trkpt>
      <trkpt lat="46.81865" lon="-0.96158">
        <ele>119.3</ele>
        <time>2026-03-12T14:20:36.301Z</time>
      </trkpt>
      <trkpt lat="46.81872" lon="-0.96118">
        <ele>119.9</ele>
        <time>2026-03-12T14:20:42.181Z</time>
      </trkpt>
      <trkpt lat="46.8188" lon="-0.96074">
        <ele>120.7</ele>
        <time>2026-03-12T14:20:48.991Z</time>
      </trkpt>
      <trkpt lat="46.81886" lon="-0.9599">
        <ele>124.5</ele>
        <time>2026-03-12T14:21:09.777Z</time>
      </trkpt>
      <trkpt lat="46.81888" lon="-0.95981">
        <ele>124.8</ele>
        <time>2026-03-12T14:21:11.585Z</time>
      </trkpt>
      <trkpt lat="46.81892" lon="-0.95973">
        <ele>125</ele>
        <time>2026-03-12T14:21:13.133Z</time>
      </trkpt>
      <trkpt lat="46.81909" lon="-0.9595">
        <ele>125.1</ele>
        <time>2026-03-12T14:21:17.182Z</time>
      </trkpt>
      <trkpt lat="46.81914" lon="-0.95953">
        <ele>124.8</ele>
        <time>2026-03-12T14:21:17.765Z</time>
      </trkpt>
      <trkpt lat="46.81948" lon="-0.95957">
        <ele>121.2</ele>
        <time>2026-03-12T14:21:21.196Z</time>
      </trkpt>
      <trkpt lat="46.81965" lon="-0.9596">
        <ele>119.2</ele>
        <time>2026-03-12T14:21:22.918Z</time>
      </trkpt>
      <trkpt lat="46.82006" lon="-0.95973">
        <ele>114.7</ele>
        <time>2026-03-12T14:21:27.138Z</time>
      </trkpt>
      <trkpt lat="46.82016" lon="-0.95972">
        <ele>114.2</ele>
        <time>2026-03-12T14:21:28.261Z</time>
      </trkpt>
      <trkpt lat="46.82023" lon="-0.95971">
        <ele>113.8</ele>
        <time>2026-03-12T14:21:29.013Z</time>
      </trkpt>
      <trkpt lat="46.82045" lon="-0.95942">
        <ele>113</ele>
        <time>2026-03-12T14:21:32.939Z</time>
      </trkpt>
      <trkpt lat="46.8205" lon="-0.95937">
        <ele>112.6</ele>
        <time>2026-03-12T14:21:33.551Z</time>
      </trkpt>
      <trkpt lat="46.82056" lon="-0.95934">
        <ele>112.3</ele>
        <time>2026-03-12T14:21:34.274Z</time>
      </trkpt>
      <trkpt lat="46.82075" lon="-0.95932">
        <ele>110.8</ele>
        <time>2026-03-12T14:21:36.190Z</time>
      </trkpt>
      <trkpt lat="46.82089" lon="-0.95927">
        <ele>110.6</ele>
        <time>2026-03-12T14:21:38.320Z</time>
      </trkpt>
      <trkpt lat="46.82092" lon="-0.9592">
        <ele>110.9</ele>
        <time>2026-03-12T14:21:40.039Z</time>
      </trkpt>
      <trkpt lat="46.82093" lon="-0.95908">
        <ele>110.9</ele>
        <time>2026-03-12T14:21:41.426Z</time>
      </trkpt>
      <trkpt lat="46.82087" lon="-0.95845">
        <ele>110.3</ele>
        <time>2026-03-12T14:21:47.863Z</time>
      </trkpt>
      <trkpt lat="46.82088" lon="-0.95829">
        <ele>110.5</ele>
        <time>2026-03-12T14:21:50.077Z</time>
      </trkpt>
      <trkpt lat="46.82092" lon="-0.95817">
        <ele>111</ele>
        <time>2026-03-12T14:21:52.917Z</time>
      </trkpt>
      <trkpt lat="46.82097" lon="-0.95809">
        <ele>111.5</ele>
        <time>2026-03-12T14:21:55.645Z</time>
      </trkpt>
      <trkpt lat="46.82104" lon="-0.95804">
        <ele>112.1</ele>
        <time>2026-03-12T14:21:58.910Z</time>
      </trkpt>
      <trkpt lat="46.82155" lon="-0.95792">
        <ele>116.6</ele>
        <time>2026-03-12T14:22:23.731Z</time>
      </trkpt>
      <trkpt lat="46.82163" lon="-0.95777">
        <ele>117</ele>
        <time>2026-03-12T14:22:26.743Z</time>
      </trkpt>
      <trkpt lat="46.82198" lon="-0.95737">
        <ele>118.6</ele>
        <time>2026-03-12T14:22:37.682Z</time>
      </trkpt>
      <trkpt lat="46.82209" lon="-0.95727">
        <ele>119</ele>
        <time>2026-03-12T14:22:40.686Z</time>
      </trkpt>
      <trkpt lat="46.82222" lon="-0.95721">
        <ele>119.6</ele>
        <time>2026-03-12T14:22:44.384Z</time>
      </trkpt>
      <trkpt lat="46.82249" lon="-0.9571">
        <ele>121</ele>
        <time>2026-03-12T14:22:52.575Z</time>
      </trkpt>
      <trkpt lat="46.82279" lon="-0.957">
        <ele>121.9</ele>
        <time>2026-03-12T14:22:59.577Z</time>
      </trkpt>
      <trkpt lat="46.82315" lon="-0.95692">
        <ele>123.3</ele>
        <time>2026-03-12T14:23:08.807Z</time>
      </trkpt>
      <trkpt lat="46.8238" lon="-0.95688">
        <ele>125.1</ele>
        <time>2026-03-12T14:23:23.348Z</time>
      </trkpt>
      <trkpt lat="46.82421" lon="-0.95683">
        <ele>125.9</ele>
        <time>2026-03-12T14:23:31.746Z</time>
      </trkpt>
      <trkpt lat="46.8244" lon="-0.95684">
        <ele>125.5</ele>
        <time>2026-03-12T14:23:34.391Z</time>
      </trkpt>
      <trkpt lat="46.82459" lon="-0.95687">
        <ele>125.1</ele>
        <time>2026-03-12T14:23:37.051Z</time>
      </trkpt>
      <trkpt lat="46.82476" lon="-0.95694">
        <ele>124.8</ele>
        <time>2026-03-12T14:23:39.592Z</time>
      </trkpt>
      <trkpt lat="46.82516" lon="-0.95716">
        <ele>124.4</ele>
        <time>2026-03-12T14:23:46.164Z</time>
      </trkpt>
      <trkpt lat="46.82517" lon="-0.95698">
        <ele>124.2</ele>
        <time>2026-03-12T14:23:47.955Z</time>
        <extensions>
          <visugpx:TrkExtension xmlns:visugpx="https://www.visugpx.com/editgpx/">
            <visugpx:node>45</visugpx:node>
            </visugpx:TrkExtension>
        </extensions>
      </trkpt>
      <trkpt lat="46.82523" lon="-0.95637">
        <ele>124.3</ele>
        <time>2026-03-12T14:23:55.186Z</time>
      </trkpt>
      <trkpt lat="46.82531" lon="-0.95611">
        <ele>124.4</ele>
        <time>2026-03-12T14:23:58.622Z</time>
      </trkpt>
      <trkpt lat="46.82543" lon="-0.95591">
        <ele>124.4</ele>
        <time>2026-03-12T14:24:01.673Z</time>
      </trkpt>
      <trkpt lat="46.82647" lon="-0.95456">
        <ele>125.9</ele>
        <time>2026-03-12T14:24:27.605Z</time>
      </trkpt>
      <trkpt lat="46.82656" lon="-0.95441">
        <ele>126.4</ele>
        <time>2026-03-12T14:24:30.990Z</time>
      </trkpt>
      <trkpt lat="46.82674" lon="-0.95396">
        <ele>127.1</ele>
        <time>2026-03-12T14:24:38.284Z</time>
      </trkpt>
      <trkpt lat="46.82701" lon="-0.95298">
        <ele>126.9</ele>
        <time>2026-03-12T14:24:50.091Z</time>
      </trkpt>
      <trkpt lat="46.82711" lon="-0.95273">
        <ele>126.9</ele>
        <time>2026-03-12T14:24:53.412Z</time>
      </trkpt>
      <trkpt lat="46.82721" lon="-0.95254">
        <ele>127</ele>
        <time>2026-03-12T14:24:56.329Z</time>
      </trkpt>
      <trkpt lat="46.82748" lon="-0.95216">
        <ele>127.5</ele>
        <time>2026-03-12T14:25:03.503Z</time>
      </trkpt>
      <trkpt lat="46.8277" lon="-0.95173">
        <ele>127.5</ele>
        <time>2026-03-12T14:25:09.661Z</time>
      </trkpt>
      <trkpt lat="46.82778" lon="-0.95155">
        <ele>127.7</ele>
        <time>2026-03-12T14:25:12.480Z</time>
      </trkpt>
      <trkpt lat="46.82795" lon="-0.95096">
        <ele>128.1</ele>
        <time>2026-03-12T14:25:20.510Z</time>
      </trkpt>
      <trkpt lat="46.82834" lon="-0.94981">
        <ele>128.6</ele>
        <time>2026-03-12T14:25:36.067Z</time>
      </trkpt>
      <trkpt lat="46.82851" lon="-0.9494">
        <ele>127.8</ele>
        <time>2026-03-12T14:25:40.505Z</time>
      </trkpt>
      <trkpt lat="46.82876" lon="-0.94885">
        <ele>127.6</ele>
        <time>2026-03-12T14:25:47.771Z</time>
      </trkpt>
      <trkpt lat="46.82895" lon="-0.94833">
        <ele>127.5</ele>
        <time>2026-03-12T14:25:54.376Z</time>
      </trkpt>
      <trkpt lat="46.82904" lon="-0.94793">
        <ele>128.1</ele>
        <time>2026-03-12T14:26:00.346Z</time>
      </trkpt>
      <trkpt lat="46.82918" lon="-0.94686">
        <ele>129.8</ele>
        <time>2026-03-12T14:26:16.127Z</time>
      </trkpt>
      <trkpt lat="46.82939" lon="-0.94459">
        <ele>129.3</ele>
        <time>2026-03-12T14:26:41.623Z</time>
      </trkpt>
      <trkpt lat="46.82934" lon="-0.94426">
        <ele>129.5</ele>
        <time>2026-03-12T14:26:45.842Z</time>
      </trkpt>
      <trkpt lat="46.82922" lon="-0.9439">
        <ele>129.5</ele>
        <time>2026-03-12T14:26:50.435Z</time>
      </trkpt>
      <trkpt lat="46.82903" lon="-0.94359">
        <ele>129.4</ele>
        <time>2026-03-12T14:26:55.053Z</time>
      </trkpt>
      <trkpt lat="46.82849" lon="-0.94307">
        <ele>128.7</ele>
        <time>2026-03-12T14:27:04.869Z</time>
      </trkpt>
      <trkpt lat="46.82826" lon="-0.94278">
        <ele>128.8</ele>
        <time>2026-03-12T14:27:10.125Z</time>
      </trkpt>
      <trkpt lat="46.82808" lon="-0.94249">
        <ele>129.3</ele>
        <time>2026-03-12T14:27:15.548Z</time>
      </trkpt>
      <trkpt lat="46.82795" lon="-0.94221">
        <ele>129.6</ele>
        <time>2026-03-12T14:27:19.961Z</time>
      </trkpt>
      <trkpt lat="46.82785" lon="-0.94186">
        <ele>130</ele>
        <time>2026-03-12T14:27:25.036Z</time>
      </trkpt>
      <trkpt lat="46.82783" lon="-0.94169">
        <ele>130.2</ele>
        <time>2026-03-12T14:27:27.382Z</time>
      </trkpt>
      <trkpt lat="46.82775" lon="-0.94001">
        <ele>126</ele>
        <time>2026-03-12T14:27:41.580Z</time>
      </trkpt>
      <trkpt lat="46.82767" lon="-0.93741">
        <ele>122.4</ele>
        <time>2026-03-12T14:28:06.516Z</time>
      </trkpt>
      <trkpt lat="46.82763" lon="-0.93666">
        <ele>123.9</ele>
        <time>2026-03-12T14:28:18.214Z</time>
      </trkpt>
      <trkpt lat="46.82749" lon="-0.93181">
        <ele>135</ele>
        <time>2026-03-12T14:29:37.526Z</time>
        <extensions>
          <visugpx:TrkExtension xmlns:visugpx="https://www.visugpx.com/editgpx/">
            <visugpx:node>46</visugpx:node>
            </visugpx:TrkExtension>
        </extensions>
      </trkpt>
      <trkpt lat="46.82748" lon="-0.93162">
        <ele>135.2</ele>
        <time>2026-03-12T14:29:40.074Z</time>
      </trkpt>
      <trkpt lat="46.82771" lon="-0.93174">
        <ele>134.5</ele>
        <time>2026-03-12T14:29:43.268Z</time>
      </trkpt>
      <trkpt lat="46.82804" lon="-0.93195">
        <ele>133.3</ele>
        <time>2026-03-12T14:29:47.809Z</time>
      </trkpt>
      <trkpt lat="46.82871" lon="-0.93249">
        <ele>132.8</ele>
        <time>2026-03-12T14:29:59.878Z</time>
      </trkpt>
      <trkpt lat="46.82885" lon="-0.93258">
        <ele>133.4</ele>
        <time>2026-03-12T14:30:03.791Z</time>
      </trkpt>
      <trkpt lat="46.82914" lon="-0.9327">
        <ele>134.6</ele>
        <time>2026-03-12T14:30:11.558Z</time>
      </trkpt>
      <trkpt lat="46.82939" lon="-0.93275">
        <ele>135.6</ele>
        <time>2026-03-12T14:30:18.045Z</time>
      </trkpt>
      <trkpt lat="46.832" lon="-0.93281">
        <ele>146.8</ele>
        <time>2026-03-12T14:31:27.894Z</time>
      </trkpt>
      <trkpt lat="46.83282" lon="-0.93285">
        <ele>150.9</ele>
        <time>2026-03-12T14:31:51.879Z</time>
      </trkpt>
      <trkpt lat="46.83299" lon="-0.93284">
        <ele>151.8</ele>
        <time>2026-03-12T14:31:57.043Z</time>
      </trkpt>
      <trkpt lat="46.83312" lon="-0.93282">
        <ele>152.3</ele>
        <time>2026-03-12T14:32:00.349Z</time>
      </trkpt>
      <trkpt lat="46.83329" lon="-0.93277">
        <ele>153.1</ele>
        <time>2026-03-12T14:32:05.178Z</time>
      </trkpt>
      <trkpt lat="46.83343" lon="-0.93275">
        <ele>153.6</ele>
        <time>2026-03-12T14:32:08.623Z</time>
      </trkpt>
      <trkpt lat="46.83356" lon="-0.93275">
        <ele>154.1</ele>
        <time>2026-03-12T14:32:11.918Z</time>
      </trkpt>
      <trkpt lat="46.83398" lon="-0.93281">
        <ele>155.7</ele>
        <time>2026-03-12T14:32:22.546Z</time>
      </trkpt>
      <trkpt lat="46.83408" lon="-0.93281">
        <ele>156.1</ele>
        <time>2026-03-12T14:32:25.129Z</time>
      </trkpt>
      <trkpt lat="46.83463" lon="-0.93275">
        <ele>156.9</ele>
        <time>2026-03-12T14:32:35.813Z</time>
      </trkpt>
      <trkpt lat="46.83509" lon="-0.93265">
        <ele>157.5</ele>
        <time>2026-03-12T14:32:44.673Z</time>
      </trkpt>
      <trkpt lat="46.83523" lon="-0.93263">
        <ele>157.8</ele>
        <time>2026-03-12T14:32:47.603Z</time>
      </trkpt>
      <trkpt lat="46.83537" lon="-0.93263">
        <ele>158.2</ele>
        <time>2026-03-12T14:32:50.765Z</time>
      </trkpt>
      <trkpt lat="46.8357" lon="-0.9327">
        <ele>159.5</ele>
        <time>2026-03-12T14:32:59.272Z</time>
      </trkpt>
      <trkpt lat="46.83661" lon="-0.93306">
        <ele>163.2</ele>
        <time>2026-03-12T14:33:23.398Z</time>
      </trkpt>
      <trkpt lat="46.83722" lon="-0.93318">
        <ele>164</ele>
        <time>2026-03-12T14:33:35.136Z</time>
      </trkpt>
      <trkpt lat="46.83779" lon="-0.93326">
        <ele>163.8</ele>
        <time>2026-03-12T14:33:44.425Z</time>
      </trkpt>
      <trkpt lat="46.8379" lon="-0.93326">
        <ele>163.7</ele>
        <time>2026-03-12T14:33:46.121Z</time>
      </trkpt>
      <trkpt lat="46.83816" lon="-0.93323">
        <ele>163.5</ele>
        <time>2026-03-12T14:33:50.193Z</time>
      </trkpt>
      <trkpt lat="46.83887" lon="-0.93309">
        <ele>164.1</ele>
        <time>2026-03-12T14:34:03.228Z</time>
      </trkpt>
      <trkpt lat="46.83911" lon="-0.93306">
        <ele>164.3</ele>
        <time>2026-03-12T14:34:07.607Z</time>
      </trkpt>
      <trkpt lat="46.83949" lon="-0.9329">
        <ele>164.7</ele>
        <time>2026-03-12T14:34:14.929Z</time>
        <extensions>
          <visugpx:TrkExtension xmlns:visugpx="https://www.visugpx.com/editgpx/">
            <visugpx:node>47</visugpx:node>
            </visugpx:TrkExtension>
        </extensions>
      </trkpt>
      <trkpt lat="46.83979" lon="-0.9328">
        <ele>165.1</ele>
        <time>2026-03-12T14:34:20.797Z</time>
      </trkpt>
      <trkpt lat="46.83987" lon="-0.93279">
        <ele>165.2</ele>
        <time>2026-03-12T14:34:22.320Z</time>
      </trkpt>
      <trkpt lat="46.84" lon="-0.9328">
        <ele>165.3</ele>
        <time>2026-03-12T14:34:24.672Z</time>
      </trkpt>
      <trkpt lat="46.84009" lon="-0.93282">
        <ele>165.2</ele>
        <time>2026-03-12T14:34:26.052Z</time>
      </trkpt>
      <trkpt lat="46.8404" lon="-0.93296">
        <ele>164.9</ele>
        <time>2026-03-12T14:34:31.046Z</time>
      </trkpt>
      <trkpt lat="46.84102" lon="-0.93329">
        <ele>164.5</ele>
        <time>2026-03-12T14:34:41.500Z</time>
      </trkpt>
      <trkpt lat="46.84134" lon="-0.93341">
        <ele>165</ele>
        <time>2026-03-12T14:34:47.942Z</time>
      </trkpt>
      <trkpt lat="46.84238" lon="-0.93361">
        <ele>164.4</ele>
        <time>2026-03-12T14:35:04.613Z</time>
      </trkpt>
      <trkpt lat="46.84283" lon="-0.93368">
        <ele>164.4</ele>
        <time>2026-03-12T14:35:12.199Z</time>
      </trkpt>
      <trkpt lat="46.84297" lon="-0.93369">
        <ele>164.5</ele>
        <time>2026-03-12T14:35:14.718Z</time>
      </trkpt>
      <trkpt lat="46.84312" lon="-0.93368">
        <ele>164.6</ele>
        <time>2026-03-12T14:35:17.403Z</time>
      </trkpt>
      <trkpt lat="46.84326" lon="-0.93365">
        <ele>164.8</ele>
        <time>2026-03-12T14:35:20.134Z</time>
      </trkpt>
      <trkpt lat="46.84361" lon="-0.93348">
        <ele>164.8</ele>
        <time>2026-03-12T14:35:26.317Z</time>
      </trkpt>
      <trkpt lat="46.84409" lon="-0.93321">
        <ele>164.8</ele>
        <time>2026-03-12T14:35:34.939Z</time>
      </trkpt>
      <trkpt lat="46.84533" lon="-0.93244">
        <ele>168.9</ele>
        <time>2026-03-12T14:36:06.015Z</time>
      </trkpt>
      <trkpt lat="46.84643" lon="-0.93174">
        <ele>168.4</ele>
        <time>2026-03-12T14:36:25.355Z</time>
      </trkpt>
      <trkpt lat="46.84748" lon="-0.93117">
        <ele>169.5</ele>
        <time>2026-03-12T14:36:46.032Z</time>
      </trkpt>
      <trkpt lat="46.84776" lon="-0.93107">
        <ele>169.1</ele>
        <time>2026-03-12T14:36:50.292Z</time>
      </trkpt>
      <trkpt lat="46.84792" lon="-0.93103">
        <ele>168.9</ele>
        <time>2026-03-12T14:36:52.723Z</time>
      </trkpt>
      <trkpt lat="46.84828" lon="-0.93097">
        <ele>168.3</ele>
        <time>2026-03-12T14:36:57.956Z</time>
      </trkpt>
      <trkpt lat="46.8486" lon="-0.93094">
        <ele>168.7</ele>
        <time>2026-03-12T14:37:04.038Z</time>
      </trkpt>
      <trkpt lat="46.84883" lon="-0.93095">
        <ele>169</ele>
        <time>2026-03-12T14:37:08.428Z</time>
      </trkpt>
      <trkpt lat="46.84912" lon="-0.93106">
        <ele>168.8</ele>
        <time>2026-03-12T14:37:13.148Z</time>
      </trkpt>
      <trkpt lat="46.84971" lon="-0.93142">
        <ele>168.8</ele>
        <time>2026-03-12T14:37:23.866Z</time>
      </trkpt>
      <trkpt lat="46.85003" lon="-0.93159">
        <ele>168.6</ele>
        <time>2026-03-12T14:37:29.269Z</time>
      </trkpt>
      <trkpt lat="46.8501" lon="-0.9316">
        <ele>168.7</ele>
        <time>2026-03-12T14:37:30.628Z</time>
        <extensions>
          <visugpx:TrkExtension xmlns:visugpx="https://www.visugpx.com/editgpx/">
            <visugpx:node>48</visugpx:node>
            </visugpx:TrkExtension>
        </extensions>
      </trkpt>
      <trkpt lat="46.85016" lon="-0.93161">
        <ele>168.8</ele>
        <time>2026-03-12T14:37:31.823Z</time>
      </trkpt>
      <trkpt lat="46.85036" lon="-0.93156">
        <ele>169.6</ele>
        <time>2026-03-12T14:37:37.027Z</time>
      </trkpt>
      <trkpt lat="46.85051" lon="-0.93159">
        <ele>169.8</ele>
        <time>2026-03-12T14:37:39.920Z</time>
      </trkpt>
      <trkpt lat="46.85059" lon="-0.93163">
        <ele>169.6</ele>
        <time>2026-03-12T14:37:41.071Z</time>
      </trkpt>
      <trkpt lat="46.85093" lon="-0.9319">
        <ele>168.8</ele>
        <time>2026-03-12T14:37:46.469Z</time>
      </trkpt>
      <trkpt lat="46.85109" lon="-0.93199">
        <ele>168.2</ele>
        <time>2026-03-12T14:37:48.604Z</time>
      </trkpt>
      <trkpt lat="46.85149" lon="-0.93213">
        <ele>167.4</ele>
        <time>2026-03-12T14:37:54.401Z</time>
      </trkpt>
      <trkpt lat="46.85166" lon="-0.93218">
        <ele>167.2</ele>
        <time>2026-03-12T14:37:57.016Z</time>
      </trkpt>
      <trkpt lat="46.85193" lon="-0.93221">
        <ele>166</ele>
        <time>2026-03-12T14:38:00.168Z</time>
      </trkpt>
      <trkpt lat="46.85228" lon="-0.93218">
        <ele>164.7</ele>
        <time>2026-03-12T14:38:04.468Z</time>
      </trkpt>
      <trkpt lat="46.85254" lon="-0.93204">
        <ele>163.8</ele>
        <time>2026-03-12T14:38:07.986Z</time>
      </trkpt>
      <trkpt lat="46.8538" lon="-0.93119">
        <ele>155.7</ele>
        <time>2026-03-12T14:38:22.684Z</time>
      </trkpt>
      <trkpt lat="46.85413" lon="-0.93089">
        <ele>155</ele>
        <time>2026-03-12T14:38:28.226Z</time>
      </trkpt>
      <trkpt lat="46.8544" lon="-0.93053">
        <ele>156.5</ele>
        <time>2026-03-12T14:38:37.784Z</time>
      </trkpt>
      <trkpt lat="46.85454" lon="-0.9303">
        <ele>157.4</ele>
        <time>2026-03-12T14:38:43.407Z</time>
      </trkpt>
      <trkpt lat="46.85481" lon="-0.92976">
        <ele>158.1</ele>
        <time>2026-03-12T14:38:52.343Z</time>
      </trkpt>
      <trkpt lat="46.85501" lon="-0.92942">
        <ele>158</ele>
        <time>2026-03-12T14:38:57.329Z</time>
      </trkpt>
      <trkpt lat="46.85522" lon="-0.92913">
        <ele>156.9</ele>
        <time>2026-03-12T14:39:00.846Z</time>
      </trkpt>
      <trkpt lat="46.8555" lon="-0.92883">
        <ele>155.6</ele>
        <time>2026-03-12T14:39:05.092Z</time>
      </trkpt>
      <trkpt lat="46.85565" lon="-0.92871">
        <ele>154.9</ele>
        <time>2026-03-12T14:39:07.130Z</time>
      </trkpt>
      <trkpt lat="46.85582" lon="-0.92861">
        <ele>154.1</ele>
        <time>2026-03-12T14:39:09.273Z</time>
      </trkpt>
      <trkpt lat="46.85612" lon="-0.92848">
        <ele>151.6</ele>
        <time>2026-03-12T14:39:12.420Z</time>
      </trkpt>
      <trkpt lat="46.85638" lon="-0.92842">
        <ele>149.5</ele>
        <time>2026-03-12T14:39:15.068Z</time>
      </trkpt>
      <trkpt lat="46.85667" lon="-0.92832">
        <ele>147</ele>
        <time>2026-03-12T14:39:18.065Z</time>
      </trkpt>
      <trkpt lat="46.8571" lon="-0.9281">
        <ele>145.5</ele>
        <time>2026-03-12T14:39:23.830Z</time>
      </trkpt>
      <trkpt lat="46.85738" lon="-0.92787">
        <ele>144.4</ele>
        <time>2026-03-12T14:39:27.853Z</time>
      </trkpt>
      <trkpt lat="46.85749" lon="-0.92774">
        <ele>144</ele>
        <time>2026-03-12T14:39:29.708Z</time>
      </trkpt>
      <trkpt lat="46.85768" lon="-0.92748">
        <ele>143</ele>
        <time>2026-03-12T14:39:32.868Z</time>
      </trkpt>
      <trkpt lat="46.85781" lon="-0.92735">
        <ele>142.9</ele>
        <time>2026-03-12T14:39:35.357Z</time>
      </trkpt>
      <trkpt lat="46.858" lon="-0.92722">
        <ele>142.9</ele>
        <time>2026-03-12T14:39:38.873Z</time>
      </trkpt>
      <trkpt lat="46.85826" lon="-0.92718">
        <ele>142.4</ele>
        <time>2026-03-12T14:39:42.568Z</time>
      </trkpt>
      <trkpt lat="46.85836" lon="-0.92719">
        <ele>141.8</ele>
        <time>2026-03-12T14:39:43.620Z</time>
      </trkpt>
      <trkpt lat="46.85857" lon="-0.92725">
        <ele>140.1</ele>
        <time>2026-03-12T14:39:45.772Z</time>
      </trkpt>
      <trkpt lat="46.85885" lon="-0.92737">
        <ele>137.6</ele>
        <time>2026-03-12T14:39:48.707Z</time>
      </trkpt>
      <trkpt lat="46.85945" lon="-0.92777">
        <ele>133.6</ele>
        <time>2026-03-12T14:39:55.591Z</time>
      </trkpt>
      <trkpt lat="46.8597" lon="-0.9278">
        <ele>132.5</ele>
        <time>2026-03-12T14:39:58.520Z</time>
      </trkpt>
      <trkpt lat="46.85987" lon="-0.92777">
        <ele>131.9</ele>
        <time>2026-03-12T14:40:00.652Z</time>
      </trkpt>
      <trkpt lat="46.85994" lon="-0.92772">
        <ele>131.7</ele>
        <time>2026-03-12T14:40:01.696Z</time>
      </trkpt>
      <trkpt lat="46.86012" lon="-0.92759">
        <ele>131.5</ele>
        <time>2026-03-12T14:40:04.766Z</time>
      </trkpt>
      <trkpt lat="46.86029" lon="-0.92743">
        <ele>131.6</ele>
        <time>2026-03-12T14:40:08.321Z</time>
      </trkpt>
      <trkpt lat="46.86038" lon="-0.92732">
        <ele>132.1</ele>
        <time>2026-03-12T14:40:11.449Z</time>
      </trkpt>
      <trkpt lat="46.86053" lon="-0.92703">
        <ele>133.5</ele>
        <time>2026-03-12T14:40:19.337Z</time>
      </trkpt>
      <trkpt lat="46.86058" lon="-0.92689">
        <ele>134.4</ele>
        <time>2026-03-12T14:40:24.270Z</time>
      </trkpt>
      <trkpt lat="46.86076" lon="-0.92629">
        <ele>137.7</ele>
        <time>2026-03-12T14:40:42.209Z</time>
      </trkpt>
      <trkpt lat="46.86084" lon="-0.92604">
        <ele>139</ele>
        <time>2026-03-12T14:40:49.290Z</time>
      </trkpt>
      <trkpt lat="46.86094" lon="-0.92587">
        <ele>140.1</ele>
        <time>2026-03-12T14:40:55.271Z</time>
      </trkpt>
      <trkpt lat="46.86114" lon="-0.92561">
        <ele>141.2</ele>
        <time>2026-03-12T14:41:02.276Z</time>
      </trkpt>
      <trkpt lat="46.86127" lon="-0.92542">
        <ele>141.8</ele>
        <time>2026-03-12T14:41:06.625Z</time>
      </trkpt>
      <trkpt lat="46.86168" lon="-0.92475">
        <ele>143</ele>
        <time>2026-03-12T14:41:19.185Z</time>
      </trkpt>
      <trkpt lat="46.86183" lon="-0.92457">
        <ele>142.9</ele>
        <time>2026-03-12T14:41:22.285Z</time>
      </trkpt>
      <trkpt lat="46.86207" lon="-0.92438">
        <ele>142.9</ele>
        <time>2026-03-12T14:41:26.860Z</time>
      </trkpt>
      <trkpt lat="46.86224" lon="-0.92427">
        <ele>142.9</ele>
        <time>2026-03-12T14:41:29.976Z</time>
      </trkpt>
      <trkpt lat="46.86234" lon="-0.92423">
        <ele>142.9</ele>
        <time>2026-03-12T14:41:31.714Z</time>
        <extensions>
          <visugpx:TrkExtension xmlns:visugpx="https://www.visugpx.com/editgpx/">
            <visugpx:node>49</visugpx:node>
            </visugpx:TrkExtension>
        </extensions>
      </trkpt>
      <trkpt lat="46.86256" lon="-0.92501">
        <ele>141.8</ele>
        <time>2026-03-12T14:41:39.871Z</time>
      </trkpt>
      <trkpt lat="46.86259" lon="-0.92526">
        <ele>141.4</ele>
        <time>2026-03-12T14:41:42.245Z</time>
      </trkpt>
      <trkpt lat="46.86251" lon="-0.92568">
        <ele>141.2</ele>
        <time>2026-03-12T14:41:46.940Z</time>
      </trkpt>
      <trkpt lat="46.86246" lon="-0.92579">
        <ele>141.1</ele>
        <time>2026-03-12T14:41:48.308Z</time>
      </trkpt>
      <trkpt lat="46.86251" lon="-0.92587">
        <ele>140.9</ele>
        <time>2026-03-12T14:41:49.290Z</time>
      </trkpt>
      <trkpt lat="46.8626" lon="-0.92612">
        <ele>139.7</ele>
        <time>2026-03-12T14:41:51.289Z</time>
      </trkpt>
      <trkpt lat="46.86259" lon="-0.92627">
        <ele>139.2</ele>
        <time>2026-03-12T14:41:52.454Z</time>
      </trkpt>
      <trkpt lat="46.86266" lon="-0.92674">
        <ele>137.4</ele>
        <time>2026-03-12T14:41:56.020Z</time>
      </trkpt>
      <trkpt lat="46.8627" lon="-0.92745">
        <ele>134.9</ele>
        <time>2026-03-12T14:42:01.423Z</time>
      </trkpt>
      <trkpt lat="46.86281" lon="-0.92764">
        <ele>133.8</ele>
        <time>2026-03-12T14:42:03.158Z</time>
      </trkpt>
      <trkpt lat="46.86304" lon="-0.92791">
        <ele>132.1</ele>
        <time>2026-03-12T14:42:06.296Z</time>
      </trkpt>
      <trkpt lat="46.86326" lon="-0.92808">
        <ele>131.2</ele>
        <time>2026-03-12T14:42:09.369Z</time>
      </trkpt>
      <trkpt lat="46.86384" lon="-0.92841">
        <ele>128.4</ele>
        <time>2026-03-12T14:42:16.578Z</time>
      </trkpt>
      <trkpt lat="46.86421" lon="-0.9286">
        <ele>126.2</ele>
        <time>2026-03-12T14:42:20.793Z</time>
      </trkpt>
      <trkpt lat="46.86456" lon="-0.92872">
        <ele>124.4</ele>
        <time>2026-03-12T14:42:24.814Z</time>
      </trkpt>
      <trkpt lat="46.86491" lon="-0.9288">
        <ele>123.2</ele>
        <time>2026-03-12T14:42:29.265Z</time>
      </trkpt>
      <trkpt lat="46.86518" lon="-0.9288">
        <ele>123</ele>
        <time>2026-03-12T14:42:33.491Z</time>
      </trkpt>
      <trkpt lat="46.86561" lon="-0.92865">
        <ele>123.7</ele>
        <time>2026-03-12T14:42:42.174Z</time>
      </trkpt>
      <trkpt lat="46.86586" lon="-0.92859">
        <ele>124.2</ele>
        <time>2026-03-12T14:42:47.362Z</time>
      </trkpt>
      <trkpt lat="46.8662" lon="-0.92865">
        <ele>125.2</ele>
        <time>2026-03-12T14:42:55.151Z</time>
      </trkpt>
      <trkpt lat="46.86656" lon="-0.92873">
        <ele>126.2</ele>
        <time>2026-03-12T14:43:03.271Z</time>
      </trkpt>
      <trkpt lat="46.86753" lon="-0.92902">
        <ele>126.3</ele>
        <time>2026-03-12T14:43:20.029Z</time>
      </trkpt>
      <trkpt lat="46.86776" lon="-0.92902">
        <ele>125.8</ele>
        <time>2026-03-12T14:43:23.209Z</time>
      </trkpt>
      <trkpt lat="46.86799" lon="-0.92896">
        <ele>125.5</ele>
        <time>2026-03-12T14:43:26.693Z</time>
      </trkpt>
      <trkpt lat="46.86821" lon="-0.92883">
        <ele>125.5</ele>
        <time>2026-03-12T14:43:30.671Z</time>
      </trkpt>
      <trkpt lat="46.86831" lon="-0.92874">
        <ele>125.6</ele>
        <time>2026-03-12T14:43:32.810Z</time>
      </trkpt>
      <trkpt lat="46.86852" lon="-0.92861">
        <ele>126.4</ele>
        <time>2026-03-12T14:43:38.363Z</time>
      </trkpt>
      <trkpt lat="46.86862" lon="-0.92859">
        <ele>126.6</ele>
        <time>2026-03-12T14:43:40.432Z</time>
      </trkpt>
      <trkpt lat="46.8687" lon="-0.92862">
        <ele>126.7</ele>
        <time>2026-03-12T14:43:41.992Z</time>
      </trkpt>
      <trkpt lat="46.86877" lon="-0.92868">
        <ele>126.7</ele>
        <time>2026-03-12T14:43:43.352Z</time>
      </trkpt>
      <trkpt lat="46.86879" lon="-0.92874">
        <ele>126.6</ele>
        <time>2026-03-12T14:43:43.982Z</time>
        <extensions>
          <visugpx:TrkExtension xmlns:visugpx="https://www.visugpx.com/editgpx/">
            <visugpx:node>50</visugpx:node>
            </visugpx:TrkExtension>
        </extensions>
      </trkpt>
      <trkpt lat="46.86882" lon="-0.92888">
        <ele>126.4</ele>
        <time>2026-03-12T14:43:45.390Z</time>
      </trkpt>
      <trkpt lat="46.86888" lon="-0.92975">
        <ele>126.4</ele>
        <time>2026-03-12T14:43:55.412Z</time>
      </trkpt>
      <trkpt lat="46.8689" lon="-0.93168">
        <ele>131.4</ele>
        <time>2026-03-12T14:44:28.636Z</time>
      </trkpt>
      <trkpt lat="46.86888" lon="-0.93231">
        <ele>131.8</ele>
        <time>2026-03-12T14:44:36.553Z</time>
      </trkpt>
      <trkpt lat="46.86886" lon="-0.93245">
        <ele>131.7</ele>
        <time>2026-03-12T14:44:38.045Z</time>
      </trkpt>
      <trkpt lat="46.86882" lon="-0.93306">
        <ele>130.5</ele>
        <time>2026-03-12T14:44:43.525Z</time>
      </trkpt>
      <trkpt lat="46.8687" lon="-0.93402">
        <ele>127.2</ele>
        <time>2026-03-12T14:44:51.020Z</time>
      </trkpt>
      <trkpt lat="46.86871" lon="-0.93439">
        <ele>125.9</ele>
        <time>2026-03-12T14:44:53.827Z</time>
      </trkpt>
      <trkpt lat="46.86893" lon="-0.93549">
        <ele>123.6</ele>
        <time>2026-03-12T14:45:04.020Z</time>
      </trkpt>
      <trkpt lat="46.86921" lon="-0.93718">
        <ele>126.3</ele>
        <time>2026-03-12T14:45:29.165Z</time>
      </trkpt>
      <trkpt lat="46.86934" lon="-0.93827">
        <ele>126.1</ele>
        <time>2026-03-12T14:45:41.534Z</time>
      </trkpt>
      <trkpt lat="46.86934" lon="-0.93847">
        <ele>126</ele>
        <time>2026-03-12T14:45:43.675Z</time>
      </trkpt>
      <trkpt lat="46.86944" lon="-0.93903">
        <ele>126.1</ele>
        <time>2026-03-12T14:45:50.472Z</time>
      </trkpt>
      <trkpt lat="46.86949" lon="-0.93923">
        <ele>126.3</ele>
        <time>2026-03-12T14:45:53.269Z</time>
      </trkpt>
      <trkpt lat="46.86963" lon="-0.93964">
        <ele>127.2</ele>
        <time>2026-03-12T14:46:00.357Z</time>
      </trkpt>
      <trkpt lat="46.86982" lon="-0.94008">
        <ele>127.7</ele>
        <time>2026-03-12T14:46:07.217Z</time>
      </trkpt>
      <trkpt lat="46.87015" lon="-0.94075">
        <ele>126.8</ele>
        <time>2026-03-12T14:46:15.413Z</time>
      </trkpt>
      <trkpt lat="46.87126" lon="-0.94286">
        <ele>122.9</ele>
        <time>2026-03-12T14:46:40.646Z</time>
      </trkpt>
      <trkpt lat="46.87159" lon="-0.94334">
        <ele>123.6</ele>
        <time>2026-03-12T14:46:49.712Z</time>
      </trkpt>
      <trkpt lat="46.87192" lon="-0.94371">
        <ele>124.9</ele>
        <time>2026-03-12T14:46:59.395Z</time>
      </trkpt>
      <trkpt lat="46.87246" lon="-0.94425">
        <ele>127.5</ele>
        <time>2026-03-12T14:47:16.237Z</time>
        <extensions>
          <visugpx:TrkExtension xmlns:visugpx="https://www.visugpx.com/editgpx/">
            <visugpx:node>51</visugpx:node>
            </visugpx:TrkExtension>
        </extensions>
      </trkpt>
      <trkpt lat="46.87274" lon="-0.94457">
        <ele>127.8</ele>
        <time>2026-03-12T14:47:22.706Z</time>
      </trkpt>
      <trkpt lat="46.87284" lon="-0.94457">
        <ele>128.1</ele>
        <time>2026-03-12T14:47:25.001Z</time>
      </trkpt>
      <trkpt lat="46.8721" lon="-0.94832">
        <ele>131.5</ele>
        <time>2026-03-12T14:48:15.754Z</time>
      </trkpt>
      <trkpt lat="46.87199" lon="-0.94913">
        <ele>134.4</ele>
        <time>2026-03-12T14:48:32.555Z</time>
      </trkpt>
      <trkpt lat="46.87196" lon="-0.94993">
        <ele>138.4</ele>
        <time>2026-03-12T14:48:54.299Z</time>
      </trkpt>
      <trkpt lat="46.87197" lon="-0.95018">
        <ele>139.3</ele>
        <time>2026-03-12T14:48:59.473Z</time>
      </trkpt>
      <trkpt lat="46.87201" lon="-0.95055">
        <ele>140.7</ele>
        <time>2026-03-12T14:49:07.426Z</time>
      </trkpt>
      <trkpt lat="46.87212" lon="-0.95117">
        <ele>143</ele>
        <time>2026-03-12T14:49:20.652Z</time>
      </trkpt>
      <trkpt lat="46.87225" lon="-0.95171">
        <ele>145.1</ele>
        <time>2026-03-12T14:49:32.648Z</time>
      </trkpt>
      <trkpt lat="46.87283" lon="-0.95334">
        <ele>149.4</ele>
        <time>2026-03-12T14:50:02.932Z</time>
      </trkpt>
      <trkpt lat="46.87293" lon="-0.9537">
        <ele>151</ele>
        <time>2026-03-12T14:50:11.807Z</time>
      </trkpt>
      <trkpt lat="46.87305" lon="-0.95436">
        <ele>152.7</ele>
        <time>2026-03-12T14:50:23.356Z</time>
      </trkpt>
      <trkpt lat="46.87309" lon="-0.95473">
        <ele>152.3</ele>
        <time>2026-03-12T14:50:27.084Z</time>
      </trkpt>
      <trkpt lat="46.87311" lon="-0.95562">
        <ele>150.4</ele>
        <time>2026-03-12T14:50:34.889Z</time>
      </trkpt>
      <trkpt lat="46.87291" lon="-0.95795">
        <ele>148.4</ele>
        <time>2026-03-12T14:50:58.908Z</time>
        <extensions>
          <visugpx:TrkExtension xmlns:visugpx="https://www.visugpx.com/editgpx/">
            <visugpx:node>52</visugpx:node>
            </visugpx:TrkExtension>
        </extensions>
      </trkpt>
      <trkpt lat="46.8728" lon="-0.95916">
        <ele>148.8</ele>
        <time>2026-03-12T14:51:13.560Z</time>
      </trkpt>
      <trkpt lat="46.8727" lon="-0.95975">
        <ele>148.5</ele>
        <time>2026-03-12T14:51:20.074Z</time>
      </trkpt>
      <trkpt lat="46.87263" lon="-0.96004">
        <ele>148.4</ele>
        <time>2026-03-12T14:51:23.445Z</time>
      </trkpt>
      <trkpt lat="46.87253" lon="-0.96041">
        <ele>147.6</ele>
        <time>2026-03-12T14:51:26.982Z</time>
      </trkpt>
      <trkpt lat="46.87079" lon="-0.96488">
        <ele>141.7</ele>
        <time>2026-03-12T14:52:17.669Z</time>
      </trkpt>
      <trkpt lat="46.87056" lon="-0.96554">
        <ele>142.5</ele>
        <time>2026-03-12T14:52:27.614Z</time>
      </trkpt>
      <trkpt lat="46.87039" lon="-0.96613">
        <ele>143.3</ele>
        <time>2026-03-12T14:52:36.437Z</time>
      </trkpt>
      <trkpt lat="46.87032" lon="-0.96641">
        <ele>143.4</ele>
        <time>2026-03-12T14:52:40.020Z</time>
      </trkpt>
      <trkpt lat="46.87019" lon="-0.96703">
        <ele>143.4</ele>
        <time>2026-03-12T14:52:47.453Z</time>
      </trkpt>
      <trkpt lat="46.87005" lon="-0.968">
        <ele>143.7</ele>
        <time>2026-03-12T14:52:59.310Z</time>
      </trkpt>
      <trkpt lat="46.87002" lon="-0.96836">
        <ele>144.1</ele>
        <time>2026-03-12T14:53:04.196Z</time>
      </trkpt>
      <trkpt lat="46.86991" lon="-0.97056">
        <ele>143.7</ele>
        <time>2026-03-12T14:53:28.853Z</time>
      </trkpt>
      <trkpt lat="46.86988" lon="-0.97178">
        <ele>143</ele>
        <time>2026-03-12T14:53:41.800Z</time>
      </trkpt>
      <trkpt lat="46.86981" lon="-0.97256">
        <ele>142.3</ele>
        <time>2026-03-12T14:53:49.808Z</time>
      </trkpt>
      <trkpt lat="46.86977" lon="-0.97283">
        <ele>141.9</ele>
        <time>2026-03-12T14:53:52.432Z</time>
      </trkpt>
      <trkpt lat="46.86975" lon="-0.97311">
        <ele>141.4</ele>
        <time>2026-03-12T14:53:55.003Z</time>
      </trkpt>
      <trkpt lat="46.86981" lon="-0.97315">
        <ele>141.1</ele>
        <time>2026-03-12T14:53:55.764Z</time>
      </trkpt>
      <trkpt lat="46.86988" lon="-0.97326">
        <ele>140.6</ele>
        <time>2026-03-12T14:53:56.925Z</time>
      </trkpt>
      <trkpt lat="46.86991" lon="-0.97342">
        <ele>140.1</ele>
        <time>2026-03-12T14:53:58.247Z</time>
      </trkpt>
      <trkpt lat="46.86988" lon="-0.97358">
        <ele>139.8</ele>
        <time>2026-03-12T14:53:59.757Z</time>
      </trkpt>
      <trkpt lat="46.86981" lon="-0.97369">
        <ele>139.7</ele>
        <time>2026-03-12T14:54:01.331Z</time>
      </trkpt>
      <trkpt lat="46.86973" lon="-0.97373">
        <ele>139.9</ele>
        <time>2026-03-12T14:54:03.138Z</time>
      </trkpt>
      <trkpt lat="46.86963" lon="-0.97372">
        <ele>140.2</ele>
        <time>2026-03-12T14:54:05.437Z</time>
      </trkpt>
      <trkpt lat="46.86959" lon="-0.97369">
        <ele>140.4</ele>
        <time>2026-03-12T14:54:06.664Z</time>
      </trkpt>
      <trkpt lat="46.86952" lon="-0.97358">
        <ele>141</ele>
        <time>2026-03-12T14:54:10.014Z</time>
      </trkpt>
      <trkpt lat="46.86949" lon="-0.97342">
        <ele>141.6</ele>
        <time>2026-03-12T14:54:13.456Z</time>
      </trkpt>
      <trkpt lat="46.86874" lon="-0.97331">
        <ele>144</ele>
        <time>2026-03-12T14:54:31.128Z</time>
        <extensions>
          <visugpx:TrkExtension xmlns:visugpx="https://www.visugpx.com/editgpx/">
            <visugpx:node>53</visugpx:node>
            </visugpx:TrkExtension>
        </extensions>
      </trkpt>
      <trkpt lat="46.86719" lon="-0.9731">
        <ele>150</ele>
        <time>2026-03-12T14:55:10.629Z</time>
      </trkpt>
      <trkpt lat="46.8659" lon="-0.97294">
        <ele>148.1</ele>
        <time>2026-03-12T14:55:29.629Z</time>
      </trkpt>
      <trkpt lat="46.86561" lon="-0.97288">
        <ele>147.1</ele>
        <time>2026-03-12T14:55:33.301Z</time>
      </trkpt>
      <trkpt lat="46.86508" lon="-0.97261">
        <ele>145.2</ele>
        <time>2026-03-12T14:55:40.353Z</time>
      </trkpt>
      <trkpt lat="46.86458" lon="-0.97223">
        <ele>143.8</ele>
        <time>2026-03-12T14:55:47.950Z</time>
      </trkpt>
      <trkpt lat="46.86416" lon="-0.97205">
        <ele>142.5</ele>
        <time>2026-03-12T14:55:53.628Z</time>
      </trkpt>
      <trkpt lat="46.86376" lon="-0.97185">
        <ele>141.2</ele>
        <time>2026-03-12T14:55:59.067Z</time>
      </trkpt>
      <trkpt lat="46.86349" lon="-0.97183">
        <ele>140.2</ele>
        <time>2026-03-12T14:56:02.385Z</time>
      </trkpt>
      <trkpt lat="46.86281" lon="-0.97188">
        <ele>137.7</ele>
        <time>2026-03-12T14:56:10.759Z</time>
      </trkpt>
      <trkpt lat="46.86282" lon="-0.97202">
        <ele>137.5</ele>
        <time>2026-03-12T14:56:12.100Z</time>
      </trkpt>
      <trkpt lat="46.86278" lon="-0.97219">
        <ele>137.2</ele>
        <time>2026-03-12T14:56:13.763Z</time>
      </trkpt>
      <trkpt lat="46.86268" lon="-0.97234">
        <ele>136.6</ele>
        <time>2026-03-12T14:56:15.460Z</time>
      </trkpt>
      <trkpt lat="46.86252" lon="-0.97239">
        <ele>136.2</ele>
        <time>2026-03-12T14:56:17.673Z</time>
      </trkpt>
      <trkpt lat="46.8624" lon="-0.97234">
        <ele>136</ele>
        <time>2026-03-12T14:56:19.483Z</time>
      </trkpt>
      <trkpt lat="46.8623" lon="-0.97219">
        <ele>136</ele>
        <time>2026-03-12T14:56:21.884Z</time>
      </trkpt>
      <trkpt lat="46.86138" lon="-0.97338">
        <ele>132.7</ele>
        <time>2026-03-12T14:56:38.177Z</time>
      </trkpt>
      <trkpt lat="46.85984" lon="-0.97509">
        <ele>131.8</ele>
        <time>2026-03-12T14:57:09.210Z</time>
      </trkpt>
      <trkpt lat="46.85943" lon="-0.97553">
        <ele>131.3</ele>
        <time>2026-03-12T14:57:16.997Z</time>
      </trkpt>
      <trkpt lat="46.85909" lon="-0.97583">
        <ele>130.6</ele>
        <time>2026-03-12T14:57:22.680Z</time>
        <extensions>
          <visugpx:TrkExtension xmlns:visugpx="https://www.visugpx.com/editgpx/">
            <visugpx:node>54</visugpx:node>
            </visugpx:TrkExtension>
        </extensions>
      </trkpt>
      <trkpt lat="46.85751" lon="-0.97719">
        <ele>125.6</ele>
        <time>2026-03-12T14:57:46.923Z</time>
      </trkpt>
      <trkpt lat="46.85687" lon="-0.97782">
        <ele>126.8</ele>
        <time>2026-03-12T14:58:02.033Z</time>
      </trkpt>
      <trkpt lat="46.85652" lon="-0.97822">
        <ele>126.7</ele>
        <time>2026-03-12T14:58:09.323Z</time>
      </trkpt>
      <trkpt lat="46.85566" lon="-0.97935">
        <ele>125</ele>
        <time>2026-03-12T14:58:26.287Z</time>
      </trkpt>
      <trkpt lat="46.85499" lon="-0.98011">
        <ele>124.9</ele>
        <time>2026-03-12T14:58:40.344Z</time>
      </trkpt>
      <trkpt lat="46.85415" lon="-0.98091">
        <ele>127.7</ele>
        <time>2026-03-12T14:59:02.817Z</time>
      </trkpt>
      <trkpt lat="46.85383" lon="-0.98123">
        <ele>126.2</ele>
        <time>2026-03-12T14:59:07.516Z</time>
      </trkpt>
      <trkpt lat="46.85315" lon="-0.98196">
        <ele>124.1</ele>
        <time>2026-03-12T14:59:18.885Z</time>
      </trkpt>
      <trkpt lat="46.85243" lon="-0.98293">
        <ele>123.4</ele>
        <time>2026-03-12T14:59:34.242Z</time>
      </trkpt>
      <trkpt lat="46.85199" lon="-0.98359">
        <ele>122.4</ele>
        <time>2026-03-12T14:59:43.399Z</time>
      </trkpt>
      <trkpt lat="46.85138" lon="-0.98473">
        <ele>120.2</ele>
        <time>2026-03-12T14:59:57.033Z</time>
        <extensions>
          <visugpx:TrkExtension xmlns:visugpx="https://www.visugpx.com/editgpx/">
            <visugpx:node>55</visugpx:node>
            </visugpx:TrkExtension>
        </extensions>
      </trkpt>
      <trkpt lat="46.85103" lon="-0.98543">
        <ele>120.1</ele>
        <time>2026-03-12T15:00:06.818Z</time>
      </trkpt>
      <trkpt lat="46.85075" lon="-0.98593">
        <ele>119.9</ele>
        <time>2026-03-12T15:00:13.919Z</time>
      </trkpt>
      <trkpt lat="46.85056" lon="-0.98624">
        <ele>119.5</ele>
        <time>2026-03-12T15:00:18.120Z</time>
      </trkpt>
      <trkpt lat="46.8504" lon="-0.98645">
        <ele>119.3</ele>
        <time>2026-03-12T15:00:21.428Z</time>
      </trkpt>
      <trkpt lat="46.84993" lon="-0.98685">
        <ele>118.4</ele>
        <time>2026-03-12T15:00:29.282Z</time>
      </trkpt>
      <trkpt lat="46.84971" lon="-0.98699">
        <ele>118.1</ele>
        <time>2026-03-12T15:00:32.870Z</time>
      </trkpt>
      <trkpt lat="46.84919" lon="-0.98721">
        <ele>118.3</ele>
        <time>2026-03-12T15:00:42.274Z</time>
      </trkpt>
      <trkpt lat="46.84882" lon="-0.98733">
        <ele>119.3</ele>
        <time>2026-03-12T15:00:50.623Z</time>
      </trkpt>
      <trkpt lat="46.84883" lon="-0.98742">
        <ele>119.2</ele>
        <time>2026-03-12T15:00:51.528Z</time>
      </trkpt>
      <trkpt lat="46.84879" lon="-0.98759">
        <ele>119.3</ele>
        <time>2026-03-12T15:00:53.759Z</time>
      </trkpt>
      <trkpt lat="46.84876" lon="-0.98765">
        <ele>119.5</ele>
        <time>2026-03-12T15:00:55.062Z</time>
      </trkpt>
      <trkpt lat="46.84863" lon="-0.98776">
        <ele>119.9</ele>
        <time>2026-03-12T15:00:58.380Z</time>
      </trkpt>
      <trkpt lat="46.84857" lon="-0.98775">
        <ele>120.2</ele>
        <time>2026-03-12T15:01:00.139Z</time>
      </trkpt>
      <trkpt lat="46.84862" lon="-0.98876">
        <ele>120</ele>
        <time>2026-03-12T15:01:11.438Z</time>
      </trkpt>
      <trkpt lat="46.84862" lon="-0.98903">
        <ele>120</ele>
        <time>2026-03-12T15:01:14.533Z</time>
      </trkpt>
      <trkpt lat="46.84851" lon="-0.98915">
        <ele>120.3</ele>
        <time>2026-03-12T15:01:17.409Z</time>
      </trkpt>
      <trkpt lat="46.84814" lon="-0.9893">
        <ele>121.5</ele>
        <time>2026-03-12T15:01:26.350Z</time>
      </trkpt>
      <trkpt lat="46.84678" lon="-0.99018">
        <ele>120.9</ele>
        <time>2026-03-12T15:01:50.356Z</time>
      </trkpt>
      <trkpt lat="46.84604" lon="-0.99068">
        <ele>119.4</ele>
        <time>2026-03-12T15:02:01.946Z</time>
        <extensions>
          <visugpx:TrkExtension xmlns:visugpx="https://www.visugpx.com/editgpx/">
            <visugpx:node>56</visugpx:node>
            </visugpx:TrkExtension>
        </extensions>
      </trkpt>
      <trkpt lat="46.84594" lon="-0.99075">
        <ele>119.2</ele>
        <time>2026-03-12T15:02:03.527Z</time>
      </trkpt>
      <trkpt lat="46.8465" lon="-0.99183">
        <ele>118.2</ele>
        <time>2026-03-12T15:02:17.602Z</time>
      </trkpt>
      <trkpt lat="46.84657" lon="-0.99201">
        <ele>118.2</ele>
        <time>2026-03-12T15:02:19.976Z</time>
      </trkpt>
      <trkpt lat="46.84666" lon="-0.99254">
        <ele>117.9</ele>
        <time>2026-03-12T15:02:25.788Z</time>
      </trkpt>
      <trkpt lat="46.84686" lon="-0.99314">
        <ele>118</ele>
        <time>2026-03-12T15:02:33.604Z</time>
      </trkpt>
      <trkpt lat="46.84694" lon="-0.99351">
        <ele>117.7</ele>
        <time>2026-03-12T15:02:37.615Z</time>
      </trkpt>
      <trkpt lat="46.84701" lon="-0.99371">
        <ele>117.6</ele>
        <time>2026-03-12T15:02:40.040Z</time>
      </trkpt>
      <trkpt lat="46.8471" lon="-0.99388">
        <ele>117.6</ele>
        <time>2026-03-12T15:02:42.505Z</time>
      </trkpt>
      <trkpt lat="46.84721" lon="-0.99403">
        <ele>117.6</ele>
        <time>2026-03-12T15:02:45.026Z</time>
      </trkpt>
      <trkpt lat="46.84779" lon="-0.99462">
        <ele>118.3</ele>
        <time>2026-03-12T15:02:58.081Z</time>
      </trkpt>
      <trkpt lat="46.84791" lon="-0.99479">
        <ele>118.3</ele>
        <time>2026-03-12T15:03:00.883Z</time>
      </trkpt>
      <trkpt lat="46.84863" lon="-0.99608">
        <ele>116.8</ele>
        <time>2026-03-12T15:03:17.815Z</time>
      </trkpt>
      <trkpt lat="46.84908" lon="-0.99696">
        <ele>116.6</ele>
        <time>2026-03-12T15:03:30.101Z</time>
        <extensions>
          <visugpx:TrkExtension xmlns:visugpx="https://www.visugpx.com/editgpx/">
            <visugpx:node>57</visugpx:node>
            </visugpx:TrkExtension>
        </extensions>
      </trkpt>
      <trkpt lat="46.84928" lon="-0.99733">
        <ele>116.3</ele>
        <time>2026-03-12T15:03:35.063Z</time>
      </trkpt>
      <trkpt lat="46.84935" lon="-0.99752">
        <ele>116.2</ele>
        <time>2026-03-12T15:03:37.387Z</time>
      </trkpt>
      <trkpt lat="46.84953" lon="-0.99807">
        <ele>116.1</ele>
        <time>2026-03-12T15:03:44.221Z</time>
      </trkpt>
      <trkpt lat="46.84965" lon="-0.9985">
        <ele>115.9</ele>
        <time>2026-03-12T15:03:49.242Z</time>
      </trkpt>
      <trkpt lat="46.84966" lon="-0.99867">
        <ele>115.8</ele>
        <time>2026-03-12T15:03:51.050Z</time>
      </trkpt>
      <trkpt lat="46.8496" lon="-0.9999">
        <ele>114.2</ele>
        <time>2026-03-12T15:04:02.983Z</time>
      </trkpt>
      <trkpt lat="46.8496" lon="-1.00049">
        <ele>113.4</ele>
        <time>2026-03-12T15:04:08.651Z</time>
      </trkpt>
      <trkpt lat="46.84965" lon="-1.00089">
        <ele>113.1</ele>
        <time>2026-03-12T15:04:12.874Z</time>
      </trkpt>
      <trkpt lat="46.84978" lon="-1.00151">
        <ele>113.6</ele>
        <time>2026-03-12T15:04:21.183Z</time>
      </trkpt>
      <trkpt lat="46.85008" lon="-1.00246">
        <ele>112.8</ele>
        <time>2026-03-12T15:04:32.012Z</time>
        <extensions>
          <visugpx:TrkExtension xmlns:visugpx="https://www.visugpx.com/editgpx/">
            <visugpx:node>58</visugpx:node>
            </visugpx:TrkExtension>
        </extensions>
      </trkpt>
      <trkpt lat="46.8502" lon="-1.0028">
        <ele>112.6</ele>
        <time>2026-03-12T15:04:36.017Z</time>
      </trkpt>
      <trkpt lat="46.85034" lon="-1.0031">
        <ele>112.1</ele>
        <time>2026-03-12T15:04:39.563Z</time>
      </trkpt>
      <trkpt lat="46.85042" lon="-1.00329">
        <ele>112.4</ele>
        <time>2026-03-12T15:04:42.701Z</time>
      </trkpt>
      <trkpt lat="46.85044" lon="-1.00334">
        <ele>112.4</ele>
        <time>2026-03-12T15:04:43.335Z</time>
      </trkpt>
      <trkpt lat="46.85072" lon="-1.00395">
        <ele>111</ele>
        <time>2026-03-12T15:04:49.984Z</time>
      </trkpt>
      <trkpt lat="46.85078" lon="-1.00408">
        <ele>111</ele>
        <time>2026-03-12T15:04:51.735Z</time>
      </trkpt>
      <trkpt lat="46.85079" lon="-1.00413">
        <ele>111</ele>
        <time>2026-03-12T15:04:52.370Z</time>
      </trkpt>
      <trkpt lat="46.85079" lon="-1.00419">
        <ele>111</ele>
        <time>2026-03-12T15:04:53.115Z</time>
      </trkpt>
      <trkpt lat="46.85078" lon="-1.00424">
        <ele>111</ele>
        <time>2026-03-12T15:04:53.684Z</time>
      </trkpt>
      <trkpt lat="46.85103" lon="-1.00439">
        <ele>110.4</ele>
        <time>2026-03-12T15:04:57.394Z</time>
      </trkpt>
      <trkpt lat="46.85107" lon="-1.00442">
        <ele>110.2</ele>
        <time>2026-03-12T15:04:58.046Z</time>
      </trkpt>
      <trkpt lat="46.85108" lon="-1.00443">
        <ele>110.2</ele>
        <time>2026-03-12T15:04:58.156Z</time>
      </trkpt>
      <trkpt lat="46.85109" lon="-1.00443">
        <ele>110.1</ele>
        <time>2026-03-12T15:04:58.226Z</time>
      </trkpt>
      <trkpt lat="46.8511" lon="-1.00444">
        <ele>110</ele>
        <time>2026-03-12T15:04:58.398Z</time>
      </trkpt>
      <trkpt lat="46.85113" lon="-1.00446">
        <ele>110</ele>
        <time>2026-03-12T15:04:58.951Z</time>
      </trkpt>
      <trkpt lat="46.85122" lon="-1.00453">
        <ele>109.9</ele>
        <time>2026-03-12T15:05:00.526Z</time>
      </trkpt>
      <trkpt lat="46.85129" lon="-1.00457">
        <ele>109.7</ele>
        <time>2026-03-12T15:05:01.526Z</time>
      </trkpt>
      <trkpt lat="46.85133" lon="-1.0046">
        <ele>109.6</ele>
        <time>2026-03-12T15:05:02.062Z</time>
      </trkpt>
      <trkpt lat="46.85137" lon="-1.00462">
        <ele>109.4</ele>
        <time>2026-03-12T15:05:02.559Z</time>
      </trkpt>
      <trkpt lat="46.85193" lon="-1.00505">
        <ele>108</ele>
        <time>2026-03-12T15:05:11.338Z</time>
      </trkpt>
      <trkpt lat="46.85197" lon="-1.00507">
        <ele>108</ele>
        <time>2026-03-12T15:05:11.931Z</time>
      </trkpt>
      <trkpt lat="46.85212" lon="-1.00518">
        <ele>108</ele>
        <time>2026-03-12T15:05:14.744Z</time>
      </trkpt>
      <trkpt lat="46.85222" lon="-1.00527">
        <ele>108</ele>
        <time>2026-03-12T15:05:16.730Z</time>
      </trkpt>
      <trkpt lat="46.85236" lon="-1.00537">
        <ele>108</ele>
        <time>2026-03-12T15:05:19.368Z</time>
      </trkpt>
      <trkpt lat="46.85241" lon="-1.0054">
        <ele>108</ele>
        <time>2026-03-12T15:05:20.252Z</time>
      </trkpt>
      <trkpt lat="46.85261" lon="-1.00555">
        <ele>108.4</ele>
        <time>2026-03-12T15:05:24.837Z</time>
      </trkpt>
      <trkpt lat="46.85269" lon="-1.00561">
        <ele>108.7</ele>
        <time>2026-03-12T15:05:26.884Z</time>
      </trkpt>
      <trkpt lat="46.85276" lon="-1.00566">
        <ele>109</ele>
        <time>2026-03-12T15:05:28.975Z</time>
      </trkpt>
      <trkpt lat="46.85283" lon="-1.00569">
        <ele>109</ele>
        <time>2026-03-12T15:05:30.108Z</time>
      </trkpt>
      <trkpt lat="46.85309" lon="-1.00578">
        <ele>108.9</ele>
        <time>2026-03-12T15:05:34.526Z</time>
      </trkpt>
      <trkpt lat="46.85339" lon="-1.00586">
        <ele>108.1</ele>
        <time>2026-03-12T15:05:38.520Z</time>
      </trkpt>
      <trkpt lat="46.8535" lon="-1.0059">
        <ele>108.1</ele>
        <time>2026-03-12T15:05:40.443Z</time>
      </trkpt>
      <trkpt lat="46.85358" lon="-1.00594">
        <ele>108</ele>
        <time>2026-03-12T15:05:41.687Z</time>
      </trkpt>
      <trkpt lat="46.85372" lon="-1.00602">
        <ele>107.8</ele>
        <time>2026-03-12T15:05:43.857Z</time>
      </trkpt>
      <trkpt lat="46.85406" lon="-1.00616">
        <ele>107.1</ele>
        <time>2026-03-12T15:05:48.866Z</time>
      </trkpt>
      <trkpt lat="46.85421" lon="-1.00623">
        <ele>106.9</ele>
        <time>2026-03-12T15:05:51.302Z</time>
      </trkpt>
      <trkpt lat="46.85461" lon="-1.0064">
        <ele>107</ele>
        <time>2026-03-12T15:05:58.336Z</time>
      </trkpt>
      <trkpt lat="46.85483" lon="-1.00654">
        <ele>107</ele>
        <time>2026-03-12T15:06:02.441Z</time>
      </trkpt>
      <trkpt lat="46.85492" lon="-1.0066">
        <ele>107</ele>
        <time>2026-03-12T15:06:04.029Z</time>
      </trkpt>
      <trkpt lat="46.85509" lon="-1.00673">
        <ele>107.3</ele>
        <time>2026-03-12T15:06:07.863Z</time>
      </trkpt>
      <trkpt lat="46.85539" lon="-1.00693">
        <ele>108</ele>
        <time>2026-03-12T15:06:14.699Z</time>
      </trkpt>
      <trkpt lat="46.85562" lon="-1.00711">
        <ele>108.7</ele>
        <time>2026-03-12T15:06:20.489Z</time>
      </trkpt>
      <trkpt lat="46.85593" lon="-1.00737">
        <ele>109.7</ele>
        <time>2026-03-12T15:06:28.458Z</time>
      </trkpt>
      <trkpt lat="46.85635" lon="-1.00777">
        <ele>110</ele>
        <time>2026-03-12T15:06:37.362Z</time>
      </trkpt>
      <trkpt lat="46.8564" lon="-1.00782">
        <ele>110</ele>
        <time>2026-03-12T15:06:38.373Z</time>
      </trkpt>
      <trkpt lat="46.85677" lon="-1.00817">
        <ele>111</ele>
        <time>2026-03-12T15:06:47.676Z</time>
      </trkpt>
      <trkpt lat="46.8569" lon="-1.00829">
        <ele>111</ele>
        <time>2026-03-12T15:06:50.281Z</time>
      </trkpt>
      <trkpt lat="46.85714" lon="-1.00843">
        <ele>111.8</ele>
        <time>2026-03-12T15:06:56.279Z</time>
      </trkpt>
      <trkpt lat="46.85748" lon="-1.00862">
        <ele>112</ele>
        <time>2026-03-12T15:07:02.669Z</time>
      </trkpt>
      <trkpt lat="46.85764" lon="-1.00872">
        <ele>112</ele>
        <time>2026-03-12T15:07:05.633Z</time>
      </trkpt>
      <trkpt lat="46.8579" lon="-1.00886">
        <ele>112</ele>
        <time>2026-03-12T15:07:10.263Z</time>
      </trkpt>
      <trkpt lat="46.85817" lon="-1.00904">
        <ele>112</ele>
        <time>2026-03-12T15:07:15.305Z</time>
      </trkpt>
      <trkpt lat="46.85826" lon="-1.00907">
        <ele>112</ele>
        <time>2026-03-12T15:07:16.890Z</time>
      </trkpt>
      <trkpt lat="46.85832" lon="-1.0091">
        <ele>112</ele>
        <time>2026-03-12T15:07:17.908Z</time>
      </trkpt>
      <trkpt lat="46.85837" lon="-1.00909">
        <ele>112</ele>
        <time>2026-03-12T15:07:18.730Z</time>
      </trkpt>
      <trkpt lat="46.85844" lon="-1.00907">
        <ele>112</ele>
        <time>2026-03-12T15:07:19.955Z</time>
      </trkpt>
      <trkpt lat="46.85848" lon="-1.00904">
        <ele>112</ele>
        <time>2026-03-12T15:07:20.689Z</time>
      </trkpt>
      <trkpt lat="46.85853" lon="-1.00904">
        <ele>112</ele>
        <time>2026-03-12T15:07:21.444Z</time>
      </trkpt>
      <trkpt lat="46.85856" lon="-1.00905">
        <ele>112</ele>
        <time>2026-03-12T15:07:22.047Z</time>
      </trkpt>
      <trkpt lat="46.8586" lon="-1.00907">
        <ele>112</ele>
        <time>2026-03-12T15:07:22.655Z</time>
      </trkpt>
      <trkpt lat="46.85862" lon="-1.00911">
        <ele>112</ele>
        <time>2026-03-12T15:07:23.275Z</time>
      </trkpt>
      <trkpt lat="46.85864" lon="-1.00916">
        <ele>112.1</ele>
        <time>2026-03-12T15:07:24.085Z</time>
      </trkpt>
      <trkpt lat="46.85865" lon="-1.00921">
        <ele>112.1</ele>
        <time>2026-03-12T15:07:24.704Z</time>
      </trkpt>
      <trkpt lat="46.85865" lon="-1.00926">
        <ele>112.1</ele>
        <time>2026-03-12T15:07:25.323Z</time>
      </trkpt>
      <trkpt lat="46.8587" lon="-1.00934">
        <ele>112.3</ele>
        <time>2026-03-12T15:07:26.975Z</time>
      </trkpt>
      <trkpt lat="46.85874" lon="-1.00939">
        <ele>112.5</ele>
        <time>2026-03-12T15:07:28.225Z</time>
      </trkpt>
      <trkpt lat="46.85886" lon="-1.00948">
        <ele>112.9</ele>
        <time>2026-03-12T15:07:31.346Z</time>
      </trkpt>
      <trkpt lat="46.85901" lon="-1.00956">
        <ele>113</ele>
        <time>2026-03-12T15:07:34.186Z</time>
      </trkpt>
      <trkpt lat="46.85951" lon="-1.00979">
        <ele>113</ele>
        <time>2026-03-12T15:07:43.056Z</time>
      </trkpt>
      <trkpt lat="46.85957" lon="-1.00964">
        <ele>112.8</ele>
        <time>2026-03-12T15:07:44.758Z</time>
      </trkpt>
      <trkpt lat="46.8596" lon="-1.00957">
        <ele>112.8</ele>
        <time>2026-03-12T15:07:45.688Z</time>
      </trkpt>
      <trkpt lat="46.85979" lon="-1.00923">
        <ele>113.1</ele>
        <time>2026-03-12T15:07:51.249Z</time>
      </trkpt>
      <trkpt lat="46.85985" lon="-1.00915">
        <ele>113</ele>
        <time>2026-03-12T15:07:52.443Z</time>
      </trkpt>
      <trkpt lat="46.86" lon="-1.00891">
        <ele>113</ele>
        <time>2026-03-12T15:07:56.117Z</time>
      </trkpt>
      <trkpt lat="46.86072" lon="-1.00793">
        <ele>114</ele>
        <time>2026-03-12T15:08:14.375Z</time>
      </trkpt>
      <trkpt lat="46.86095" lon="-1.00767">
        <ele>114.7</ele>
        <time>2026-03-12T15:08:20.693Z</time>
      </trkpt>
      <trkpt lat="46.86142" lon="-1.00728">
        <ele>115.3</ele>
        <time>2026-03-12T15:08:30.750Z</time>
      </trkpt>
      <trkpt lat="46.8615" lon="-1.00723">
        <ele>115.4</ele>
        <time>2026-03-12T15:08:32.328Z</time>
        <extensions>
          <visugpx:TrkExtension xmlns:visugpx="https://www.visugpx.com/editgpx/">
            <visugpx:node>59</visugpx:node>
            </visugpx:TrkExtension>
        </extensions>
      </trkpt>
      <trkpt lat="46.86183" lon="-1.00704">
        <ele>115.6</ele>
        <time>2026-03-12T15:08:38.700Z</time>
      </trkpt>
      <trkpt lat="46.86192" lon="-1.007">
        <ele>115.4</ele>
        <time>2026-03-12T15:08:39.947Z</time>
      </trkpt>
      <trkpt lat="46.86236" lon="-1.0068">
        <ele>116.2</ele>
        <time>2026-03-12T15:08:49.161Z</time>
      </trkpt>
      <trkpt lat="46.86272" lon="-1.00663">
        <ele>117.4</ele>
        <time>2026-03-12T15:08:57.975Z</time>
      </trkpt>
      <trkpt lat="46.86316" lon="-1.00633">
        <ele>117.8</ele>
        <time>2026-03-12T15:09:06.921Z</time>
      </trkpt>
      <trkpt lat="46.86324" lon="-1.00626">
        <ele>118.2</ele>
        <time>2026-03-12T15:09:09.360Z</time>
      </trkpt>
      <trkpt lat="46.86326" lon="-1.00624">
        <ele>118.2</ele>
        <time>2026-03-12T15:09:09.823Z</time>
      </trkpt>
      <trkpt lat="46.86352" lon="-1.00597">
        <ele>119</ele>
        <time>2026-03-12T15:09:16.722Z</time>
      </trkpt>
      <trkpt lat="46.86368" lon="-1.0058">
        <ele>119.2</ele>
        <time>2026-03-12T15:09:20.296Z</time>
      </trkpt>
      <trkpt lat="46.86381" lon="-1.00564">
        <ele>119.2</ele>
        <time>2026-03-12T15:09:23.145Z</time>
        <extensions>
          <visugpx:TrkExtension xmlns:visugpx="https://www.visugpx.com/editgpx/">
            <visugpx:node>60</visugpx:node>
            </visugpx:TrkExtension>
        </extensions>
      </trkpt>
    </trkseg>
  </trk>
</gpx>